<?xml version="1.0" encoding="UTF-8"?>
<gpx version="1.1" creator="Endomondo.com" xsi:schemaLocation="http://www.topografix.com/GPX/1/1 http://www.topografix.com/GPX/1/1/gpx.xsd http://www.garmin.com/xmlschemas/GpxExtensions/v3 http://www.garmin.com/xmlschemas/GpxExtensionsv3.xsd http://www.garmin.com/xmlschemas/TrackPointExtension/v1 http://www.garmin.com/xmlschemas/TrackPointExtensionv1.xsd" xmlns="http://www.topografix.com/GPX/1/1" xmlns:gpxtpx="http://www.garmin.com/xmlschemas/TrackPointExtension/v1" xmlns:gpxx="http://www.garmin.com/xmlschemas/GpxExtensions/v3" xmlns:xsi="http://www.w3.org/2001/XMLSchema-instance">
  <metadata>
    <author>
      <name>Slava Yonov</name>
      <email id="yonoff" domain="gmail.com"/>
    </author>
    <link href="http://www.endomondo.com">
      <text>Endomondo</text>
    </link>
    <time>2011-04-22T13:39:04Z</time>
    <bounds minlat="32.597407" minlon="35.004174" maxlat="32.59731" maxlon="35.004249"/>
  </metadata>
  <trk>
    <src>http://www.endomondo.com/</src>
    <link href="http://www.endomondo.com/workouts/s8Q0Wi_h-ds">
      <text>endomondo</text>
    </link>
    <type>MOUNTAIN_BIKING</type>
    <trkseg>
      <trkpt lat="32.597407" lon="35.004174">
        <time>2011-04-22T04:03:18Z</time>
      </trkpt>
      <trkpt lat="32.597407" lon="35.004174">
        <ele>107.0</ele>
        <time>2011-04-22T04:03:25Z</time>
      </trkpt>
      <trkpt lat="32.597407" lon="35.004174">
        <time>2011-04-22T04:03:36Z</time>
      </trkpt>
    </trkseg>
    <trkseg>
      <trkpt lat="32.597407" lon="35.004174">
        <time>2011-04-22T04:03:56Z</time>
      </trkpt>
      <trkpt lat="32.597407" lon="35.004174">
        <time>2011-04-22T04:04:07Z</time>
      </trkpt>
    </trkseg>
    <trkseg>
      <trkpt lat="32.597407" lon="35.004174">
        <time>2011-04-22T04:05:24Z</time>
      </trkpt>
      <trkpt lat="32.597213" lon="35.004185">
        <ele>111.0</ele>
        <time>2011-04-22T04:05:28Z</time>
      </trkpt>
      <trkpt lat="32.597149" lon="35.004153">
        <ele>112.0</ele>
        <time>2011-04-22T04:05:33Z</time>
      </trkpt>
      <trkpt lat="32.597004" lon="35.004115">
        <ele>115.0</ele>
        <time>2011-04-22T04:05:39Z</time>
      </trkpt>
      <trkpt lat="32.59694" lon="35.004115">
        <ele>116.0</ele>
        <time>2011-04-22T04:05:41Z</time>
      </trkpt>
      <trkpt lat="32.596779" lon="35.00412">
        <ele>116.0</ele>
        <time>2011-04-22T04:05:46Z</time>
      </trkpt>
      <trkpt lat="32.596629" lon="35.004153">
        <ele>117.0</ele>
        <time>2011-04-22T04:05:50Z</time>
      </trkpt>
      <trkpt lat="32.596473" lon="35.004185">
        <ele>116.0</ele>
        <time>2011-04-22T04:05:54Z</time>
      </trkpt>
      <trkpt lat="32.596393" lon="35.00419">
        <ele>116.0</ele>
        <time>2011-04-22T04:05:56Z</time>
      </trkpt>
      <trkpt lat="32.596178" lon="35.004212">
        <ele>116.0</ele>
        <time>2011-04-22T04:06:02Z</time>
      </trkpt>
      <trkpt lat="32.596001" lon="35.004249">
        <ele>116.0</ele>
        <time>2011-04-22T04:06:06Z</time>
      </trkpt>
      <trkpt lat="32.595813" lon="35.004276">
        <ele>115.0</ele>
        <time>2011-04-22T04:06:10Z</time>
      </trkpt>
      <trkpt lat="32.595491" lon="35.004314">
        <ele>112.0</ele>
        <time>2011-04-22T04:06:15Z</time>
      </trkpt>
      <trkpt lat="32.595164" lon="35.004367">
        <ele>106.0</ele>
        <time>2011-04-22T04:06:19Z</time>
      </trkpt>
      <trkpt lat="32.594939" lon="35.004426">
        <ele>101.0</ele>
        <time>2011-04-22T04:06:22Z</time>
      </trkpt>
      <trkpt lat="32.594756" lon="35.004539">
        <ele>95.0</ele>
        <time>2011-04-22T04:06:26Z</time>
      </trkpt>
      <trkpt lat="32.594628" lon="35.004635">
        <ele>92.0</ele>
        <time>2011-04-22T04:06:30Z</time>
      </trkpt>
      <trkpt lat="32.594424" lon="35.004646">
        <ele>89.0</ele>
        <time>2011-04-22T04:06:34Z</time>
      </trkpt>
      <trkpt lat="32.594236" lon="35.004598">
        <ele>85.0</ele>
        <time>2011-04-22T04:06:38Z</time>
      </trkpt>
      <trkpt lat="32.594107" lon="35.004657">
        <ele>83.0</ele>
        <time>2011-04-22T04:06:42Z</time>
      </trkpt>
      <trkpt lat="32.593968" lon="35.004716">
        <ele>80.0</ele>
        <time>2011-04-22T04:06:46Z</time>
      </trkpt>
      <trkpt lat="32.593748" lon="35.004743">
        <ele>77.0</ele>
        <time>2011-04-22T04:06:51Z</time>
      </trkpt>
      <trkpt lat="32.59349" lon="35.004845">
        <ele>77.0</ele>
        <time>2011-04-22T04:06:55Z</time>
      </trkpt>
      <trkpt lat="32.593313" lon="35.004947">
        <ele>76.0</ele>
        <time>2011-04-22T04:06:58Z</time>
      </trkpt>
      <trkpt lat="32.593136" lon="35.005075">
        <ele>75.0</ele>
        <time>2011-04-22T04:07:02Z</time>
      </trkpt>
      <trkpt lat="32.592938" lon="35.00515">
        <ele>75.0</ele>
        <time>2011-04-22T04:07:06Z</time>
      </trkpt>
      <trkpt lat="32.592766" lon="35.005226">
        <ele>74.0</ele>
        <time>2011-04-22T04:07:10Z</time>
      </trkpt>
      <trkpt lat="32.592686" lon="35.005279">
        <ele>75.0</ele>
        <time>2011-04-22T04:07:13Z</time>
      </trkpt>
      <trkpt lat="32.592627" lon="35.005327">
        <ele>74.0</ele>
        <time>2011-04-22T04:07:16Z</time>
      </trkpt>
      <trkpt lat="32.592562" lon="35.00536">
        <ele>74.0</ele>
        <time>2011-04-22T04:07:20Z</time>
      </trkpt>
      <trkpt lat="32.592498" lon="35.005403">
        <ele>74.0</ele>
        <time>2011-04-22T04:07:24Z</time>
      </trkpt>
      <trkpt lat="32.592251" lon="35.005488">
        <ele>74.0</ele>
        <time>2011-04-22T04:07:35Z</time>
      </trkpt>
      <trkpt lat="32.592182" lon="35.005515">
        <ele>75.0</ele>
        <time>2011-04-22T04:07:37Z</time>
      </trkpt>
      <trkpt lat="32.592005" lon="35.005553">
        <ele>74.0</ele>
        <time>2011-04-22T04:07:43Z</time>
      </trkpt>
      <trkpt lat="32.591844" lon="35.005612">
        <ele>71.0</ele>
        <time>2011-04-22T04:07:46Z</time>
      </trkpt>
      <trkpt lat="32.591779" lon="35.005617">
        <ele>71.0</ele>
        <time>2011-04-22T04:07:49Z</time>
      </trkpt>
      <trkpt lat="32.591731" lon="35.005762">
        <ele>72.0</ele>
        <time>2011-04-22T04:07:55Z</time>
      </trkpt>
      <trkpt lat="32.59179" lon="35.005939">
        <ele>72.0</ele>
        <time>2011-04-22T04:07:59Z</time>
      </trkpt>
      <trkpt lat="32.591769" lon="35.006127">
        <ele>73.0</ele>
        <time>2011-04-22T04:08:03Z</time>
      </trkpt>
      <trkpt lat="32.591656" lon="35.006245">
        <ele>72.0</ele>
        <time>2011-04-22T04:08:07Z</time>
      </trkpt>
      <trkpt lat="32.591538" lon="35.006357">
        <ele>72.0</ele>
        <time>2011-04-22T04:08:11Z</time>
      </trkpt>
      <trkpt lat="32.591425" lon="35.006459">
        <ele>71.0</ele>
        <time>2011-04-22T04:08:15Z</time>
      </trkpt>
      <trkpt lat="32.59135" lon="35.006518">
        <ele>71.0</ele>
        <time>2011-04-22T04:08:18Z</time>
      </trkpt>
      <trkpt lat="32.591232" lon="35.006626">
        <ele>71.0</ele>
        <time>2011-04-22T04:08:22Z</time>
      </trkpt>
      <trkpt lat="32.591168" lon="35.006679">
        <ele>71.0</ele>
        <time>2011-04-22T04:08:24Z</time>
      </trkpt>
      <trkpt lat="32.59098" lon="35.006797">
        <ele>71.0</ele>
        <time>2011-04-22T04:08:30Z</time>
      </trkpt>
      <trkpt lat="32.590916" lon="35.006749">
        <ele>72.0</ele>
        <time>2011-04-22T04:08:32Z</time>
      </trkpt>
      <trkpt lat="32.590846" lon="35.006588">
        <ele>72.0</ele>
        <time>2011-04-22T04:08:38Z</time>
      </trkpt>
      <trkpt lat="32.590846" lon="35.006508">
        <ele>73.0</ele>
        <time>2011-04-22T04:08:41Z</time>
      </trkpt>
      <trkpt lat="32.590819" lon="35.00632">
        <ele>73.0</ele>
        <time>2011-04-22T04:08:46Z</time>
      </trkpt>
      <trkpt lat="32.590792" lon="35.006148">
        <ele>73.0</ele>
        <time>2011-04-22T04:08:50Z</time>
      </trkpt>
      <trkpt lat="32.590744" lon="35.005955">
        <ele>73.0</ele>
        <time>2011-04-22T04:08:55Z</time>
      </trkpt>
      <trkpt lat="32.590733" lon="35.005853">
        <ele>74.0</ele>
        <time>2011-04-22T04:08:58Z</time>
      </trkpt>
      <trkpt lat="32.590706" lon="35.005655">
        <ele>73.0</ele>
        <time>2011-04-22T04:09:02Z</time>
      </trkpt>
      <trkpt lat="32.590701" lon="35.005563">
        <ele>72.0</ele>
        <time>2011-04-22T04:09:04Z</time>
      </trkpt>
      <trkpt lat="32.59068" lon="35.005301">
        <ele>72.0</ele>
        <time>2011-04-22T04:09:11Z</time>
      </trkpt>
      <trkpt lat="32.590669" lon="35.005215">
        <ele>73.0</ele>
        <time>2011-04-22T04:09:14Z</time>
      </trkpt>
      <trkpt lat="32.590658" lon="35.00514">
        <ele>74.0</ele>
        <time>2011-04-22T04:09:17Z</time>
      </trkpt>
      <trkpt lat="32.590658" lon="35.004968">
        <ele>74.0</ele>
        <time>2011-04-22T04:09:22Z</time>
      </trkpt>
      <trkpt lat="32.590685" lon="35.004753">
        <ele>74.0</ele>
        <time>2011-04-22T04:09:26Z</time>
      </trkpt>
      <trkpt lat="32.59069" lon="35.00455">
        <ele>75.0</ele>
        <time>2011-04-22T04:09:30Z</time>
      </trkpt>
      <trkpt lat="32.59068" lon="35.004357">
        <ele>77.0</ele>
        <time>2011-04-22T04:09:34Z</time>
      </trkpt>
      <trkpt lat="32.590669" lon="35.003992">
        <ele>76.0</ele>
        <time>2011-04-22T04:09:39Z</time>
      </trkpt>
      <trkpt lat="32.590642" lon="35.003664">
        <ele>74.0</ele>
        <time>2011-04-22T04:09:43Z</time>
      </trkpt>
      <trkpt lat="32.590551" lon="35.003348">
        <ele>72.0</ele>
        <time>2011-04-22T04:09:47Z</time>
      </trkpt>
      <trkpt lat="32.590481" lon="35.003042">
        <ele>71.0</ele>
        <time>2011-04-22T04:09:51Z</time>
      </trkpt>
      <trkpt lat="32.590443" lon="35.002774">
        <ele>70.0</ele>
        <time>2011-04-22T04:09:55Z</time>
      </trkpt>
      <trkpt lat="32.59046" lon="35.002511">
        <ele>70.0</ele>
        <time>2011-04-22T04:09:59Z</time>
      </trkpt>
      <trkpt lat="32.590465" lon="35.002238">
        <ele>68.0</ele>
        <time>2011-04-22T04:10:03Z</time>
      </trkpt>
      <trkpt lat="32.590508" lon="35.001937">
        <ele>67.0</ele>
        <time>2011-04-22T04:10:07Z</time>
      </trkpt>
      <trkpt lat="32.590513" lon="35.001723">
        <ele>66.0</ele>
        <time>2011-04-22T04:10:10Z</time>
      </trkpt>
      <trkpt lat="32.590519" lon="35.001449">
        <ele>66.0</ele>
        <time>2011-04-22T04:10:14Z</time>
      </trkpt>
      <trkpt lat="32.590513" lon="35.001315">
        <ele>65.0</ele>
        <time>2011-04-22T04:10:16Z</time>
      </trkpt>
      <trkpt lat="32.590545" lon="35.000929">
        <ele>64.0</ele>
        <time>2011-04-22T04:10:22Z</time>
      </trkpt>
      <trkpt lat="32.590562" lon="35.000671">
        <ele>65.0</ele>
        <time>2011-04-22T04:10:26Z</time>
      </trkpt>
      <trkpt lat="32.590567" lon="35.000408">
        <ele>64.0</ele>
        <time>2011-04-22T04:10:30Z</time>
      </trkpt>
      <trkpt lat="32.590572" lon="35.00014">
        <ele>65.0</ele>
        <time>2011-04-22T04:10:34Z</time>
      </trkpt>
      <trkpt lat="32.590594" lon="34.999791">
        <ele>65.0</ele>
        <time>2011-04-22T04:10:40Z</time>
      </trkpt>
      <trkpt lat="32.590599" lon="34.999555">
        <ele>65.0</ele>
        <time>2011-04-22T04:10:42Z</time>
      </trkpt>
      <trkpt lat="32.59061" lon="34.999298">
        <ele>66.0</ele>
        <time>2011-04-22T04:10:46Z</time>
      </trkpt>
      <trkpt lat="32.590594" lon="34.999051">
        <ele>66.0</ele>
        <time>2011-04-22T04:10:50Z</time>
      </trkpt>
      <trkpt lat="32.590556" lon="34.99881">
        <ele>66.0</ele>
        <time>2011-04-22T04:10:54Z</time>
      </trkpt>
      <trkpt lat="32.590497" lon="34.998563">
        <ele>66.0</ele>
        <time>2011-04-22T04:10:58Z</time>
      </trkpt>
      <trkpt lat="32.590422" lon="34.998316">
        <ele>67.0</ele>
        <time>2011-04-22T04:11:02Z</time>
      </trkpt>
      <trkpt lat="32.590384" lon="34.998198">
        <ele>67.0</ele>
        <time>2011-04-22T04:11:04Z</time>
      </trkpt>
      <trkpt lat="32.590256" lon="34.997849">
        <ele>66.0</ele>
        <time>2011-04-22T04:11:10Z</time>
      </trkpt>
      <trkpt lat="32.590143" lon="34.997619">
        <ele>65.0</ele>
        <time>2011-04-22T04:11:14Z</time>
      </trkpt>
      <trkpt lat="32.590057" lon="34.997393">
        <ele>64.0</ele>
        <time>2011-04-22T04:11:18Z</time>
      </trkpt>
      <trkpt lat="32.590009" lon="34.997281">
        <ele>64.0</ele>
        <time>2011-04-22T04:11:20Z</time>
      </trkpt>
      <trkpt lat="32.58995" lon="34.997045">
        <ele>65.0</ele>
        <time>2011-04-22T04:11:24Z</time>
      </trkpt>
      <trkpt lat="32.589821" lon="34.996685">
        <ele>64.0</ele>
        <time>2011-04-22T04:11:30Z</time>
      </trkpt>
      <trkpt lat="32.589714" lon="34.996439">
        <ele>65.0</ele>
        <time>2011-04-22T04:11:34Z</time>
      </trkpt>
      <trkpt lat="32.589601" lon="34.996208">
        <ele>64.0</ele>
        <time>2011-04-22T04:11:38Z</time>
      </trkpt>
      <trkpt lat="32.589515" lon="34.995983">
        <ele>64.0</ele>
        <time>2011-04-22T04:11:42Z</time>
      </trkpt>
      <trkpt lat="32.589387" lon="34.995763">
        <ele>63.0</ele>
        <time>2011-04-22T04:11:46Z</time>
      </trkpt>
      <trkpt lat="32.589269" lon="34.995559">
        <ele>64.0</ele>
        <time>2011-04-22T04:11:50Z</time>
      </trkpt>
      <trkpt lat="32.589135" lon="34.995393">
        <ele>64.0</ele>
        <time>2011-04-22T04:11:54Z</time>
      </trkpt>
      <trkpt lat="32.589" lon="34.995237">
        <ele>65.0</ele>
        <time>2011-04-22T04:11:58Z</time>
      </trkpt>
      <trkpt lat="32.588877" lon="34.995108">
        <ele>64.0</ele>
        <time>2011-04-22T04:12:02Z</time>
      </trkpt>
      <trkpt lat="32.588781" lon="34.994996">
        <ele>64.0</ele>
        <time>2011-04-22T04:12:06Z</time>
      </trkpt>
      <trkpt lat="32.588673" lon="34.994899">
        <ele>65.0</ele>
        <time>2011-04-22T04:12:10Z</time>
      </trkpt>
      <trkpt lat="32.588539" lon="34.994813">
        <ele>66.0</ele>
        <time>2011-04-22T04:12:15Z</time>
      </trkpt>
      <trkpt lat="32.588469" lon="34.99476">
        <ele>67.0</ele>
        <time>2011-04-22T04:12:18Z</time>
      </trkpt>
      <trkpt lat="32.588394" lon="34.994711">
        <ele>67.0</ele>
        <time>2011-04-22T04:12:21Z</time>
      </trkpt>
      <trkpt lat="32.588255" lon="34.994609">
        <ele>67.0</ele>
        <time>2011-04-22T04:12:27Z</time>
      </trkpt>
      <trkpt lat="32.588201" lon="34.994566">
        <ele>68.0</ele>
        <time>2011-04-22T04:12:29Z</time>
      </trkpt>
      <trkpt lat="32.588062" lon="34.994454">
        <ele>70.0</ele>
        <time>2011-04-22T04:12:35Z</time>
      </trkpt>
      <trkpt lat="32.588008" lon="34.9944">
        <ele>71.0</ele>
        <time>2011-04-22T04:12:38Z</time>
      </trkpt>
      <trkpt lat="32.587901" lon="34.994293">
        <ele>73.0</ele>
        <time>2011-04-22T04:12:43Z</time>
      </trkpt>
      <trkpt lat="32.587847" lon="34.994228">
        <ele>73.0</ele>
        <time>2011-04-22T04:12:46Z</time>
      </trkpt>
      <trkpt lat="32.587788" lon="34.994164">
        <ele>74.0</ele>
        <time>2011-04-22T04:12:50Z</time>
      </trkpt>
      <trkpt lat="32.587745" lon="34.994105">
        <ele>75.0</ele>
        <time>2011-04-22T04:12:53Z</time>
      </trkpt>
      <trkpt lat="32.587622" lon="34.993987">
        <ele>75.0</ele>
        <time>2011-04-22T04:12:59Z</time>
      </trkpt>
      <trkpt lat="32.587504" lon="34.993923">
        <ele>75.0</ele>
        <time>2011-04-22T04:13:03Z</time>
      </trkpt>
      <trkpt lat="32.587418" lon="34.99388">
        <ele>75.0</ele>
        <time>2011-04-22T04:13:06Z</time>
      </trkpt>
      <trkpt lat="32.587332" lon="34.993837">
        <ele>76.0</ele>
        <time>2011-04-22T04:13:09Z</time>
      </trkpt>
      <trkpt lat="32.587203" lon="34.99374">
        <ele>76.0</ele>
        <time>2011-04-22T04:13:14Z</time>
      </trkpt>
      <trkpt lat="32.587085" lon="34.993601">
        <ele>75.0</ele>
        <time>2011-04-22T04:13:19Z</time>
      </trkpt>
      <trkpt lat="32.586994" lon="34.993472">
        <ele>75.0</ele>
        <time>2011-04-22T04:13:23Z</time>
      </trkpt>
      <trkpt lat="32.586898" lon="34.993354">
        <ele>75.0</ele>
        <time>2011-04-22T04:13:27Z</time>
      </trkpt>
      <trkpt lat="32.586785" lon="34.99322">
        <ele>75.0</ele>
        <time>2011-04-22T04:13:31Z</time>
      </trkpt>
      <trkpt lat="32.586678" lon="34.993086">
        <ele>74.0</ele>
        <time>2011-04-22T04:13:35Z</time>
      </trkpt>
      <trkpt lat="32.58656" lon="34.992946">
        <ele>75.0</ele>
        <time>2011-04-22T04:13:39Z</time>
      </trkpt>
      <trkpt lat="32.586436" lon="34.992812">
        <ele>75.0</ele>
        <time>2011-04-22T04:13:43Z</time>
      </trkpt>
      <trkpt lat="32.586334" lon="34.992689">
        <ele>76.0</ele>
        <time>2011-04-22T04:13:47Z</time>
      </trkpt>
      <trkpt lat="32.586206" lon="34.992571">
        <ele>77.0</ele>
        <time>2011-04-22T04:13:51Z</time>
      </trkpt>
      <trkpt lat="32.586082" lon="34.992447">
        <ele>78.0</ele>
        <time>2011-04-22T04:13:55Z</time>
      </trkpt>
      <trkpt lat="32.585964" lon="34.992329">
        <ele>77.0</ele>
        <time>2011-04-22T04:13:59Z</time>
      </trkpt>
      <trkpt lat="32.585841" lon="34.992217">
        <ele>77.0</ele>
        <time>2011-04-22T04:14:03Z</time>
      </trkpt>
      <trkpt lat="32.585771" lon="34.992152">
        <ele>78.0</ele>
        <time>2011-04-22T04:14:06Z</time>
      </trkpt>
      <trkpt lat="32.585664" lon="34.992045">
        <ele>78.0</ele>
        <time>2011-04-22T04:14:10Z</time>
      </trkpt>
      <trkpt lat="32.585551" lon="34.991954">
        <ele>79.0</ele>
        <time>2011-04-22T04:14:14Z</time>
      </trkpt>
      <trkpt lat="32.585433" lon="34.991857">
        <ele>81.0</ele>
        <time>2011-04-22T04:14:18Z</time>
      </trkpt>
      <trkpt lat="32.585369" lon="34.991809">
        <ele>81.0</ele>
        <time>2011-04-22T04:14:21Z</time>
      </trkpt>
      <trkpt lat="32.585299" lon="34.991804">
        <ele>80.0</ele>
        <time>2011-04-22T04:14:26Z</time>
      </trkpt>
      <trkpt lat="32.585299" lon="34.991804">
        <time>2011-04-22T04:14:38Z</time>
      </trkpt>
    </trkseg>
    <trkseg>
      <trkpt lat="32.585299" lon="34.991804">
        <time>2011-04-22T04:15:42Z</time>
      </trkpt>
      <trkpt lat="32.58517" lon="34.991841">
        <ele>83.0</ele>
        <time>2011-04-22T04:15:51Z</time>
      </trkpt>
      <trkpt lat="32.585106" lon="34.991863">
        <ele>82.0</ele>
        <time>2011-04-22T04:15:57Z</time>
      </trkpt>
      <trkpt lat="32.585106" lon="34.991863">
        <time>2011-04-22T04:16:09Z</time>
      </trkpt>
    </trkseg>
    <trkseg>
      <trkpt lat="32.585106" lon="34.991863">
        <time>2011-04-22T04:16:10Z</time>
      </trkpt>
      <trkpt lat="32.58524" lon="34.991857">
        <ele>82.0</ele>
        <time>2011-04-22T04:16:17Z</time>
      </trkpt>
      <trkpt lat="32.58517" lon="34.991874">
        <ele>82.0</ele>
        <time>2011-04-22T04:16:25Z</time>
      </trkpt>
      <trkpt lat="32.585117" lon="34.991943">
        <ele>82.0</ele>
        <time>2011-04-22T04:16:28Z</time>
      </trkpt>
      <trkpt lat="32.585079" lon="34.992013">
        <ele>82.0</ele>
        <time>2011-04-22T04:16:31Z</time>
      </trkpt>
      <trkpt lat="32.585042" lon="34.992195">
        <ele>83.0</ele>
        <time>2011-04-22T04:16:38Z</time>
      </trkpt>
      <trkpt lat="32.585058" lon="34.992292">
        <ele>84.0</ele>
        <time>2011-04-22T04:16:41Z</time>
      </trkpt>
      <trkpt lat="32.58502" lon="34.992372">
        <ele>85.0</ele>
        <time>2011-04-22T04:16:44Z</time>
      </trkpt>
      <trkpt lat="32.584966" lon="34.992544">
        <ele>84.0</ele>
        <time>2011-04-22T04:16:50Z</time>
      </trkpt>
      <trkpt lat="32.585015" lon="34.992603">
        <ele>81.0</ele>
        <time>2011-04-22T04:16:55Z</time>
      </trkpt>
      <trkpt lat="32.585084" lon="34.992625">
        <ele>83.0</ele>
        <time>2011-04-22T04:16:59Z</time>
      </trkpt>
      <trkpt lat="32.585165" lon="34.992651">
        <ele>86.0</ele>
        <time>2011-04-22T04:17:03Z</time>
      </trkpt>
      <trkpt lat="32.585224" lon="34.9927">
        <ele>87.0</ele>
        <time>2011-04-22T04:17:07Z</time>
      </trkpt>
      <trkpt lat="32.585256" lon="34.992764">
        <ele>87.0</ele>
        <time>2011-04-22T04:17:11Z</time>
      </trkpt>
      <trkpt lat="32.585272" lon="34.992861">
        <ele>88.0</ele>
        <time>2011-04-22T04:17:16Z</time>
      </trkpt>
      <trkpt lat="32.585267" lon="34.992941">
        <ele>89.0</ele>
        <time>2011-04-22T04:17:20Z</time>
      </trkpt>
      <trkpt lat="32.585272" lon="34.993027">
        <ele>90.0</ele>
        <time>2011-04-22T04:17:24Z</time>
      </trkpt>
      <trkpt lat="32.585304" lon="34.993102">
        <ele>92.0</ele>
        <time>2011-04-22T04:17:30Z</time>
      </trkpt>
      <trkpt lat="32.585369" lon="34.993161">
        <ele>94.0</ele>
        <time>2011-04-22T04:17:34Z</time>
      </trkpt>
      <trkpt lat="32.585401" lon="34.993241">
        <ele>95.0</ele>
        <time>2011-04-22T04:17:38Z</time>
      </trkpt>
      <trkpt lat="32.585444" lon="34.993317">
        <ele>96.0</ele>
        <time>2011-04-22T04:17:42Z</time>
      </trkpt>
      <trkpt lat="32.585476" lon="34.993392">
        <ele>97.0</ele>
        <time>2011-04-22T04:17:46Z</time>
      </trkpt>
      <trkpt lat="32.585492" lon="34.993477">
        <ele>99.0</ele>
        <time>2011-04-22T04:17:53Z</time>
      </trkpt>
      <trkpt lat="32.585471" lon="34.993553">
        <ele>100.0</ele>
        <time>2011-04-22T04:17:57Z</time>
      </trkpt>
      <trkpt lat="32.585492" lon="34.993628">
        <ele>100.0</ele>
        <time>2011-04-22T04:18:01Z</time>
      </trkpt>
      <trkpt lat="32.585514" lon="34.993708">
        <ele>100.0</ele>
        <time>2011-04-22T04:18:07Z</time>
      </trkpt>
      <trkpt lat="32.585519" lon="34.993799">
        <ele>101.0</ele>
        <time>2011-04-22T04:18:12Z</time>
      </trkpt>
      <trkpt lat="32.585546" lon="34.993874">
        <ele>103.0</ele>
        <time>2011-04-22T04:18:17Z</time>
      </trkpt>
      <trkpt lat="32.585594" lon="34.99395">
        <ele>105.0</ele>
        <time>2011-04-22T04:18:22Z</time>
      </trkpt>
      <trkpt lat="32.585637" lon="34.99411">
        <ele>105.0</ele>
        <time>2011-04-22T04:18:32Z</time>
      </trkpt>
      <trkpt lat="32.585664" lon="34.99418">
        <ele>105.0</ele>
        <time>2011-04-22T04:18:37Z</time>
      </trkpt>
      <trkpt lat="32.585599" lon="34.994212">
        <ele>107.0</ele>
        <time>2011-04-22T04:18:41Z</time>
      </trkpt>
      <trkpt lat="32.585546" lon="34.994277">
        <ele>108.0</ele>
        <time>2011-04-22T04:18:47Z</time>
      </trkpt>
      <trkpt lat="32.585514" lon="34.994341">
        <ele>111.0</ele>
        <time>2011-04-22T04:18:58Z</time>
      </trkpt>
      <trkpt lat="32.585514" lon="34.994341">
        <time>2011-04-22T04:19:10Z</time>
      </trkpt>
    </trkseg>
    <trkseg>
      <trkpt lat="32.585514" lon="34.994341">
        <time>2011-04-22T04:19:10Z</time>
      </trkpt>
      <trkpt lat="32.585401" lon="34.994438">
        <ele>112.0</ele>
        <time>2011-04-22T04:19:17Z</time>
      </trkpt>
      <trkpt lat="32.585363" lon="34.994507">
        <ele>113.0</ele>
        <time>2011-04-22T04:19:23Z</time>
      </trkpt>
      <trkpt lat="32.585331" lon="34.994599">
        <ele>114.0</ele>
        <time>2011-04-22T04:19:30Z</time>
      </trkpt>
      <trkpt lat="32.585315" lon="34.994674">
        <ele>113.0</ele>
        <time>2011-04-22T04:19:36Z</time>
      </trkpt>
      <trkpt lat="32.585272" lon="34.994738">
        <ele>113.0</ele>
        <time>2011-04-22T04:19:42Z</time>
      </trkpt>
      <trkpt lat="32.585176" lon="34.994872">
        <ele>115.0</ele>
        <time>2011-04-22T04:19:53Z</time>
      </trkpt>
      <trkpt lat="32.585149" lon="34.994947">
        <ele>115.0</ele>
        <time>2011-04-22T04:19:57Z</time>
      </trkpt>
      <trkpt lat="32.585127" lon="34.995033">
        <ele>115.0</ele>
        <time>2011-04-22T04:20:04Z</time>
      </trkpt>
      <trkpt lat="32.585127" lon="34.995108">
        <ele>117.0</ele>
        <time>2011-04-22T04:20:08Z</time>
      </trkpt>
      <trkpt lat="32.58517" lon="34.995178">
        <ele>120.0</ele>
        <time>2011-04-22T04:20:13Z</time>
      </trkpt>
      <trkpt lat="32.585224" lon="34.995248">
        <ele>122.0</ele>
        <time>2011-04-22T04:20:18Z</time>
      </trkpt>
      <trkpt lat="32.585267" lon="34.995307">
        <ele>123.0</ele>
        <time>2011-04-22T04:20:23Z</time>
      </trkpt>
      <trkpt lat="32.58532" lon="34.99535">
        <ele>122.0</ele>
        <time>2011-04-22T04:20:28Z</time>
      </trkpt>
      <trkpt lat="32.585385" lon="34.995317">
        <ele>122.0</ele>
        <time>2011-04-22T04:20:32Z</time>
      </trkpt>
      <trkpt lat="32.585455" lon="34.995301">
        <ele>122.0</ele>
        <time>2011-04-22T04:20:36Z</time>
      </trkpt>
      <trkpt lat="32.585524" lon="34.995285">
        <ele>123.0</ele>
        <time>2011-04-22T04:20:40Z</time>
      </trkpt>
      <trkpt lat="32.585594" lon="34.995312">
        <ele>124.0</ele>
        <time>2011-04-22T04:20:45Z</time>
      </trkpt>
      <trkpt lat="32.585653" lon="34.99536">
        <ele>126.0</ele>
        <time>2011-04-22T04:20:48Z</time>
      </trkpt>
      <trkpt lat="32.58568" lon="34.995435">
        <ele>126.0</ele>
        <time>2011-04-22T04:20:52Z</time>
      </trkpt>
      <trkpt lat="32.585696" lon="34.995521">
        <ele>128.0</ele>
        <time>2011-04-22T04:20:57Z</time>
      </trkpt>
      <trkpt lat="32.585675" lon="34.995602">
        <ele>128.0</ele>
        <time>2011-04-22T04:21:03Z</time>
      </trkpt>
      <trkpt lat="32.585658" lon="34.995677">
        <ele>128.0</ele>
        <time>2011-04-22T04:21:06Z</time>
      </trkpt>
      <trkpt lat="32.585707" lon="34.995736">
        <ele>128.0</ele>
        <time>2011-04-22T04:21:11Z</time>
      </trkpt>
      <trkpt lat="32.585776" lon="34.995736">
        <ele>127.0</ele>
        <time>2011-04-22T04:21:15Z</time>
      </trkpt>
      <trkpt lat="32.585841" lon="34.995736">
        <ele>127.0</ele>
        <time>2011-04-22T04:21:19Z</time>
      </trkpt>
      <trkpt lat="32.585905" lon="34.995731">
        <ele>127.0</ele>
        <time>2011-04-22T04:21:23Z</time>
      </trkpt>
      <trkpt lat="32.586039" lon="34.995731">
        <ele>128.0</ele>
        <time>2011-04-22T04:21:30Z</time>
      </trkpt>
      <trkpt lat="32.586104" lon="34.995741">
        <ele>129.0</ele>
        <time>2011-04-22T04:21:34Z</time>
      </trkpt>
      <trkpt lat="32.586168" lon="34.995741">
        <ele>130.0</ele>
        <time>2011-04-22T04:21:38Z</time>
      </trkpt>
      <trkpt lat="32.586243" lon="34.995757">
        <ele>132.0</ele>
        <time>2011-04-22T04:21:42Z</time>
      </trkpt>
      <trkpt lat="32.586313" lon="34.995773">
        <ele>133.0</ele>
        <time>2011-04-22T04:21:45Z</time>
      </trkpt>
      <trkpt lat="32.586452" lon="34.995811">
        <ele>134.0</ele>
        <time>2011-04-22T04:21:51Z</time>
      </trkpt>
      <trkpt lat="32.586527" lon="34.995784">
        <ele>135.0</ele>
        <time>2011-04-22T04:21:54Z</time>
      </trkpt>
      <trkpt lat="32.586592" lon="34.995763">
        <ele>135.0</ele>
        <time>2011-04-22T04:21:56Z</time>
      </trkpt>
      <trkpt lat="32.586715" lon="34.995843">
        <ele>135.0</ele>
        <time>2011-04-22T04:22:01Z</time>
      </trkpt>
      <trkpt lat="32.58671" lon="34.995918">
        <ele>137.0</ele>
        <time>2011-04-22T04:22:05Z</time>
      </trkpt>
      <trkpt lat="32.586672" lon="34.995983">
        <ele>138.0</ele>
        <time>2011-04-22T04:22:10Z</time>
      </trkpt>
      <trkpt lat="32.586651" lon="34.996144">
        <ele>140.0</ele>
        <time>2011-04-22T04:22:21Z</time>
      </trkpt>
      <trkpt lat="32.586662" lon="34.996235">
        <ele>141.0</ele>
        <time>2011-04-22T04:22:27Z</time>
      </trkpt>
      <trkpt lat="32.586683" lon="34.996315">
        <ele>142.0</ele>
        <time>2011-04-22T04:22:32Z</time>
      </trkpt>
      <trkpt lat="32.586694" lon="34.99639">
        <ele>143.0</ele>
        <time>2011-04-22T04:22:37Z</time>
      </trkpt>
      <trkpt lat="32.586704" lon="34.996465">
        <ele>144.0</ele>
        <time>2011-04-22T04:22:42Z</time>
      </trkpt>
      <trkpt lat="32.58671" lon="34.996541">
        <ele>144.0</ele>
        <time>2011-04-22T04:22:47Z</time>
      </trkpt>
      <trkpt lat="32.586721" lon="34.996626">
        <ele>145.0</ele>
        <time>2011-04-22T04:22:52Z</time>
      </trkpt>
      <trkpt lat="32.586747" lon="34.996696">
        <ele>147.0</ele>
        <time>2011-04-22T04:22:58Z</time>
      </trkpt>
      <trkpt lat="32.58678" lon="34.996782">
        <ele>149.0</ele>
        <time>2011-04-22T04:23:04Z</time>
      </trkpt>
      <trkpt lat="32.586823" lon="34.996852">
        <ele>150.0</ele>
        <time>2011-04-22T04:23:10Z</time>
      </trkpt>
      <trkpt lat="32.586828" lon="34.996938">
        <ele>150.0</ele>
        <time>2011-04-22T04:23:16Z</time>
      </trkpt>
      <trkpt lat="32.586823" lon="34.997018">
        <ele>151.0</ele>
        <time>2011-04-22T04:23:22Z</time>
      </trkpt>
      <trkpt lat="32.58678" lon="34.997077">
        <ele>152.0</ele>
        <time>2011-04-22T04:23:27Z</time>
      </trkpt>
      <trkpt lat="32.586726" lon="34.997211">
        <ele>153.0</ele>
        <time>2011-04-22T04:23:35Z</time>
      </trkpt>
      <trkpt lat="32.586721" lon="34.997292">
        <ele>153.0</ele>
        <time>2011-04-22T04:23:39Z</time>
      </trkpt>
      <trkpt lat="32.586758" lon="34.997367">
        <ele>154.0</ele>
        <time>2011-04-22T04:23:44Z</time>
      </trkpt>
      <trkpt lat="32.586817" lon="34.997334">
        <ele>153.0</ele>
        <time>2011-04-22T04:23:50Z</time>
      </trkpt>
      <trkpt lat="32.586882" lon="34.997318">
        <ele>153.0</ele>
        <time>2011-04-22T04:23:55Z</time>
      </trkpt>
      <trkpt lat="32.586946" lon="34.99727">
        <ele>155.0</ele>
        <time>2011-04-22T04:24:01Z</time>
      </trkpt>
      <trkpt lat="32.587005" lon="34.997233">
        <ele>158.0</ele>
        <time>2011-04-22T04:24:04Z</time>
      </trkpt>
      <trkpt lat="32.587107" lon="34.997131">
        <ele>161.0</ele>
        <time>2011-04-22T04:24:11Z</time>
      </trkpt>
      <trkpt lat="32.58715" lon="34.997061">
        <ele>162.0</ele>
        <time>2011-04-22T04:24:14Z</time>
      </trkpt>
      <trkpt lat="32.587198" lon="34.997013">
        <ele>162.0</ele>
        <time>2011-04-22T04:24:17Z</time>
      </trkpt>
      <trkpt lat="32.587252" lon="34.99697">
        <ele>162.0</ele>
        <time>2011-04-22T04:24:21Z</time>
      </trkpt>
      <trkpt lat="32.587321" lon="34.996938">
        <ele>162.0</ele>
        <time>2011-04-22T04:24:25Z</time>
      </trkpt>
      <trkpt lat="32.587386" lon="34.996905">
        <ele>163.0</ele>
        <time>2011-04-22T04:24:28Z</time>
      </trkpt>
      <trkpt lat="32.587466" lon="34.996879">
        <ele>164.0</ele>
        <time>2011-04-22T04:24:32Z</time>
      </trkpt>
      <trkpt lat="32.587616" lon="34.996846">
        <ele>164.0</ele>
        <time>2011-04-22T04:24:39Z</time>
      </trkpt>
      <trkpt lat="32.587681" lon="34.996879">
        <ele>163.0</ele>
        <time>2011-04-22T04:24:43Z</time>
      </trkpt>
      <trkpt lat="32.58774" lon="34.996927">
        <ele>163.0</ele>
        <time>2011-04-22T04:24:47Z</time>
      </trkpt>
      <trkpt lat="32.587751" lon="34.997088">
        <ele>163.0</ele>
        <time>2011-04-22T04:24:56Z</time>
      </trkpt>
      <trkpt lat="32.587745" lon="34.997163">
        <ele>163.0</ele>
        <time>2011-04-22T04:25:00Z</time>
      </trkpt>
      <trkpt lat="32.587761" lon="34.997254">
        <ele>163.0</ele>
        <time>2011-04-22T04:25:04Z</time>
      </trkpt>
      <trkpt lat="32.587761" lon="34.99734">
        <ele>163.0</ele>
        <time>2011-04-22T04:25:09Z</time>
      </trkpt>
      <trkpt lat="32.587761" lon="34.997426">
        <ele>162.0</ele>
        <time>2011-04-22T04:25:14Z</time>
      </trkpt>
      <trkpt lat="32.587729" lon="34.997501">
        <ele>162.0</ele>
        <time>2011-04-22T04:25:19Z</time>
      </trkpt>
      <trkpt lat="32.587729" lon="34.997501">
        <time>2011-04-22T04:25:31Z</time>
      </trkpt>
    </trkseg>
    <trkseg>
      <trkpt lat="32.587729" lon="34.997501">
        <time>2011-04-22T04:25:51Z</time>
      </trkpt>
      <trkpt lat="32.587729" lon="34.997501">
        <time>2011-04-22T04:26:03Z</time>
      </trkpt>
    </trkseg>
    <trkseg>
      <trkpt lat="32.587729" lon="34.997501">
        <time>2011-04-22T04:29:19Z</time>
      </trkpt>
      <trkpt lat="32.587804" lon="34.997689">
        <ele>171.0</ele>
        <time>2011-04-22T04:29:23Z</time>
      </trkpt>
      <trkpt lat="32.587852" lon="34.997871">
        <ele>171.0</ele>
        <time>2011-04-22T04:29:29Z</time>
      </trkpt>
      <trkpt lat="32.587895" lon="34.997967">
        <ele>172.0</ele>
        <time>2011-04-22T04:29:32Z</time>
      </trkpt>
      <trkpt lat="32.58796" lon="34.998059">
        <ele>171.0</ele>
        <time>2011-04-22T04:29:35Z</time>
      </trkpt>
      <trkpt lat="32.588089" lon="34.998209">
        <ele>170.0</ele>
        <time>2011-04-22T04:29:40Z</time>
      </trkpt>
      <trkpt lat="32.58819" lon="34.998348">
        <ele>169.0</ele>
        <time>2011-04-22T04:29:45Z</time>
      </trkpt>
      <trkpt lat="32.588298" lon="34.998472">
        <ele>168.0</ele>
        <time>2011-04-22T04:29:49Z</time>
      </trkpt>
      <trkpt lat="32.588566" lon="34.998622">
        <ele>167.0</ele>
        <time>2011-04-22T04:30:01Z</time>
      </trkpt>
      <trkpt lat="32.588754" lon="34.998686">
        <ele>165.0</ele>
        <time>2011-04-22T04:30:05Z</time>
      </trkpt>
      <trkpt lat="32.588818" lon="34.998724">
        <ele>163.0</ele>
        <time>2011-04-22T04:30:07Z</time>
      </trkpt>
      <trkpt lat="32.588968" lon="34.998815">
        <ele>160.0</ele>
        <time>2011-04-22T04:30:13Z</time>
      </trkpt>
      <trkpt lat="32.589086" lon="34.998933">
        <ele>160.0</ele>
        <time>2011-04-22T04:30:17Z</time>
      </trkpt>
      <trkpt lat="32.589183" lon="34.999062">
        <ele>158.0</ele>
        <time>2011-04-22T04:30:21Z</time>
      </trkpt>
      <trkpt lat="32.589274" lon="34.999212">
        <ele>158.0</ele>
        <time>2011-04-22T04:30:25Z</time>
      </trkpt>
      <trkpt lat="32.589312" lon="34.999368">
        <ele>157.0</ele>
        <time>2011-04-22T04:30:29Z</time>
      </trkpt>
      <trkpt lat="32.589333" lon="34.999459">
        <ele>156.0</ele>
        <time>2011-04-22T04:30:32Z</time>
      </trkpt>
      <trkpt lat="32.589317" lon="34.999539">
        <ele>156.0</ele>
        <time>2011-04-22T04:30:36Z</time>
      </trkpt>
      <trkpt lat="32.589306" lon="34.999652">
        <ele>155.0</ele>
        <time>2011-04-22T04:30:40Z</time>
      </trkpt>
      <trkpt lat="32.589328" lon="34.999813">
        <ele>155.0</ele>
        <time>2011-04-22T04:30:44Z</time>
      </trkpt>
      <trkpt lat="32.589397" lon="34.99999">
        <ele>154.0</ele>
        <time>2011-04-22T04:30:48Z</time>
      </trkpt>
      <trkpt lat="32.58944" lon="35.00021">
        <ele>152.0</ele>
        <time>2011-04-22T04:30:53Z</time>
      </trkpt>
      <trkpt lat="32.589473" lon="35.000376">
        <ele>153.0</ele>
        <time>2011-04-22T04:30:57Z</time>
      </trkpt>
      <trkpt lat="32.589499" lon="35.000467">
        <ele>153.0</ele>
        <time>2011-04-22T04:31:01Z</time>
      </trkpt>
      <trkpt lat="32.589505" lon="35.000558">
        <ele>151.0</ele>
        <time>2011-04-22T04:31:04Z</time>
      </trkpt>
      <trkpt lat="32.589499" lon="35.000741">
        <ele>149.0</ele>
        <time>2011-04-22T04:31:09Z</time>
      </trkpt>
      <trkpt lat="32.589489" lon="35.000966">
        <ele>149.0</ele>
        <time>2011-04-22T04:31:13Z</time>
      </trkpt>
      <trkpt lat="32.589478" lon="35.001073">
        <ele>149.0</ele>
        <time>2011-04-22T04:31:16Z</time>
      </trkpt>
      <trkpt lat="32.589478" lon="35.001175">
        <ele>147.0</ele>
        <time>2011-04-22T04:31:19Z</time>
      </trkpt>
      <trkpt lat="32.589451" lon="35.001379">
        <ele>145.0</ele>
        <time>2011-04-22T04:31:25Z</time>
      </trkpt>
      <trkpt lat="32.589467" lon="35.001567">
        <ele>142.0</ele>
        <time>2011-04-22T04:31:29Z</time>
      </trkpt>
      <trkpt lat="32.589462" lon="35.001653">
        <ele>142.0</ele>
        <time>2011-04-22T04:31:31Z</time>
      </trkpt>
      <trkpt lat="32.589446" lon="35.001819">
        <ele>141.0</ele>
        <time>2011-04-22T04:31:42Z</time>
      </trkpt>
      <trkpt lat="32.589456" lon="35.001894">
        <ele>141.0</ele>
        <time>2011-04-22T04:31:48Z</time>
      </trkpt>
      <trkpt lat="32.589462" lon="35.00205">
        <ele>140.0</ele>
        <time>2011-04-22T04:31:53Z</time>
      </trkpt>
      <trkpt lat="32.58944" lon="35.002264">
        <ele>140.0</ele>
        <time>2011-04-22T04:31:57Z</time>
      </trkpt>
      <trkpt lat="32.589403" lon="35.002474">
        <ele>139.0</ele>
        <time>2011-04-22T04:32:01Z</time>
      </trkpt>
      <trkpt lat="32.589322" lon="35.002661">
        <ele>138.0</ele>
        <time>2011-04-22T04:32:05Z</time>
      </trkpt>
      <trkpt lat="32.589306" lon="35.002828">
        <ele>138.0</ele>
        <time>2011-04-22T04:32:09Z</time>
      </trkpt>
      <trkpt lat="32.589403" lon="35.003037">
        <ele>136.0</ele>
        <time>2011-04-22T04:32:13Z</time>
      </trkpt>
      <trkpt lat="32.589515" lon="35.003241">
        <ele>134.0</ele>
        <time>2011-04-22T04:32:17Z</time>
      </trkpt>
      <trkpt lat="32.589628" lon="35.003445">
        <ele>132.0</ele>
        <time>2011-04-22T04:32:21Z</time>
      </trkpt>
      <trkpt lat="32.589698" lon="35.003616">
        <ele>128.0</ele>
        <time>2011-04-22T04:32:24Z</time>
      </trkpt>
      <trkpt lat="32.589762" lon="35.003783">
        <ele>126.0</ele>
        <time>2011-04-22T04:32:29Z</time>
      </trkpt>
      <trkpt lat="32.589789" lon="35.003863">
        <ele>125.0</ele>
        <time>2011-04-22T04:32:34Z</time>
      </trkpt>
      <trkpt lat="32.589843" lon="35.004029">
        <ele>122.0</ele>
        <time>2011-04-22T04:32:41Z</time>
      </trkpt>
      <trkpt lat="32.589891" lon="35.004196">
        <ele>121.0</ele>
        <time>2011-04-22T04:32:45Z</time>
      </trkpt>
      <trkpt lat="32.589934" lon="35.004362">
        <ele>119.0</ele>
        <time>2011-04-22T04:32:49Z</time>
      </trkpt>
      <trkpt lat="32.589971" lon="35.004523">
        <ele>118.0</ele>
        <time>2011-04-22T04:32:53Z</time>
      </trkpt>
      <trkpt lat="32.589998" lon="35.004684">
        <ele>117.0</ele>
        <time>2011-04-22T04:32:57Z</time>
      </trkpt>
      <trkpt lat="32.590014" lon="35.004866">
        <ele>116.0</ele>
        <time>2011-04-22T04:33:01Z</time>
      </trkpt>
      <trkpt lat="32.590068" lon="35.00507">
        <ele>116.0</ele>
        <time>2011-04-22T04:33:05Z</time>
      </trkpt>
      <trkpt lat="32.590111" lon="35.005338">
        <ele>116.0</ele>
        <time>2011-04-22T04:33:09Z</time>
      </trkpt>
      <trkpt lat="32.590138" lon="35.005488">
        <ele>115.0</ele>
        <time>2011-04-22T04:33:11Z</time>
      </trkpt>
      <trkpt lat="32.590186" lon="35.005864">
        <ele>115.0</ele>
        <time>2011-04-22T04:33:17Z</time>
      </trkpt>
      <trkpt lat="32.590234" lon="35.0061">
        <ele>114.0</ele>
        <time>2011-04-22T04:33:21Z</time>
      </trkpt>
      <trkpt lat="32.59025" lon="35.006309">
        <ele>111.0</ele>
        <time>2011-04-22T04:33:25Z</time>
      </trkpt>
      <trkpt lat="32.590229" lon="35.006513">
        <ele>109.0</ele>
        <time>2011-04-22T04:33:29Z</time>
      </trkpt>
      <trkpt lat="32.59024" lon="35.006706">
        <ele>107.0</ele>
        <time>2011-04-22T04:33:33Z</time>
      </trkpt>
      <trkpt lat="32.590234" lon="35.006808">
        <ele>105.0</ele>
        <time>2011-04-22T04:33:36Z</time>
      </trkpt>
      <trkpt lat="32.590181" lon="35.006969">
        <ele>102.0</ele>
        <time>2011-04-22T04:33:41Z</time>
      </trkpt>
      <trkpt lat="32.590154" lon="35.007076">
        <ele>102.0</ele>
        <time>2011-04-22T04:33:44Z</time>
      </trkpt>
      <trkpt lat="32.590143" lon="35.007173">
        <ele>100.0</ele>
        <time>2011-04-22T04:33:47Z</time>
      </trkpt>
      <trkpt lat="32.590138" lon="35.007344">
        <ele>101.0</ele>
        <time>2011-04-22T04:33:53Z</time>
      </trkpt>
      <trkpt lat="32.590148" lon="35.007511">
        <ele>96.0</ele>
        <time>2011-04-22T04:33:57Z</time>
      </trkpt>
      <trkpt lat="32.590148" lon="35.007586">
        <ele>94.0</ele>
        <time>2011-04-22T04:33:59Z</time>
      </trkpt>
      <trkpt lat="32.590089" lon="35.007736">
        <ele>93.0</ele>
        <time>2011-04-22T04:34:05Z</time>
      </trkpt>
      <trkpt lat="32.590052" lon="35.007817">
        <ele>93.0</ele>
        <time>2011-04-22T04:34:07Z</time>
      </trkpt>
      <trkpt lat="32.589982" lon="35.007886">
        <ele>92.0</ele>
        <time>2011-04-22T04:34:10Z</time>
      </trkpt>
      <trkpt lat="32.589955" lon="35.007956">
        <ele>91.0</ele>
        <time>2011-04-22T04:34:15Z</time>
      </trkpt>
      <trkpt lat="32.589955" lon="35.007956">
        <time>2011-04-22T04:34:27Z</time>
      </trkpt>
    </trkseg>
    <trkseg>
      <trkpt lat="32.589955" lon="35.007956">
        <time>2011-04-22T04:34:40Z</time>
      </trkpt>
      <trkpt lat="32.589955" lon="35.007956">
        <time>2011-04-22T04:34:52Z</time>
      </trkpt>
    </trkseg>
    <trkseg>
      <trkpt lat="32.589955" lon="35.007956">
        <time>2011-04-22T04:39:04Z</time>
      </trkpt>
      <trkpt lat="32.589955" lon="35.007956">
        <time>2011-04-22T04:39:15Z</time>
      </trkpt>
    </trkseg>
    <trkseg>
      <trkpt lat="32.589955" lon="35.007956">
        <time>2011-04-22T04:39:36Z</time>
      </trkpt>
      <trkpt lat="32.589778" lon="35.008063">
        <ele>88.0</ele>
        <time>2011-04-22T04:39:40Z</time>
      </trkpt>
      <trkpt lat="32.589703" lon="35.008036">
        <ele>91.0</ele>
        <time>2011-04-22T04:39:44Z</time>
      </trkpt>
      <trkpt lat="32.589633" lon="35.008053">
        <ele>91.0</ele>
        <time>2011-04-22T04:39:48Z</time>
      </trkpt>
      <trkpt lat="32.589558" lon="35.008074">
        <ele>91.0</ele>
        <time>2011-04-22T04:39:52Z</time>
      </trkpt>
      <trkpt lat="32.589489" lon="35.008085">
        <ele>93.0</ele>
        <time>2011-04-22T04:39:56Z</time>
      </trkpt>
      <trkpt lat="32.589408" lon="35.008122">
        <ele>92.0</ele>
        <time>2011-04-22T04:40:00Z</time>
      </trkpt>
      <trkpt lat="32.589338" lon="35.008144">
        <ele>92.0</ele>
        <time>2011-04-22T04:40:03Z</time>
      </trkpt>
      <trkpt lat="32.589269" lon="35.00816">
        <ele>93.0</ele>
        <time>2011-04-22T04:40:07Z</time>
      </trkpt>
      <trkpt lat="32.589204" lon="35.008155">
        <ele>94.0</ele>
        <time>2011-04-22T04:40:11Z</time>
      </trkpt>
      <trkpt lat="32.589129" lon="35.008144">
        <ele>94.0</ele>
        <time>2011-04-22T04:40:15Z</time>
      </trkpt>
      <trkpt lat="32.589049" lon="35.008106">
        <ele>94.0</ele>
        <time>2011-04-22T04:40:19Z</time>
      </trkpt>
      <trkpt lat="32.588963" lon="35.008085">
        <ele>93.0</ele>
        <time>2011-04-22T04:40:23Z</time>
      </trkpt>
      <trkpt lat="32.588893" lon="35.008069">
        <ele>94.0</ele>
        <time>2011-04-22T04:40:27Z</time>
      </trkpt>
      <trkpt lat="32.588829" lon="35.008042">
        <ele>97.0</ele>
        <time>2011-04-22T04:40:31Z</time>
      </trkpt>
      <trkpt lat="32.588764" lon="35.008026">
        <ele>99.0</ele>
        <time>2011-04-22T04:40:36Z</time>
      </trkpt>
      <trkpt lat="32.588689" lon="35.00801">
        <ele>102.0</ele>
        <time>2011-04-22T04:40:42Z</time>
      </trkpt>
      <trkpt lat="32.588625" lon="35.007983">
        <ele>104.0</ele>
        <time>2011-04-22T04:40:46Z</time>
      </trkpt>
      <trkpt lat="32.588485" lon="35.007951">
        <ele>107.0</ele>
        <time>2011-04-22T04:40:56Z</time>
      </trkpt>
      <trkpt lat="32.588335" lon="35.007924">
        <ele>103.0</ele>
        <time>2011-04-22T04:41:03Z</time>
      </trkpt>
      <trkpt lat="32.588271" lon="35.007908">
        <ele>103.0</ele>
        <time>2011-04-22T04:41:06Z</time>
      </trkpt>
      <trkpt lat="32.588126" lon="35.007859">
        <ele>103.0</ele>
        <time>2011-04-22T04:41:14Z</time>
      </trkpt>
      <trkpt lat="32.588056" lon="35.007817">
        <ele>105.0</ele>
        <time>2011-04-22T04:41:18Z</time>
      </trkpt>
      <trkpt lat="32.588003" lon="35.007768">
        <ele>105.0</ele>
        <time>2011-04-22T04:41:23Z</time>
      </trkpt>
      <trkpt lat="32.587869" lon="35.00772">
        <ele>107.0</ele>
        <time>2011-04-22T04:41:31Z</time>
      </trkpt>
      <trkpt lat="32.587799" lon="35.007704">
        <ele>105.0</ele>
        <time>2011-04-22T04:41:35Z</time>
      </trkpt>
      <trkpt lat="32.587724" lon="35.007682">
        <ele>106.0</ele>
        <time>2011-04-22T04:41:40Z</time>
      </trkpt>
      <trkpt lat="32.587665" lon="35.007725">
        <ele>106.0</ele>
        <time>2011-04-22T04:41:44Z</time>
      </trkpt>
      <trkpt lat="32.587665" lon="35.007725">
        <time>2011-04-22T04:41:55Z</time>
      </trkpt>
    </trkseg>
    <trkseg>
      <trkpt lat="32.587665" lon="35.007725">
        <time>2011-04-22T04:41:56Z</time>
      </trkpt>
      <trkpt lat="32.587665" lon="35.007725">
        <time>2011-04-22T04:42:07Z</time>
      </trkpt>
    </trkseg>
    <trkseg>
      <trkpt lat="32.587665" lon="35.007725">
        <time>2011-04-22T04:43:02Z</time>
      </trkpt>
      <trkpt lat="32.587729" lon="35.008015">
        <ele>106.0</ele>
        <time>2011-04-22T04:43:07Z</time>
      </trkpt>
      <trkpt lat="32.587777" lon="35.008069">
        <ele>108.0</ele>
        <time>2011-04-22T04:43:11Z</time>
      </trkpt>
      <trkpt lat="32.587826" lon="35.008128">
        <ele>110.0</ele>
        <time>2011-04-22T04:43:15Z</time>
      </trkpt>
      <trkpt lat="32.587874" lon="35.008176">
        <ele>111.0</ele>
        <time>2011-04-22T04:43:19Z</time>
      </trkpt>
      <trkpt lat="32.587933" lon="35.00824">
        <ele>111.0</ele>
        <time>2011-04-22T04:43:23Z</time>
      </trkpt>
      <trkpt lat="32.588051" lon="35.008353">
        <ele>110.0</ele>
        <time>2011-04-22T04:43:29Z</time>
      </trkpt>
      <trkpt lat="32.588089" lon="35.008417">
        <ele>110.0</ele>
        <time>2011-04-22T04:43:32Z</time>
      </trkpt>
      <trkpt lat="32.588142" lon="35.008482">
        <ele>113.0</ele>
        <time>2011-04-22T04:43:36Z</time>
      </trkpt>
      <trkpt lat="32.588185" lon="35.008562">
        <ele>112.0</ele>
        <time>2011-04-22T04:43:39Z</time>
      </trkpt>
      <trkpt lat="32.588223" lon="35.008627">
        <ele>113.0</ele>
        <time>2011-04-22T04:43:43Z</time>
      </trkpt>
      <trkpt lat="32.58826" lon="35.008707">
        <ele>115.0</ele>
        <time>2011-04-22T04:43:48Z</time>
      </trkpt>
      <trkpt lat="32.588298" lon="35.008771">
        <ele>115.0</ele>
        <time>2011-04-22T04:43:51Z</time>
      </trkpt>
      <trkpt lat="32.588384" lon="35.008911">
        <ele>115.0</ele>
        <time>2011-04-22T04:43:57Z</time>
      </trkpt>
      <trkpt lat="32.588416" lon="35.008986">
        <ele>115.0</ele>
        <time>2011-04-22T04:44:00Z</time>
      </trkpt>
      <trkpt lat="32.588464" lon="35.009158">
        <ele>114.0</ele>
        <time>2011-04-22T04:44:06Z</time>
      </trkpt>
      <trkpt lat="32.588485" lon="35.009243">
        <ele>114.0</ele>
        <time>2011-04-22T04:44:10Z</time>
      </trkpt>
      <trkpt lat="32.588485" lon="35.00941">
        <ele>116.0</ele>
        <time>2011-04-22T04:44:17Z</time>
      </trkpt>
      <trkpt lat="32.588491" lon="35.009506">
        <ele>116.0</ele>
        <time>2011-04-22T04:44:20Z</time>
      </trkpt>
      <trkpt lat="32.588485" lon="35.009587">
        <ele>115.0</ele>
        <time>2011-04-22T04:44:23Z</time>
      </trkpt>
      <trkpt lat="32.58848" lon="35.009678">
        <ele>116.0</ele>
        <time>2011-04-22T04:44:27Z</time>
      </trkpt>
      <trkpt lat="32.588485" lon="35.009769">
        <ele>118.0</ele>
        <time>2011-04-22T04:44:31Z</time>
      </trkpt>
      <trkpt lat="32.588469" lon="35.009866">
        <ele>120.0</ele>
        <time>2011-04-22T04:44:36Z</time>
      </trkpt>
      <trkpt lat="32.588469" lon="35.009941">
        <ele>118.0</ele>
        <time>2011-04-22T04:44:39Z</time>
      </trkpt>
      <trkpt lat="32.588469" lon="35.010032">
        <ele>118.0</ele>
        <time>2011-04-22T04:44:43Z</time>
      </trkpt>
      <trkpt lat="32.588469" lon="35.010123">
        <ele>118.0</ele>
        <time>2011-04-22T04:44:47Z</time>
      </trkpt>
      <trkpt lat="32.588475" lon="35.010209">
        <ele>118.0</ele>
        <time>2011-04-22T04:44:51Z</time>
      </trkpt>
      <trkpt lat="32.588491" lon="35.010295">
        <ele>119.0</ele>
        <time>2011-04-22T04:44:55Z</time>
      </trkpt>
      <trkpt lat="32.588502" lon="35.01037">
        <ele>118.0</ele>
        <time>2011-04-22T04:44:59Z</time>
      </trkpt>
      <trkpt lat="32.588518" lon="35.01045">
        <ele>119.0</ele>
        <time>2011-04-22T04:45:03Z</time>
      </trkpt>
      <trkpt lat="32.588544" lon="35.010542">
        <ele>118.0</ele>
        <time>2011-04-22T04:45:07Z</time>
      </trkpt>
      <trkpt lat="32.588555" lon="35.010622">
        <ele>119.0</ele>
        <time>2011-04-22T04:45:11Z</time>
      </trkpt>
      <trkpt lat="32.588593" lon="35.010794">
        <ele>120.0</ele>
        <time>2011-04-22T04:45:19Z</time>
      </trkpt>
      <trkpt lat="32.58862" lon="35.010885">
        <ele>121.0</ele>
        <time>2011-04-22T04:45:23Z</time>
      </trkpt>
      <trkpt lat="32.588679" lon="35.011019">
        <ele>124.0</ele>
        <time>2011-04-22T04:45:29Z</time>
      </trkpt>
      <trkpt lat="32.588705" lon="35.011089">
        <ele>125.0</ele>
        <time>2011-04-22T04:45:32Z</time>
      </trkpt>
      <trkpt lat="32.588716" lon="35.011175">
        <ele>125.0</ele>
        <time>2011-04-22T04:45:36Z</time>
      </trkpt>
      <trkpt lat="32.588722" lon="35.011261">
        <ele>127.0</ele>
        <time>2011-04-22T04:45:40Z</time>
      </trkpt>
      <trkpt lat="32.588722" lon="35.011357">
        <ele>129.0</ele>
        <time>2011-04-22T04:45:44Z</time>
      </trkpt>
      <trkpt lat="32.588732" lon="35.011448">
        <ele>127.0</ele>
        <time>2011-04-22T04:45:47Z</time>
      </trkpt>
      <trkpt lat="32.588738" lon="35.011529">
        <ele>126.0</ele>
        <time>2011-04-22T04:45:50Z</time>
      </trkpt>
      <trkpt lat="32.58877" lon="35.011722">
        <ele>126.0</ele>
        <time>2011-04-22T04:45:57Z</time>
      </trkpt>
      <trkpt lat="32.588829" lon="35.011872">
        <ele>125.0</ele>
        <time>2011-04-22T04:46:01Z</time>
      </trkpt>
      <trkpt lat="32.588866" lon="35.011936">
        <ele>125.0</ele>
        <time>2011-04-22T04:46:04Z</time>
      </trkpt>
      <trkpt lat="32.588899" lon="35.012001">
        <ele>125.0</ele>
        <time>2011-04-22T04:46:07Z</time>
      </trkpt>
      <trkpt lat="32.588958" lon="35.012065">
        <ele>126.0</ele>
        <time>2011-04-22T04:46:10Z</time>
      </trkpt>
      <trkpt lat="32.589033" lon="35.012113">
        <ele>127.0</ele>
        <time>2011-04-22T04:46:14Z</time>
      </trkpt>
      <trkpt lat="32.589108" lon="35.01214">
        <ele>129.0</ele>
        <time>2011-04-22T04:46:18Z</time>
      </trkpt>
      <trkpt lat="32.589242" lon="35.012242">
        <ele>131.0</ele>
        <time>2011-04-22T04:46:25Z</time>
      </trkpt>
      <trkpt lat="32.589306" lon="35.012307">
        <ele>132.0</ele>
        <time>2011-04-22T04:46:29Z</time>
      </trkpt>
      <trkpt lat="32.589371" lon="35.012333">
        <ele>133.0</ele>
        <time>2011-04-22T04:46:33Z</time>
      </trkpt>
      <trkpt lat="32.58943" lon="35.012366">
        <ele>134.0</ele>
        <time>2011-04-22T04:46:36Z</time>
      </trkpt>
      <trkpt lat="32.589489" lon="35.012398">
        <ele>136.0</ele>
        <time>2011-04-22T04:46:39Z</time>
      </trkpt>
      <trkpt lat="32.589564" lon="35.012446">
        <ele>138.0</ele>
        <time>2011-04-22T04:46:43Z</time>
      </trkpt>
      <trkpt lat="32.589628" lon="35.012484">
        <ele>138.0</ele>
        <time>2011-04-22T04:46:47Z</time>
      </trkpt>
      <trkpt lat="32.589703" lon="35.012505">
        <ele>139.0</ele>
        <time>2011-04-22T04:46:51Z</time>
      </trkpt>
      <trkpt lat="32.589778" lon="35.01251">
        <ele>138.0</ele>
        <time>2011-04-22T04:46:56Z</time>
      </trkpt>
      <trkpt lat="32.589843" lon="35.012564">
        <ele>140.0</ele>
        <time>2011-04-22T04:47:00Z</time>
      </trkpt>
      <trkpt lat="32.589945" lon="35.012671">
        <ele>140.0</ele>
        <time>2011-04-22T04:47:07Z</time>
      </trkpt>
      <trkpt lat="32.590014" lon="35.01272">
        <ele>141.0</ele>
        <time>2011-04-22T04:47:11Z</time>
      </trkpt>
      <trkpt lat="32.590132" lon="35.012811">
        <ele>142.0</ele>
        <time>2011-04-22T04:47:19Z</time>
      </trkpt>
      <trkpt lat="32.590197" lon="35.012838">
        <ele>140.0</ele>
        <time>2011-04-22T04:47:23Z</time>
      </trkpt>
      <trkpt lat="32.590261" lon="35.012881">
        <ele>139.0</ele>
        <time>2011-04-22T04:47:27Z</time>
      </trkpt>
      <trkpt lat="32.590325" lon="35.012923">
        <ele>138.0</ele>
        <time>2011-04-22T04:47:31Z</time>
      </trkpt>
      <trkpt lat="32.590395" lon="35.012966">
        <ele>138.0</ele>
        <time>2011-04-22T04:47:35Z</time>
      </trkpt>
      <trkpt lat="32.590449" lon="35.013015">
        <ele>139.0</ele>
        <time>2011-04-22T04:47:39Z</time>
      </trkpt>
      <trkpt lat="32.590503" lon="35.013068">
        <ele>140.0</ele>
        <time>2011-04-22T04:47:43Z</time>
      </trkpt>
      <trkpt lat="32.590567" lon="35.013111">
        <ele>142.0</ele>
        <time>2011-04-22T04:47:48Z</time>
      </trkpt>
      <trkpt lat="32.590642" lon="35.01316">
        <ele>142.0</ele>
        <time>2011-04-22T04:47:53Z</time>
      </trkpt>
      <trkpt lat="32.59069" lon="35.013208">
        <ele>141.0</ele>
        <time>2011-04-22T04:47:56Z</time>
      </trkpt>
      <trkpt lat="32.590749" lon="35.013245">
        <ele>142.0</ele>
        <time>2011-04-22T04:47:59Z</time>
      </trkpt>
      <trkpt lat="32.590803" lon="35.013304">
        <ele>143.0</ele>
        <time>2011-04-22T04:48:03Z</time>
      </trkpt>
      <trkpt lat="32.590862" lon="35.013331">
        <ele>143.0</ele>
        <time>2011-04-22T04:48:06Z</time>
      </trkpt>
      <trkpt lat="32.590932" lon="35.013369">
        <ele>143.0</ele>
        <time>2011-04-22T04:48:11Z</time>
      </trkpt>
      <trkpt lat="32.590969" lon="35.013444">
        <ele>142.0</ele>
        <time>2011-04-22T04:48:14Z</time>
      </trkpt>
      <trkpt lat="32.590964" lon="35.013524">
        <ele>141.0</ele>
        <time>2011-04-22T04:48:18Z</time>
      </trkpt>
      <trkpt lat="32.590926" lon="35.013599">
        <ele>140.0</ele>
        <time>2011-04-22T04:48:23Z</time>
      </trkpt>
      <trkpt lat="32.590889" lon="35.013664">
        <ele>140.0</ele>
        <time>2011-04-22T04:48:27Z</time>
      </trkpt>
      <trkpt lat="32.590771" lon="35.013739">
        <ele>142.0</ele>
        <time>2011-04-22T04:48:36Z</time>
      </trkpt>
      <trkpt lat="32.590642" lon="35.013798">
        <ele>141.0</ele>
        <time>2011-04-22T04:48:43Z</time>
      </trkpt>
      <trkpt lat="32.590578" lon="35.013852">
        <ele>140.0</ele>
        <time>2011-04-22T04:48:47Z</time>
      </trkpt>
      <trkpt lat="32.590513" lon="35.013862">
        <ele>141.0</ele>
        <time>2011-04-22T04:48:51Z</time>
      </trkpt>
      <trkpt lat="32.590433" lon="35.013852">
        <ele>142.0</ele>
        <time>2011-04-22T04:48:55Z</time>
      </trkpt>
      <trkpt lat="32.590368" lon="35.013852">
        <ele>143.0</ele>
        <time>2011-04-22T04:48:59Z</time>
      </trkpt>
      <trkpt lat="32.590293" lon="35.013841">
        <ele>144.0</ele>
        <time>2011-04-22T04:49:04Z</time>
      </trkpt>
      <trkpt lat="32.590218" lon="35.013825">
        <ele>144.0</ele>
        <time>2011-04-22T04:49:08Z</time>
      </trkpt>
      <trkpt lat="32.590148" lon="35.013814">
        <ele>143.0</ele>
        <time>2011-04-22T04:49:12Z</time>
      </trkpt>
      <trkpt lat="32.590084" lon="35.013803">
        <ele>144.0</ele>
        <time>2011-04-22T04:49:16Z</time>
      </trkpt>
      <trkpt lat="32.59002" lon="35.013809">
        <ele>145.0</ele>
        <time>2011-04-22T04:49:19Z</time>
      </trkpt>
      <trkpt lat="32.589945" lon="35.013798">
        <ele>145.0</ele>
        <time>2011-04-22T04:49:23Z</time>
      </trkpt>
      <trkpt lat="32.589864" lon="35.013782">
        <ele>145.0</ele>
        <time>2011-04-22T04:49:27Z</time>
      </trkpt>
      <trkpt lat="32.589789" lon="35.013766">
        <ele>146.0</ele>
        <time>2011-04-22T04:49:31Z</time>
      </trkpt>
      <trkpt lat="32.589655" lon="35.013755">
        <ele>148.0</ele>
        <time>2011-04-22T04:49:37Z</time>
      </trkpt>
      <trkpt lat="32.589574" lon="35.013755">
        <ele>148.0</ele>
        <time>2011-04-22T04:49:41Z</time>
      </trkpt>
      <trkpt lat="32.589499" lon="35.013744">
        <ele>147.0</ele>
        <time>2011-04-22T04:49:44Z</time>
      </trkpt>
      <trkpt lat="32.589424" lon="35.013728">
        <ele>146.0</ele>
        <time>2011-04-22T04:49:47Z</time>
      </trkpt>
      <trkpt lat="32.589279" lon="35.013712">
        <ele>146.0</ele>
        <time>2011-04-22T04:49:52Z</time>
      </trkpt>
      <trkpt lat="32.589124" lon="35.013707">
        <ele>147.0</ele>
        <time>2011-04-22T04:49:57Z</time>
      </trkpt>
      <trkpt lat="32.589038" lon="35.013701">
        <ele>147.0</ele>
        <time>2011-04-22T04:50:00Z</time>
      </trkpt>
      <trkpt lat="32.588904" lon="35.013685">
        <ele>147.0</ele>
        <time>2011-04-22T04:50:04Z</time>
      </trkpt>
      <trkpt lat="32.588764" lon="35.013642">
        <ele>148.0</ele>
        <time>2011-04-22T04:50:08Z</time>
      </trkpt>
      <trkpt lat="32.58863" lon="35.013626">
        <ele>148.0</ele>
        <time>2011-04-22T04:50:12Z</time>
      </trkpt>
      <trkpt lat="32.588469" lon="35.013599">
        <ele>147.0</ele>
        <time>2011-04-22T04:50:17Z</time>
      </trkpt>
      <trkpt lat="32.588228" lon="35.013556">
        <ele>148.0</ele>
        <time>2011-04-22T04:50:24Z</time>
      </trkpt>
      <trkpt lat="32.588148" lon="35.013546">
        <ele>148.0</ele>
        <time>2011-04-22T04:50:27Z</time>
      </trkpt>
      <trkpt lat="32.588062" lon="35.013546">
        <ele>148.0</ele>
        <time>2011-04-22T04:50:30Z</time>
      </trkpt>
      <trkpt lat="32.587987" lon="35.013546">
        <ele>149.0</ele>
        <time>2011-04-22T04:50:33Z</time>
      </trkpt>
      <trkpt lat="32.587917" lon="35.013546">
        <ele>149.0</ele>
        <time>2011-04-22T04:50:37Z</time>
      </trkpt>
      <trkpt lat="32.587767" lon="35.013578">
        <ele>148.0</ele>
        <time>2011-04-22T04:50:45Z</time>
      </trkpt>
      <trkpt lat="32.587692" lon="35.013589">
        <ele>149.0</ele>
        <time>2011-04-22T04:50:49Z</time>
      </trkpt>
      <trkpt lat="32.587627" lon="35.013621">
        <ele>151.0</ele>
        <time>2011-04-22T04:50:54Z</time>
      </trkpt>
      <trkpt lat="32.587568" lon="35.013648">
        <ele>153.0</ele>
        <time>2011-04-22T04:50:58Z</time>
      </trkpt>
      <trkpt lat="32.587498" lon="35.013658">
        <ele>154.0</ele>
        <time>2011-04-22T04:51:04Z</time>
      </trkpt>
      <trkpt lat="32.587434" lon="35.013664">
        <ele>155.0</ele>
        <time>2011-04-22T04:51:08Z</time>
      </trkpt>
      <trkpt lat="32.587364" lon="35.013691">
        <ele>156.0</ele>
        <time>2011-04-22T04:51:14Z</time>
      </trkpt>
      <trkpt lat="32.587289" lon="35.013701">
        <ele>156.0</ele>
        <time>2011-04-22T04:51:21Z</time>
      </trkpt>
      <trkpt lat="32.587219" lon="35.013712">
        <ele>157.0</ele>
        <time>2011-04-22T04:51:27Z</time>
      </trkpt>
      <trkpt lat="32.58715" lon="35.013712">
        <ele>160.0</ele>
        <time>2011-04-22T04:51:32Z</time>
      </trkpt>
      <trkpt lat="32.58708" lon="35.013701">
        <ele>162.0</ele>
        <time>2011-04-22T04:51:39Z</time>
      </trkpt>
      <trkpt lat="32.587016" lon="35.013691">
        <ele>161.0</ele>
        <time>2011-04-22T04:51:43Z</time>
      </trkpt>
      <trkpt lat="32.586941" lon="35.01368">
        <ele>163.0</ele>
        <time>2011-04-22T04:51:48Z</time>
      </trkpt>
      <trkpt lat="32.586871" lon="35.013637">
        <ele>165.0</ele>
        <time>2011-04-22T04:51:54Z</time>
      </trkpt>
      <trkpt lat="32.586801" lon="35.013626">
        <ele>167.0</ele>
        <time>2011-04-22T04:52:00Z</time>
      </trkpt>
      <trkpt lat="32.586742" lon="35.013599">
        <ele>168.0</ele>
        <time>2011-04-22T04:52:05Z</time>
      </trkpt>
      <trkpt lat="32.586678" lon="35.013562">
        <ele>171.0</ele>
        <time>2011-04-22T04:52:13Z</time>
      </trkpt>
      <trkpt lat="32.586608" lon="35.01353">
        <ele>172.0</ele>
        <time>2011-04-22T04:52:19Z</time>
      </trkpt>
      <trkpt lat="32.586538" lon="35.013492">
        <ele>173.0</ele>
        <time>2011-04-22T04:52:25Z</time>
      </trkpt>
      <trkpt lat="32.586479" lon="35.013465">
        <ele>173.0</ele>
        <time>2011-04-22T04:52:31Z</time>
      </trkpt>
      <trkpt lat="32.58642" lon="35.013428">
        <ele>174.0</ele>
        <time>2011-04-22T04:52:36Z</time>
      </trkpt>
      <trkpt lat="32.586281" lon="35.013385">
        <ele>176.0</ele>
        <time>2011-04-22T04:52:46Z</time>
      </trkpt>
      <trkpt lat="32.586211" lon="35.01339">
        <ele>178.0</ele>
        <time>2011-04-22T04:52:51Z</time>
      </trkpt>
      <trkpt lat="32.586147" lon="35.013401">
        <ele>177.0</ele>
        <time>2011-04-22T04:52:56Z</time>
      </trkpt>
      <trkpt lat="32.586082" lon="35.01339">
        <ele>178.0</ele>
        <time>2011-04-22T04:53:03Z</time>
      </trkpt>
      <trkpt lat="32.586007" lon="35.013374">
        <ele>180.0</ele>
        <time>2011-04-22T04:53:09Z</time>
      </trkpt>
      <trkpt lat="32.585884" lon="35.013331">
        <ele>181.0</ele>
        <time>2011-04-22T04:53:19Z</time>
      </trkpt>
      <trkpt lat="32.585814" lon="35.013294">
        <ele>181.0</ele>
        <time>2011-04-22T04:53:25Z</time>
      </trkpt>
      <trkpt lat="32.585744" lon="35.013278">
        <ele>184.0</ele>
        <time>2011-04-22T04:53:30Z</time>
      </trkpt>
      <trkpt lat="32.585744" lon="35.013278">
        <time>2011-04-22T04:53:42Z</time>
      </trkpt>
    </trkseg>
    <trkseg>
      <trkpt lat="32.585744" lon="35.013278">
        <time>2011-04-22T04:53:43Z</time>
      </trkpt>
      <trkpt lat="32.585535" lon="35.013251">
        <ele>179.0</ele>
        <time>2011-04-22T04:53:49Z</time>
      </trkpt>
      <trkpt lat="32.585535" lon="35.013251">
        <time>2011-04-22T04:54:01Z</time>
      </trkpt>
    </trkseg>
    <trkseg>
      <trkpt lat="32.585535" lon="35.013251">
        <time>2011-04-22T04:54:01Z</time>
      </trkpt>
      <trkpt lat="32.58532" lon="35.01324">
        <ele>182.0</ele>
        <time>2011-04-22T04:54:06Z</time>
      </trkpt>
      <trkpt lat="32.585251" lon="35.013219">
        <ele>184.0</ele>
        <time>2011-04-22T04:54:12Z</time>
      </trkpt>
      <trkpt lat="32.585251" lon="35.013219">
        <time>2011-04-22T04:54:24Z</time>
      </trkpt>
    </trkseg>
    <trkseg>
      <trkpt lat="32.585251" lon="35.013219">
        <time>2011-04-22T04:54:26Z</time>
      </trkpt>
      <trkpt lat="32.585036" lon="35.013251">
        <ele>186.0</ele>
        <time>2011-04-22T04:54:31Z</time>
      </trkpt>
      <trkpt lat="32.584961" lon="35.013261">
        <ele>187.0</ele>
        <time>2011-04-22T04:54:35Z</time>
      </trkpt>
      <trkpt lat="32.584897" lon="35.013272">
        <ele>188.0</ele>
        <time>2011-04-22T04:54:40Z</time>
      </trkpt>
      <trkpt lat="32.584822" lon="35.013267">
        <ele>188.0</ele>
        <time>2011-04-22T04:54:45Z</time>
      </trkpt>
      <trkpt lat="32.584752" lon="35.013283">
        <ele>189.0</ele>
        <time>2011-04-22T04:54:50Z</time>
      </trkpt>
      <trkpt lat="32.584687" lon="35.013288">
        <ele>188.0</ele>
        <time>2011-04-22T04:54:56Z</time>
      </trkpt>
      <trkpt lat="32.584618" lon="35.013299">
        <ele>188.0</ele>
        <time>2011-04-22T04:55:01Z</time>
      </trkpt>
      <trkpt lat="32.584618" lon="35.013299">
        <time>2011-04-22T04:55:13Z</time>
      </trkpt>
    </trkseg>
    <trkseg>
      <trkpt lat="32.584618" lon="35.013299">
        <time>2011-04-22T04:57:29Z</time>
      </trkpt>
      <trkpt lat="32.584618" lon="35.013299">
        <time>2011-04-22T04:57:41Z</time>
      </trkpt>
    </trkseg>
    <trkseg>
      <trkpt lat="32.584618" lon="35.013299">
        <time>2011-04-22T04:58:34Z</time>
      </trkpt>
      <trkpt lat="32.584537" lon="35.013106">
        <ele>190.0</ele>
        <time>2011-04-22T04:58:37Z</time>
      </trkpt>
      <trkpt lat="32.584607" lon="35.012923">
        <ele>189.0</ele>
        <time>2011-04-22T04:58:41Z</time>
      </trkpt>
      <trkpt lat="32.584666" lon="35.012698">
        <ele>187.0</ele>
        <time>2011-04-22T04:58:45Z</time>
      </trkpt>
      <trkpt lat="32.584795" lon="35.012521">
        <ele>188.0</ele>
        <time>2011-04-22T04:58:49Z</time>
      </trkpt>
      <trkpt lat="32.584945" lon="35.012435">
        <ele>189.0</ele>
        <time>2011-04-22T04:58:53Z</time>
      </trkpt>
      <trkpt lat="32.58509" lon="35.012328">
        <ele>192.0</ele>
        <time>2011-04-22T04:58:57Z</time>
      </trkpt>
      <trkpt lat="32.585202" lon="35.012162">
        <ele>190.0</ele>
        <time>2011-04-22T04:59:01Z</time>
      </trkpt>
      <trkpt lat="32.585261" lon="35.012001">
        <ele>187.0</ele>
        <time>2011-04-22T04:59:05Z</time>
      </trkpt>
      <trkpt lat="32.58532" lon="35.011851">
        <ele>186.0</ele>
        <time>2011-04-22T04:59:09Z</time>
      </trkpt>
      <trkpt lat="32.585385" lon="35.011722">
        <ele>187.0</ele>
        <time>2011-04-22T04:59:13Z</time>
      </trkpt>
      <trkpt lat="32.585417" lon="35.011625">
        <ele>186.0</ele>
        <time>2011-04-22T04:59:16Z</time>
      </trkpt>
      <trkpt lat="32.585438" lon="35.011545">
        <ele>187.0</ele>
        <time>2011-04-22T04:59:19Z</time>
      </trkpt>
      <trkpt lat="32.585524" lon="35.011427">
        <ele>186.0</ele>
        <time>2011-04-22T04:59:25Z</time>
      </trkpt>
      <trkpt lat="32.585573" lon="35.011352">
        <ele>187.0</ele>
        <time>2011-04-22T04:59:28Z</time>
      </trkpt>
      <trkpt lat="32.585616" lon="35.011255">
        <ele>187.0</ele>
        <time>2011-04-22T04:59:32Z</time>
      </trkpt>
      <trkpt lat="32.585594" lon="35.011094">
        <ele>191.0</ele>
        <time>2011-04-22T04:59:37Z</time>
      </trkpt>
      <trkpt lat="32.585594" lon="35.011019">
        <ele>192.0</ele>
        <time>2011-04-22T04:59:40Z</time>
      </trkpt>
      <trkpt lat="32.585573" lon="35.010928">
        <ele>194.0</ele>
        <time>2011-04-22T04:59:44Z</time>
      </trkpt>
      <trkpt lat="32.585573" lon="35.010837">
        <ele>193.0</ele>
        <time>2011-04-22T04:59:47Z</time>
      </trkpt>
      <trkpt lat="32.585599" lon="35.010676">
        <ele>194.0</ele>
        <time>2011-04-22T04:59:53Z</time>
      </trkpt>
      <trkpt lat="32.585599" lon="35.010601">
        <ele>195.0</ele>
        <time>2011-04-22T04:59:56Z</time>
      </trkpt>
      <trkpt lat="32.585583" lon="35.010515">
        <ele>196.0</ele>
        <time>2011-04-22T05:00:00Z</time>
      </trkpt>
      <trkpt lat="32.585546" lon="35.010445">
        <ele>197.0</ele>
        <time>2011-04-22T05:00:03Z</time>
      </trkpt>
      <trkpt lat="32.585557" lon="35.010359">
        <ele>201.0</ele>
        <time>2011-04-22T05:00:07Z</time>
      </trkpt>
      <trkpt lat="32.58553" lon="35.010273">
        <ele>203.0</ele>
        <time>2011-04-22T05:00:11Z</time>
      </trkpt>
      <trkpt lat="32.585471" lon="35.010118">
        <ele>206.0</ele>
        <time>2011-04-22T05:00:19Z</time>
      </trkpt>
      <trkpt lat="32.58546" lon="35.010043">
        <ele>205.0</ele>
        <time>2011-04-22T05:00:22Z</time>
      </trkpt>
      <trkpt lat="32.58546" lon="35.009876">
        <ele>204.0</ele>
        <time>2011-04-22T05:00:29Z</time>
      </trkpt>
      <trkpt lat="32.585455" lon="35.009785">
        <ele>206.0</ele>
        <time>2011-04-22T05:00:33Z</time>
      </trkpt>
      <trkpt lat="32.58546" lon="35.00971">
        <ele>207.0</ele>
        <time>2011-04-22T05:00:36Z</time>
      </trkpt>
      <trkpt lat="32.585455" lon="35.009624">
        <ele>206.0</ele>
        <time>2011-04-22T05:00:39Z</time>
      </trkpt>
      <trkpt lat="32.585438" lon="35.009458">
        <ele>207.0</ele>
        <time>2011-04-22T05:00:45Z</time>
      </trkpt>
      <trkpt lat="32.585438" lon="35.009378">
        <ele>207.0</ele>
        <time>2011-04-22T05:00:50Z</time>
      </trkpt>
      <trkpt lat="32.585433" lon="35.009302">
        <ele>206.0</ele>
        <time>2011-04-22T05:00:55Z</time>
      </trkpt>
      <trkpt lat="32.585455" lon="35.009227">
        <ele>206.0</ele>
        <time>2011-04-22T05:01:00Z</time>
      </trkpt>
      <trkpt lat="32.585497" lon="35.009152">
        <ele>203.0</ele>
        <time>2011-04-22T05:01:07Z</time>
      </trkpt>
      <trkpt lat="32.585503" lon="35.009072">
        <ele>203.0</ele>
        <time>2011-04-22T05:01:13Z</time>
      </trkpt>
      <trkpt lat="32.585508" lon="35.008991">
        <ele>202.0</ele>
        <time>2011-04-22T05:01:17Z</time>
      </trkpt>
      <trkpt lat="32.585557" lon="35.00883">
        <ele>200.0</ele>
        <time>2011-04-22T05:01:21Z</time>
      </trkpt>
      <trkpt lat="32.585573" lon="35.008734">
        <ele>200.0</ele>
        <time>2011-04-22T05:01:23Z</time>
      </trkpt>
      <trkpt lat="32.585583" lon="35.00853">
        <ele>198.0</ele>
        <time>2011-04-22T05:01:28Z</time>
      </trkpt>
      <trkpt lat="32.585589" lon="35.008428">
        <ele>198.0</ele>
        <time>2011-04-22T05:01:31Z</time>
      </trkpt>
      <trkpt lat="32.585546" lon="35.008235">
        <ele>195.0</ele>
        <time>2011-04-22T05:01:37Z</time>
      </trkpt>
      <trkpt lat="32.585578" lon="35.008165">
        <ele>194.0</ele>
        <time>2011-04-22T05:01:40Z</time>
      </trkpt>
      <trkpt lat="32.585605" lon="35.007988">
        <ele>194.0</ele>
        <time>2011-04-22T05:01:47Z</time>
      </trkpt>
      <trkpt lat="32.585594" lon="35.007913">
        <ele>190.0</ele>
        <time>2011-04-22T05:01:52Z</time>
      </trkpt>
      <trkpt lat="32.585669" lon="35.00787">
        <ele>189.0</ele>
        <time>2011-04-22T05:01:54Z</time>
      </trkpt>
      <trkpt lat="32.585728" lon="35.007838">
        <ele>188.0</ele>
        <time>2011-04-22T05:02:01Z</time>
      </trkpt>
      <trkpt lat="32.585744" lon="35.007763">
        <ele>185.0</ele>
        <time>2011-04-22T05:02:08Z</time>
      </trkpt>
      <trkpt lat="32.58576" lon="35.007672">
        <ele>185.0</ele>
        <time>2011-04-22T05:02:13Z</time>
      </trkpt>
      <trkpt lat="32.585723" lon="35.007607">
        <ele>186.0</ele>
        <time>2011-04-22T05:02:17Z</time>
      </trkpt>
      <trkpt lat="32.58568" lon="35.007522">
        <ele>184.0</ele>
        <time>2011-04-22T05:02:21Z</time>
      </trkpt>
      <trkpt lat="32.585648" lon="35.007452">
        <ele>182.0</ele>
        <time>2011-04-22T05:02:24Z</time>
      </trkpt>
      <trkpt lat="32.585594" lon="35.007398">
        <ele>181.0</ele>
        <time>2011-04-22T05:02:27Z</time>
      </trkpt>
      <trkpt lat="32.585632" lon="35.007221">
        <ele>182.0</ele>
        <time>2011-04-22T05:02:36Z</time>
      </trkpt>
      <trkpt lat="32.585583" lon="35.007028">
        <ele>181.0</ele>
        <time>2011-04-22T05:02:41Z</time>
      </trkpt>
      <trkpt lat="32.585449" lon="35.006974">
        <ele>180.0</ele>
        <time>2011-04-22T05:02:45Z</time>
      </trkpt>
      <trkpt lat="32.585396" lon="35.006926">
        <ele>178.0</ele>
        <time>2011-04-22T05:02:48Z</time>
      </trkpt>
      <trkpt lat="32.585337" lon="35.006744">
        <ele>179.0</ele>
        <time>2011-04-22T05:02:53Z</time>
      </trkpt>
      <trkpt lat="32.585245" lon="35.006572">
        <ele>180.0</ele>
        <time>2011-04-22T05:02:57Z</time>
      </trkpt>
      <trkpt lat="32.58524" lon="35.006497">
        <ele>180.0</ele>
        <time>2011-04-22T05:03:00Z</time>
      </trkpt>
      <trkpt lat="32.585261" lon="35.0064">
        <ele>178.0</ele>
        <time>2011-04-22T05:03:04Z</time>
      </trkpt>
      <trkpt lat="32.585267" lon="35.006309">
        <ele>177.0</ele>
        <time>2011-04-22T05:03:07Z</time>
      </trkpt>
      <trkpt lat="32.585288" lon="35.006207">
        <ele>176.0</ele>
        <time>2011-04-22T05:03:11Z</time>
      </trkpt>
      <trkpt lat="32.585299" lon="35.006121">
        <ele>173.0</ele>
        <time>2011-04-22T05:03:16Z</time>
      </trkpt>
      <trkpt lat="32.585326" lon="35.006036">
        <ele>169.0</ele>
        <time>2011-04-22T05:03:21Z</time>
      </trkpt>
      <trkpt lat="32.585353" lon="35.005955">
        <ele>166.0</ele>
        <time>2011-04-22T05:03:26Z</time>
      </trkpt>
      <trkpt lat="32.585353" lon="35.005955">
        <time>2011-04-22T05:03:37Z</time>
      </trkpt>
    </trkseg>
    <trkseg>
      <trkpt lat="32.585353" lon="35.005955">
        <time>2011-04-22T05:04:05Z</time>
      </trkpt>
      <trkpt lat="32.585363" lon="35.005778">
        <ele>167.0</ele>
        <time>2011-04-22T05:04:09Z</time>
      </trkpt>
      <trkpt lat="32.585401" lon="35.005692">
        <ele>165.0</ele>
        <time>2011-04-22T05:04:13Z</time>
      </trkpt>
      <trkpt lat="32.585444" lon="35.005617">
        <ele>165.0</ele>
        <time>2011-04-22T05:04:16Z</time>
      </trkpt>
      <trkpt lat="32.585503" lon="35.005542">
        <ele>164.0</ele>
        <time>2011-04-22T05:04:20Z</time>
      </trkpt>
      <trkpt lat="32.585632" lon="35.00544">
        <ele>161.0</ele>
        <time>2011-04-22T05:04:26Z</time>
      </trkpt>
      <trkpt lat="32.585734" lon="35.005274">
        <ele>160.0</ele>
        <time>2011-04-22T05:04:30Z</time>
      </trkpt>
      <trkpt lat="32.585803" lon="35.005134">
        <ele>161.0</ele>
        <time>2011-04-22T05:04:34Z</time>
      </trkpt>
      <trkpt lat="32.585803" lon="35.005038">
        <ele>161.0</ele>
        <time>2011-04-22T05:04:38Z</time>
      </trkpt>
      <trkpt lat="32.585835" lon="35.004952">
        <ele>162.0</ele>
        <time>2011-04-22T05:04:41Z</time>
      </trkpt>
      <trkpt lat="32.585846" lon="35.004871">
        <ele>163.0</ele>
        <time>2011-04-22T05:04:45Z</time>
      </trkpt>
      <trkpt lat="32.58576" lon="35.004764">
        <ele>165.0</ele>
        <time>2011-04-22T05:04:53Z</time>
      </trkpt>
      <trkpt lat="32.585696" lon="35.004753">
        <ele>165.0</ele>
        <time>2011-04-22T05:04:56Z</time>
      </trkpt>
      <trkpt lat="32.585621" lon="35.004721">
        <ele>165.0</ele>
        <time>2011-04-22T05:05:01Z</time>
      </trkpt>
      <trkpt lat="32.585546" lon="35.0047">
        <ele>166.0</ele>
        <time>2011-04-22T05:05:05Z</time>
      </trkpt>
      <trkpt lat="32.585535" lon="35.004614">
        <ele>164.0</ele>
        <time>2011-04-22T05:05:10Z</time>
      </trkpt>
      <trkpt lat="32.585535" lon="35.004614">
        <time>2011-04-22T05:05:21Z</time>
      </trkpt>
    </trkseg>
    <trkseg>
      <trkpt lat="32.585535" lon="35.004614">
        <time>2011-04-22T05:06:32Z</time>
      </trkpt>
      <trkpt lat="32.585583" lon="35.004448">
        <ele>160.0</ele>
        <time>2011-04-22T05:06:37Z</time>
      </trkpt>
      <trkpt lat="32.585626" lon="35.004367">
        <ele>160.0</ele>
        <time>2011-04-22T05:06:41Z</time>
      </trkpt>
      <trkpt lat="32.585669" lon="35.004297">
        <ele>160.0</ele>
        <time>2011-04-22T05:06:44Z</time>
      </trkpt>
      <trkpt lat="32.585707" lon="35.004217">
        <ele>160.0</ele>
        <time>2011-04-22T05:06:47Z</time>
      </trkpt>
      <trkpt lat="32.585793" lon="35.004056">
        <ele>160.0</ele>
        <time>2011-04-22T05:06:53Z</time>
      </trkpt>
      <trkpt lat="32.585841" lon="35.003965">
        <ele>159.0</ele>
        <time>2011-04-22T05:06:56Z</time>
      </trkpt>
      <trkpt lat="32.585921" lon="35.003815">
        <ele>159.0</ele>
        <time>2011-04-22T05:07:01Z</time>
      </trkpt>
      <trkpt lat="32.585975" lon="35.003718">
        <ele>158.0</ele>
        <time>2011-04-22T05:07:04Z</time>
      </trkpt>
      <trkpt lat="32.586055" lon="35.003584">
        <ele>158.0</ele>
        <time>2011-04-22T05:07:08Z</time>
      </trkpt>
      <trkpt lat="32.586147" lon="35.003461">
        <ele>158.0</ele>
        <time>2011-04-22T05:07:12Z</time>
      </trkpt>
      <trkpt lat="32.586227" lon="35.003332">
        <ele>157.0</ele>
        <time>2011-04-22T05:07:16Z</time>
      </trkpt>
      <trkpt lat="32.586334" lon="35.003182">
        <ele>157.0</ele>
        <time>2011-04-22T05:07:21Z</time>
      </trkpt>
      <trkpt lat="32.586436" lon="35.003069">
        <ele>157.0</ele>
        <time>2011-04-22T05:07:25Z</time>
      </trkpt>
      <trkpt lat="32.58656" lon="35.002978">
        <ele>157.0</ele>
        <time>2011-04-22T05:07:29Z</time>
      </trkpt>
      <trkpt lat="32.586683" lon="35.002908">
        <ele>158.0</ele>
        <time>2011-04-22T05:07:33Z</time>
      </trkpt>
      <trkpt lat="32.586742" lon="35.002876">
        <ele>158.0</ele>
        <time>2011-04-22T05:07:35Z</time>
      </trkpt>
      <trkpt lat="32.586898" lon="35.002828">
        <ele>158.0</ele>
        <time>2011-04-22T05:07:40Z</time>
      </trkpt>
      <trkpt lat="32.587032" lon="35.002822">
        <ele>158.0</ele>
        <time>2011-04-22T05:07:44Z</time>
      </trkpt>
      <trkpt lat="32.587166" lon="35.002801">
        <ele>159.0</ele>
        <time>2011-04-22T05:07:48Z</time>
      </trkpt>
      <trkpt lat="32.587241" lon="35.002758">
        <ele>161.0</ele>
        <time>2011-04-22T05:07:52Z</time>
      </trkpt>
      <trkpt lat="32.587316" lon="35.002726">
        <ele>159.0</ele>
        <time>2011-04-22T05:07:55Z</time>
      </trkpt>
      <trkpt lat="32.587386" lon="35.002736">
        <ele>160.0</ele>
        <time>2011-04-22T05:07:59Z</time>
      </trkpt>
      <trkpt lat="32.587461" lon="35.002742">
        <ele>161.0</ele>
        <time>2011-04-22T05:08:03Z</time>
      </trkpt>
      <trkpt lat="32.587541" lon="35.002736">
        <ele>160.0</ele>
        <time>2011-04-22T05:08:07Z</time>
      </trkpt>
      <trkpt lat="32.587622" lon="35.002736">
        <ele>161.0</ele>
        <time>2011-04-22T05:08:11Z</time>
      </trkpt>
      <trkpt lat="32.587686" lon="35.002758">
        <ele>162.0</ele>
        <time>2011-04-22T05:08:15Z</time>
      </trkpt>
      <trkpt lat="32.587761" lon="35.002774">
        <ele>165.0</ele>
        <time>2011-04-22T05:08:19Z</time>
      </trkpt>
      <trkpt lat="32.58789" lon="35.002715">
        <ele>168.0</ele>
        <time>2011-04-22T05:08:29Z</time>
      </trkpt>
      <trkpt lat="32.587965" lon="35.002694">
        <ele>167.0</ele>
        <time>2011-04-22T05:08:32Z</time>
      </trkpt>
      <trkpt lat="32.588024" lon="35.002747">
        <ele>169.0</ele>
        <time>2011-04-22T05:08:36Z</time>
      </trkpt>
      <trkpt lat="32.588003" lon="35.002828">
        <ele>168.0</ele>
        <time>2011-04-22T05:08:39Z</time>
      </trkpt>
      <trkpt lat="32.588003" lon="35.002919">
        <ele>168.0</ele>
        <time>2011-04-22T05:08:43Z</time>
      </trkpt>
      <trkpt lat="32.588019" lon="35.003069">
        <ele>169.0</ele>
        <time>2011-04-22T05:08:49Z</time>
      </trkpt>
      <trkpt lat="32.588008" lon="35.00316">
        <ele>170.0</ele>
        <time>2011-04-22T05:08:53Z</time>
      </trkpt>
      <trkpt lat="32.588003" lon="35.003246">
        <ele>171.0</ele>
        <time>2011-04-22T05:08:57Z</time>
      </trkpt>
      <trkpt lat="32.588008" lon="35.003343">
        <ele>172.0</ele>
        <time>2011-04-22T05:09:01Z</time>
      </trkpt>
      <trkpt lat="32.588024" lon="35.003423">
        <ele>172.0</ele>
        <time>2011-04-22T05:09:05Z</time>
      </trkpt>
      <trkpt lat="32.588035" lon="35.003509">
        <ele>174.0</ele>
        <time>2011-04-22T05:09:09Z</time>
      </trkpt>
      <trkpt lat="32.588051" lon="35.003584">
        <ele>176.0</ele>
        <time>2011-04-22T05:09:13Z</time>
      </trkpt>
      <trkpt lat="32.588051" lon="35.003584">
        <time>2011-04-22T05:09:25Z</time>
      </trkpt>
    </trkseg>
    <trkseg>
      <trkpt lat="32.588051" lon="35.003584">
        <time>2011-04-22T05:09:25Z</time>
      </trkpt>
      <trkpt lat="32.588115" lon="35.00382">
        <ele>180.0</ele>
        <time>2011-04-22T05:09:29Z</time>
      </trkpt>
      <trkpt lat="32.588105" lon="35.003901">
        <ele>182.0</ele>
        <time>2011-04-22T05:09:34Z</time>
      </trkpt>
      <trkpt lat="32.588083" lon="35.003976">
        <ele>183.0</ele>
        <time>2011-04-22T05:09:38Z</time>
      </trkpt>
      <trkpt lat="32.588056" lon="35.004045">
        <ele>183.0</ele>
        <time>2011-04-22T05:09:42Z</time>
      </trkpt>
      <trkpt lat="32.588003" lon="35.004094">
        <ele>184.0</ele>
        <time>2011-04-22T05:09:47Z</time>
      </trkpt>
      <trkpt lat="32.587944" lon="35.004142">
        <ele>186.0</ele>
        <time>2011-04-22T05:09:53Z</time>
      </trkpt>
      <trkpt lat="32.587885" lon="35.00419">
        <ele>186.0</ele>
        <time>2011-04-22T05:09:59Z</time>
      </trkpt>
      <trkpt lat="32.587836" lon="35.004244">
        <ele>187.0</ele>
        <time>2011-04-22T05:10:05Z</time>
      </trkpt>
      <trkpt lat="32.58781" lon="35.004314">
        <ele>187.0</ele>
        <time>2011-04-22T05:10:10Z</time>
      </trkpt>
      <trkpt lat="32.587815" lon="35.004394">
        <ele>189.0</ele>
        <time>2011-04-22T05:10:15Z</time>
      </trkpt>
      <trkpt lat="32.587836" lon="35.004475">
        <ele>189.0</ele>
        <time>2011-04-22T05:10:19Z</time>
      </trkpt>
      <trkpt lat="32.58782" lon="35.004641">
        <ele>188.0</ele>
        <time>2011-04-22T05:10:26Z</time>
      </trkpt>
      <trkpt lat="32.58782" lon="35.004727">
        <ele>187.0</ele>
        <time>2011-04-22T05:10:30Z</time>
      </trkpt>
      <trkpt lat="32.58782" lon="35.004727">
        <time>2011-04-22T05:10:42Z</time>
      </trkpt>
    </trkseg>
    <trkseg>
      <trkpt lat="32.58782" lon="35.004727">
        <time>2011-04-22T05:11:02Z</time>
      </trkpt>
      <trkpt lat="32.58782" lon="35.004727">
        <time>2011-04-22T05:11:14Z</time>
      </trkpt>
    </trkseg>
    <trkseg>
      <trkpt lat="32.58782" lon="35.004727">
        <time>2011-04-22T05:12:10Z</time>
      </trkpt>
      <trkpt lat="32.587654" lon="35.004947">
        <ele>185.0</ele>
        <time>2011-04-22T05:12:14Z</time>
      </trkpt>
      <trkpt lat="32.587616" lon="35.005097">
        <ele>180.0</ele>
        <time>2011-04-22T05:12:21Z</time>
      </trkpt>
      <trkpt lat="32.587649" lon="35.005177">
        <ele>178.0</ele>
        <time>2011-04-22T05:12:24Z</time>
      </trkpt>
      <trkpt lat="32.587595" lon="35.005311">
        <ele>175.0</ele>
        <time>2011-04-22T05:12:30Z</time>
      </trkpt>
      <trkpt lat="32.587541" lon="35.005392">
        <ele>173.0</ele>
        <time>2011-04-22T05:12:33Z</time>
      </trkpt>
      <trkpt lat="32.587509" lon="35.005472">
        <ele>171.0</ele>
        <time>2011-04-22T05:12:36Z</time>
      </trkpt>
      <trkpt lat="32.58745" lon="35.005692">
        <ele>165.0</ele>
        <time>2011-04-22T05:12:47Z</time>
      </trkpt>
      <trkpt lat="32.587461" lon="35.005778">
        <ele>164.0</ele>
        <time>2011-04-22T05:12:50Z</time>
      </trkpt>
      <trkpt lat="32.587482" lon="35.005853">
        <ele>161.0</ele>
        <time>2011-04-22T05:12:53Z</time>
      </trkpt>
      <trkpt lat="32.587504" lon="35.005955">
        <ele>158.0</ele>
        <time>2011-04-22T05:12:57Z</time>
      </trkpt>
      <trkpt lat="32.587541" lon="35.00603">
        <ele>157.0</ele>
        <time>2011-04-22T05:13:00Z</time>
      </trkpt>
      <trkpt lat="32.587611" lon="35.006084">
        <ele>159.0</ele>
        <time>2011-04-22T05:13:04Z</time>
      </trkpt>
      <trkpt lat="32.587777" lon="35.006256">
        <ele>156.0</ele>
        <time>2011-04-22T05:13:10Z</time>
      </trkpt>
      <trkpt lat="32.587826" lon="35.006325">
        <ele>154.0</ele>
        <time>2011-04-22T05:13:13Z</time>
      </trkpt>
      <trkpt lat="32.587879" lon="35.006475">
        <ele>150.0</ele>
        <time>2011-04-22T05:13:22Z</time>
      </trkpt>
      <trkpt lat="32.587949" lon="35.006518">
        <ele>150.0</ele>
        <time>2011-04-22T05:13:26Z</time>
      </trkpt>
      <trkpt lat="32.588067" lon="35.006631">
        <ele>146.0</ele>
        <time>2011-04-22T05:13:34Z</time>
      </trkpt>
      <trkpt lat="32.587992" lon="35.006776">
        <ele>143.0</ele>
        <time>2011-04-22T05:13:38Z</time>
      </trkpt>
      <trkpt lat="32.587987" lon="35.006948">
        <ele>137.0</ele>
        <time>2011-04-22T05:13:43Z</time>
      </trkpt>
      <trkpt lat="32.588035" lon="35.007184">
        <ele>132.0</ele>
        <time>2011-04-22T05:13:51Z</time>
      </trkpt>
      <trkpt lat="32.587981" lon="35.00728">
        <ele>130.0</ele>
        <time>2011-04-22T05:13:54Z</time>
      </trkpt>
      <trkpt lat="32.587944" lon="35.007355">
        <ele>127.0</ele>
        <time>2011-04-22T05:13:57Z</time>
      </trkpt>
      <trkpt lat="32.587987" lon="35.007425">
        <ele>123.0</ele>
        <time>2011-04-22T05:14:01Z</time>
      </trkpt>
      <trkpt lat="32.588062" lon="35.00757">
        <ele>120.0</ele>
        <time>2011-04-22T05:14:12Z</time>
      </trkpt>
      <trkpt lat="32.587981" lon="35.00757">
        <ele>119.0</ele>
        <time>2011-04-22T05:14:16Z</time>
      </trkpt>
      <trkpt lat="32.587842" lon="35.00757">
        <ele>117.0</ele>
        <time>2011-04-22T05:14:26Z</time>
      </trkpt>
      <trkpt lat="32.587697" lon="35.00765">
        <ele>116.0</ele>
        <time>2011-04-22T05:14:31Z</time>
      </trkpt>
      <trkpt lat="32.587697" lon="35.00765">
        <time>2011-04-22T05:14:42Z</time>
      </trkpt>
    </trkseg>
    <trkseg>
      <trkpt lat="32.587697" lon="35.00765">
        <time>2011-04-22T05:16:12Z</time>
      </trkpt>
      <trkpt lat="32.587697" lon="35.00765">
        <time>2011-04-22T05:16:23Z</time>
      </trkpt>
    </trkseg>
    <trkseg>
      <trkpt lat="32.587697" lon="35.00765">
        <time>2011-04-22T05:20:22Z</time>
      </trkpt>
      <trkpt lat="32.587697" lon="35.00765">
        <time>2011-04-22T05:20:34Z</time>
      </trkpt>
    </trkseg>
    <trkseg>
      <trkpt lat="32.587697" lon="35.00765">
        <time>2011-04-22T05:20:35Z</time>
      </trkpt>
      <trkpt lat="32.587697" lon="35.00765">
        <time>2011-04-22T05:20:47Z</time>
      </trkpt>
    </trkseg>
    <trkseg>
      <trkpt lat="32.587697" lon="35.00765">
        <time>2011-04-22T05:20:54Z</time>
      </trkpt>
      <trkpt lat="32.587697" lon="35.00765">
        <time>2011-04-22T05:21:06Z</time>
      </trkpt>
    </trkseg>
    <trkseg>
      <trkpt lat="32.587697" lon="35.00765">
        <time>2011-04-22T05:26:54Z</time>
      </trkpt>
      <trkpt lat="32.587697" lon="35.00765">
        <time>2011-04-22T05:27:06Z</time>
      </trkpt>
    </trkseg>
    <trkseg>
      <trkpt lat="32.587697" lon="35.00765">
        <time>2011-04-22T05:28:32Z</time>
      </trkpt>
      <trkpt lat="32.587981" lon="35.008299">
        <ele>107.0</ele>
        <time>2011-04-22T05:28:41Z</time>
      </trkpt>
      <trkpt lat="32.588083" lon="35.008391">
        <ele>109.0</ele>
        <time>2011-04-22T05:28:47Z</time>
      </trkpt>
      <trkpt lat="32.588142" lon="35.008466">
        <ele>111.0</ele>
        <time>2011-04-22T05:28:50Z</time>
      </trkpt>
      <trkpt lat="32.588217" lon="35.008594">
        <ele>113.0</ele>
        <time>2011-04-22T05:28:55Z</time>
      </trkpt>
      <trkpt lat="32.588233" lon="35.008669">
        <ele>112.0</ele>
        <time>2011-04-22T05:28:58Z</time>
      </trkpt>
      <trkpt lat="32.588266" lon="35.008745">
        <ele>112.0</ele>
        <time>2011-04-22T05:29:00Z</time>
      </trkpt>
      <trkpt lat="32.58841" lon="35.008981">
        <ele>113.0</ele>
        <time>2011-04-22T05:29:07Z</time>
      </trkpt>
      <trkpt lat="32.588448" lon="35.009061">
        <ele>113.0</ele>
        <time>2011-04-22T05:29:10Z</time>
      </trkpt>
      <trkpt lat="32.588485" lon="35.009131">
        <ele>114.0</ele>
        <time>2011-04-22T05:29:13Z</time>
      </trkpt>
      <trkpt lat="32.588502" lon="35.009297">
        <ele>120.0</ele>
        <time>2011-04-22T05:29:19Z</time>
      </trkpt>
      <trkpt lat="32.588502" lon="35.009399">
        <ele>121.0</ele>
        <time>2011-04-22T05:29:22Z</time>
      </trkpt>
      <trkpt lat="32.588507" lon="35.00956">
        <ele>123.0</ele>
        <time>2011-04-22T05:29:28Z</time>
      </trkpt>
      <trkpt lat="32.588518" lon="35.00971">
        <ele>126.0</ele>
        <time>2011-04-22T05:29:37Z</time>
      </trkpt>
      <trkpt lat="32.588507" lon="35.009796">
        <ele>127.0</ele>
        <time>2011-04-22T05:29:42Z</time>
      </trkpt>
      <trkpt lat="32.588507" lon="35.009876">
        <ele>129.0</ele>
        <time>2011-04-22T05:29:47Z</time>
      </trkpt>
      <trkpt lat="32.588502" lon="35.009957">
        <ele>132.0</ele>
        <time>2011-04-22T05:29:56Z</time>
      </trkpt>
      <trkpt lat="32.588507" lon="35.010032">
        <ele>134.0</ele>
        <time>2011-04-22T05:30:05Z</time>
      </trkpt>
      <trkpt lat="32.588507" lon="35.010032">
        <time>2011-04-22T05:30:17Z</time>
      </trkpt>
    </trkseg>
    <trkseg>
      <trkpt lat="32.588507" lon="35.010032">
        <time>2011-04-22T05:30:20Z</time>
      </trkpt>
      <trkpt lat="32.588534" lon="35.010386">
        <ele>140.0</ele>
        <time>2011-04-22T05:30:26Z</time>
      </trkpt>
      <trkpt lat="32.588539" lon="35.010461">
        <ele>139.0</ele>
        <time>2011-04-22T05:30:28Z</time>
      </trkpt>
      <trkpt lat="32.588587" lon="35.01074">
        <ele>132.0</ele>
        <time>2011-04-22T05:30:35Z</time>
      </trkpt>
      <trkpt lat="32.588641" lon="35.010939">
        <ele>127.0</ele>
        <time>2011-04-22T05:30:39Z</time>
      </trkpt>
      <trkpt lat="32.588668" lon="35.011014">
        <ele>127.0</ele>
        <time>2011-04-22T05:30:41Z</time>
      </trkpt>
      <trkpt lat="32.5887" lon="35.011191">
        <ele>127.0</ele>
        <time>2011-04-22T05:30:46Z</time>
      </trkpt>
      <trkpt lat="32.588727" lon="35.011352">
        <ele>127.0</ele>
        <time>2011-04-22T05:30:50Z</time>
      </trkpt>
      <trkpt lat="32.588748" lon="35.011523">
        <ele>131.0</ele>
        <time>2011-04-22T05:30:55Z</time>
      </trkpt>
      <trkpt lat="32.588754" lon="35.011615">
        <ele>132.0</ele>
        <time>2011-04-22T05:30:58Z</time>
      </trkpt>
      <trkpt lat="32.588834" lon="35.011851">
        <ele>134.0</ele>
        <time>2011-04-22T05:31:07Z</time>
      </trkpt>
      <trkpt lat="32.588856" lon="35.011958">
        <ele>133.0</ele>
        <time>2011-04-22T05:31:11Z</time>
      </trkpt>
      <trkpt lat="32.588936" lon="35.012092">
        <ele>130.0</ele>
        <time>2011-04-22T05:31:16Z</time>
      </trkpt>
      <trkpt lat="32.589092" lon="35.012199">
        <ele>130.0</ele>
        <time>2011-04-22T05:31:23Z</time>
      </trkpt>
      <trkpt lat="32.589167" lon="35.012253">
        <ele>130.0</ele>
        <time>2011-04-22T05:31:26Z</time>
      </trkpt>
      <trkpt lat="32.589242" lon="35.012301">
        <ele>130.0</ele>
        <time>2011-04-22T05:31:29Z</time>
      </trkpt>
      <trkpt lat="32.589392" lon="35.012349">
        <ele>133.0</ele>
        <time>2011-04-22T05:31:35Z</time>
      </trkpt>
      <trkpt lat="32.589456" lon="35.012371">
        <ele>133.0</ele>
        <time>2011-04-22T05:31:38Z</time>
      </trkpt>
      <trkpt lat="32.589521" lon="35.012408">
        <ele>133.0</ele>
        <time>2011-04-22T05:31:41Z</time>
      </trkpt>
      <trkpt lat="32.589671" lon="35.012489">
        <ele>133.0</ele>
        <time>2011-04-22T05:31:47Z</time>
      </trkpt>
      <trkpt lat="32.58973" lon="35.012543">
        <ele>133.0</ele>
        <time>2011-04-22T05:31:50Z</time>
      </trkpt>
      <trkpt lat="32.5898" lon="35.012559">
        <ele>132.0</ele>
        <time>2011-04-22T05:31:53Z</time>
      </trkpt>
      <trkpt lat="32.589859" lon="35.012623">
        <ele>132.0</ele>
        <time>2011-04-22T05:31:56Z</time>
      </trkpt>
      <trkpt lat="32.589982" lon="35.012704">
        <ele>131.0</ele>
        <time>2011-04-22T05:32:02Z</time>
      </trkpt>
      <trkpt lat="32.590041" lon="35.012746">
        <ele>131.0</ele>
        <time>2011-04-22T05:32:05Z</time>
      </trkpt>
      <trkpt lat="32.590116" lon="35.012811">
        <ele>132.0</ele>
        <time>2011-04-22T05:32:08Z</time>
      </trkpt>
      <trkpt lat="32.590245" lon="35.012886">
        <ele>133.0</ele>
        <time>2011-04-22T05:32:16Z</time>
      </trkpt>
      <trkpt lat="32.590293" lon="35.01295">
        <ele>133.0</ele>
        <time>2011-04-22T05:32:21Z</time>
      </trkpt>
      <trkpt lat="32.590363" lon="35.013004">
        <ele>134.0</ele>
        <time>2011-04-22T05:32:26Z</time>
      </trkpt>
      <trkpt lat="32.590476" lon="35.013106">
        <ele>133.0</ele>
        <time>2011-04-22T05:32:33Z</time>
      </trkpt>
      <trkpt lat="32.590567" lon="35.013127">
        <ele>133.0</ele>
        <time>2011-04-22T05:32:37Z</time>
      </trkpt>
      <trkpt lat="32.590637" lon="35.013165">
        <ele>134.0</ele>
        <time>2011-04-22T05:32:41Z</time>
      </trkpt>
      <trkpt lat="32.590696" lon="35.013235">
        <ele>137.0</ele>
        <time>2011-04-22T05:32:46Z</time>
      </trkpt>
      <trkpt lat="32.590744" lon="35.013288">
        <ele>139.0</ele>
        <time>2011-04-22T05:32:49Z</time>
      </trkpt>
      <trkpt lat="32.590937" lon="35.013417">
        <ele>139.0</ele>
        <time>2011-04-22T05:33:00Z</time>
      </trkpt>
      <trkpt lat="32.590948" lon="35.013594">
        <ele>139.0</ele>
        <time>2011-04-22T05:33:08Z</time>
      </trkpt>
      <trkpt lat="32.59091" lon="35.01368">
        <ele>140.0</ele>
        <time>2011-04-22T05:33:12Z</time>
      </trkpt>
      <trkpt lat="32.590867" lon="35.013744">
        <ele>140.0</ele>
        <time>2011-04-22T05:33:15Z</time>
      </trkpt>
      <trkpt lat="32.590755" lon="35.013793">
        <ele>142.0</ele>
        <time>2011-04-22T05:33:26Z</time>
      </trkpt>
      <trkpt lat="32.590621" lon="35.013825">
        <ele>143.0</ele>
        <time>2011-04-22T05:33:35Z</time>
      </trkpt>
      <trkpt lat="32.590551" lon="35.013841">
        <ele>145.0</ele>
        <time>2011-04-22T05:33:39Z</time>
      </trkpt>
      <trkpt lat="32.59047" lon="35.013846">
        <ele>144.0</ele>
        <time>2011-04-22T05:33:43Z</time>
      </trkpt>
      <trkpt lat="32.590401" lon="35.01383">
        <ele>145.0</ele>
        <time>2011-04-22T05:33:47Z</time>
      </trkpt>
      <trkpt lat="32.590336" lon="35.013825">
        <ele>145.0</ele>
        <time>2011-04-22T05:33:53Z</time>
      </trkpt>
      <trkpt lat="32.590272" lon="35.013825">
        <ele>146.0</ele>
        <time>2011-04-22T05:33:56Z</time>
      </trkpt>
      <trkpt lat="32.590197" lon="35.013825">
        <ele>147.0</ele>
        <time>2011-04-22T05:34:00Z</time>
      </trkpt>
      <trkpt lat="32.590132" lon="35.013803">
        <ele>147.0</ele>
        <time>2011-04-22T05:34:04Z</time>
      </trkpt>
      <trkpt lat="32.589993" lon="35.013776">
        <ele>144.0</ele>
        <time>2011-04-22T05:34:11Z</time>
      </trkpt>
      <trkpt lat="32.589929" lon="35.013776">
        <ele>145.0</ele>
        <time>2011-04-22T05:34:14Z</time>
      </trkpt>
      <trkpt lat="32.589848" lon="35.013766">
        <ele>146.0</ele>
        <time>2011-04-22T05:34:18Z</time>
      </trkpt>
      <trkpt lat="32.589784" lon="35.013755">
        <ele>145.0</ele>
        <time>2011-04-22T05:34:21Z</time>
      </trkpt>
      <trkpt lat="32.589714" lon="35.013734">
        <ele>144.0</ele>
        <time>2011-04-22T05:34:24Z</time>
      </trkpt>
      <trkpt lat="32.589542" lon="35.013717">
        <ele>144.0</ele>
        <time>2011-04-22T05:34:31Z</time>
      </trkpt>
      <trkpt lat="32.589473" lon="35.013712">
        <ele>146.0</ele>
        <time>2011-04-22T05:34:34Z</time>
      </trkpt>
      <trkpt lat="32.589322" lon="35.013712">
        <ele>151.0</ele>
        <time>2011-04-22T05:34:39Z</time>
      </trkpt>
      <trkpt lat="32.589226" lon="35.013707">
        <ele>152.0</ele>
        <time>2011-04-22T05:34:42Z</time>
      </trkpt>
      <trkpt lat="32.589092" lon="35.013691">
        <ele>154.0</ele>
        <time>2011-04-22T05:34:46Z</time>
      </trkpt>
      <trkpt lat="32.588958" lon="35.013658">
        <ele>156.0</ele>
        <time>2011-04-22T05:34:50Z</time>
      </trkpt>
      <trkpt lat="32.588802" lon="35.013621">
        <ele>157.0</ele>
        <time>2011-04-22T05:34:55Z</time>
      </trkpt>
      <trkpt lat="32.588727" lon="35.01361">
        <ele>158.0</ele>
        <time>2011-04-22T05:34:58Z</time>
      </trkpt>
      <trkpt lat="32.588663" lon="35.013605">
        <ele>159.0</ele>
        <time>2011-04-22T05:35:01Z</time>
      </trkpt>
      <trkpt lat="32.588518" lon="35.013589">
        <ele>156.0</ele>
        <time>2011-04-22T05:35:07Z</time>
      </trkpt>
      <trkpt lat="32.588443" lon="35.013578">
        <ele>154.0</ele>
        <time>2011-04-22T05:35:10Z</time>
      </trkpt>
      <trkpt lat="32.588367" lon="35.013562">
        <ele>155.0</ele>
        <time>2011-04-22T05:35:13Z</time>
      </trkpt>
      <trkpt lat="32.588292" lon="35.01354">
        <ele>157.0</ele>
        <time>2011-04-22T05:35:16Z</time>
      </trkpt>
      <trkpt lat="32.588212" lon="35.013556">
        <ele>157.0</ele>
        <time>2011-04-22T05:35:20Z</time>
      </trkpt>
      <trkpt lat="32.588078" lon="35.013556">
        <ele>160.0</ele>
        <time>2011-04-22T05:35:27Z</time>
      </trkpt>
      <trkpt lat="32.588013" lon="35.013546">
        <ele>162.0</ele>
        <time>2011-04-22T05:35:30Z</time>
      </trkpt>
      <trkpt lat="32.587885" lon="35.013599">
        <ele>166.0</ele>
        <time>2011-04-22T05:35:40Z</time>
      </trkpt>
      <trkpt lat="32.587745" lon="35.013642">
        <ele>165.0</ele>
        <time>2011-04-22T05:35:46Z</time>
      </trkpt>
      <trkpt lat="32.587675" lon="35.013669">
        <ele>163.0</ele>
        <time>2011-04-22T05:35:50Z</time>
      </trkpt>
      <trkpt lat="32.587606" lon="35.01368">
        <ele>163.0</ele>
        <time>2011-04-22T05:35:54Z</time>
      </trkpt>
      <trkpt lat="32.58745" lon="35.013696">
        <ele>164.0</ele>
        <time>2011-04-22T05:36:04Z</time>
      </trkpt>
      <trkpt lat="32.58738" lon="35.013701">
        <ele>166.0</ele>
        <time>2011-04-22T05:36:09Z</time>
      </trkpt>
      <trkpt lat="32.587316" lon="35.013701">
        <ele>166.0</ele>
        <time>2011-04-22T05:36:13Z</time>
      </trkpt>
      <trkpt lat="32.587252" lon="35.013712">
        <ele>169.0</ele>
        <time>2011-04-22T05:36:17Z</time>
      </trkpt>
      <trkpt lat="32.587187" lon="35.013712">
        <ele>171.0</ele>
        <time>2011-04-22T05:36:22Z</time>
      </trkpt>
      <trkpt lat="32.587118" lon="35.013707">
        <ele>169.0</ele>
        <time>2011-04-22T05:36:29Z</time>
      </trkpt>
      <trkpt lat="32.587053" lon="35.013691">
        <ele>171.0</ele>
        <time>2011-04-22T05:36:35Z</time>
      </trkpt>
      <trkpt lat="32.586978" lon="35.013664">
        <ele>168.0</ele>
        <time>2011-04-22T05:36:43Z</time>
      </trkpt>
      <trkpt lat="32.586903" lon="35.013642">
        <ele>168.0</ele>
        <time>2011-04-22T05:36:50Z</time>
      </trkpt>
      <trkpt lat="32.586839" lon="35.013615">
        <ele>170.0</ele>
        <time>2011-04-22T05:36:55Z</time>
      </trkpt>
      <trkpt lat="32.586769" lon="35.013589">
        <ele>172.0</ele>
        <time>2011-04-22T05:37:00Z</time>
      </trkpt>
      <trkpt lat="32.586704" lon="35.013562">
        <ele>173.0</ele>
        <time>2011-04-22T05:37:05Z</time>
      </trkpt>
      <trkpt lat="32.586629" lon="35.013535">
        <ele>173.0</ele>
        <time>2011-04-22T05:37:11Z</time>
      </trkpt>
      <trkpt lat="32.586554" lon="35.013508">
        <ele>175.0</ele>
        <time>2011-04-22T05:37:17Z</time>
      </trkpt>
      <trkpt lat="32.58649" lon="35.013476">
        <ele>177.0</ele>
        <time>2011-04-22T05:37:23Z</time>
      </trkpt>
      <trkpt lat="32.586426" lon="35.013449">
        <ele>176.0</ele>
        <time>2011-04-22T05:37:30Z</time>
      </trkpt>
      <trkpt lat="32.586361" lon="35.013438">
        <ele>178.0</ele>
        <time>2011-04-22T05:37:34Z</time>
      </trkpt>
      <trkpt lat="32.586286" lon="35.013444">
        <ele>180.0</ele>
        <time>2011-04-22T05:37:40Z</time>
      </trkpt>
      <trkpt lat="32.586216" lon="35.013417">
        <ele>181.0</ele>
        <time>2011-04-22T05:37:46Z</time>
      </trkpt>
      <trkpt lat="32.586147" lon="35.013396">
        <ele>184.0</ele>
        <time>2011-04-22T05:37:55Z</time>
      </trkpt>
      <trkpt lat="32.586088" lon="35.013369">
        <ele>181.0</ele>
        <time>2011-04-22T05:38:00Z</time>
      </trkpt>
      <trkpt lat="32.586023" lon="35.013347">
        <ele>182.0</ele>
        <time>2011-04-22T05:38:05Z</time>
      </trkpt>
      <trkpt lat="32.585953" lon="35.013337">
        <ele>181.0</ele>
        <time>2011-04-22T05:38:10Z</time>
      </trkpt>
      <trkpt lat="32.585878" lon="35.01332">
        <ele>182.0</ele>
        <time>2011-04-22T05:38:15Z</time>
      </trkpt>
      <trkpt lat="32.585803" lon="35.013299">
        <ele>185.0</ele>
        <time>2011-04-22T05:38:21Z</time>
      </trkpt>
      <trkpt lat="32.585739" lon="35.013288">
        <ele>186.0</ele>
        <time>2011-04-22T05:38:27Z</time>
      </trkpt>
      <trkpt lat="32.585739" lon="35.013288">
        <time>2011-04-22T05:38:38Z</time>
      </trkpt>
    </trkseg>
    <trkseg>
      <trkpt lat="32.585739" lon="35.013288">
        <time>2011-04-22T05:38:39Z</time>
      </trkpt>
      <trkpt lat="32.58554" lon="35.013245">
        <ele>189.0</ele>
        <time>2011-04-22T05:38:44Z</time>
      </trkpt>
      <trkpt lat="32.585476" lon="35.013251">
        <ele>190.0</ele>
        <time>2011-04-22T05:38:49Z</time>
      </trkpt>
      <trkpt lat="32.585406" lon="35.013256">
        <ele>195.0</ele>
        <time>2011-04-22T05:38:55Z</time>
      </trkpt>
      <trkpt lat="32.585342" lon="35.013267">
        <ele>199.0</ele>
        <time>2011-04-22T05:39:02Z</time>
      </trkpt>
      <trkpt lat="32.585342" lon="35.013267">
        <time>2011-04-22T05:39:13Z</time>
      </trkpt>
    </trkseg>
    <trkseg>
      <trkpt lat="32.585342" lon="35.013267">
        <time>2011-04-22T05:39:17Z</time>
      </trkpt>
      <trkpt lat="32.585117" lon="35.013299">
        <ele>197.0</ele>
        <time>2011-04-22T05:39:20Z</time>
      </trkpt>
      <trkpt lat="32.585042" lon="35.013299">
        <ele>197.0</ele>
        <time>2011-04-22T05:39:25Z</time>
      </trkpt>
      <trkpt lat="32.584977" lon="35.013278">
        <ele>197.0</ele>
        <time>2011-04-22T05:39:29Z</time>
      </trkpt>
      <trkpt lat="32.584822" lon="35.013294">
        <ele>195.0</ele>
        <time>2011-04-22T05:39:39Z</time>
      </trkpt>
      <trkpt lat="32.584752" lon="35.013299">
        <ele>197.0</ele>
        <time>2011-04-22T05:39:44Z</time>
      </trkpt>
      <trkpt lat="32.584677" lon="35.013304">
        <ele>199.0</ele>
        <time>2011-04-22T05:39:48Z</time>
      </trkpt>
      <trkpt lat="32.584612" lon="35.01331">
        <ele>199.0</ele>
        <time>2011-04-22T05:39:53Z</time>
      </trkpt>
      <trkpt lat="32.584612" lon="35.01331">
        <time>2011-04-22T05:40:04Z</time>
      </trkpt>
    </trkseg>
    <trkseg>
      <trkpt lat="32.584612" lon="35.01331">
        <time>2011-04-22T05:40:05Z</time>
      </trkpt>
      <trkpt lat="32.584403" lon="35.013315">
        <ele>199.0</ele>
        <time>2011-04-22T05:40:12Z</time>
      </trkpt>
      <trkpt lat="32.584403" lon="35.013315">
        <time>2011-04-22T05:40:23Z</time>
      </trkpt>
    </trkseg>
    <trkseg>
      <trkpt lat="32.584403" lon="35.013315">
        <time>2011-04-22T05:40:41Z</time>
      </trkpt>
      <trkpt lat="32.584403" lon="35.013315">
        <time>2011-04-22T05:40:52Z</time>
      </trkpt>
    </trkseg>
    <trkseg>
      <trkpt lat="32.584403" lon="35.013315">
        <time>2011-04-22T05:41:38Z</time>
      </trkpt>
      <trkpt lat="32.584403" lon="35.013315">
        <time>2011-04-22T05:41:49Z</time>
      </trkpt>
    </trkseg>
    <trkseg>
      <trkpt lat="32.584403" lon="35.013315">
        <time>2011-04-22T05:43:07Z</time>
      </trkpt>
      <trkpt lat="32.584392" lon="35.013197">
        <ele>191.0</ele>
        <time>2011-04-22T05:43:10Z</time>
      </trkpt>
      <trkpt lat="32.584441" lon="35.013127">
        <ele>192.0</ele>
        <time>2011-04-22T05:43:13Z</time>
      </trkpt>
      <trkpt lat="32.58451" lon="35.012961">
        <ele>191.0</ele>
        <time>2011-04-22T05:43:20Z</time>
      </trkpt>
      <trkpt lat="32.584548" lon="35.012891">
        <ele>190.0</ele>
        <time>2011-04-22T05:43:23Z</time>
      </trkpt>
      <trkpt lat="32.58458" lon="35.012789">
        <ele>191.0</ele>
        <time>2011-04-22T05:43:26Z</time>
      </trkpt>
      <trkpt lat="32.58465" lon="35.012628">
        <ele>192.0</ele>
        <time>2011-04-22T05:43:31Z</time>
      </trkpt>
      <trkpt lat="32.584698" lon="35.012543">
        <ele>194.0</ele>
        <time>2011-04-22T05:43:34Z</time>
      </trkpt>
      <trkpt lat="32.584816" lon="35.01243">
        <ele>194.0</ele>
        <time>2011-04-22T05:43:40Z</time>
      </trkpt>
      <trkpt lat="32.584875" lon="35.012403">
        <ele>194.0</ele>
        <time>2011-04-22T05:43:43Z</time>
      </trkpt>
      <trkpt lat="32.584945" lon="35.012376">
        <ele>195.0</ele>
        <time>2011-04-22T05:43:45Z</time>
      </trkpt>
      <trkpt lat="32.585009" lon="35.012333">
        <ele>195.0</ele>
        <time>2011-04-22T05:43:50Z</time>
      </trkpt>
      <trkpt lat="32.585079" lon="35.01229">
        <ele>196.0</ele>
        <time>2011-04-22T05:43:54Z</time>
      </trkpt>
      <trkpt lat="32.585138" lon="35.012215">
        <ele>199.0</ele>
        <time>2011-04-22T05:43:58Z</time>
      </trkpt>
      <trkpt lat="32.585219" lon="35.012022">
        <ele>200.0</ele>
        <time>2011-04-22T05:44:03Z</time>
      </trkpt>
      <trkpt lat="32.585294" lon="35.01184">
        <ele>201.0</ele>
        <time>2011-04-22T05:44:07Z</time>
      </trkpt>
      <trkpt lat="32.585358" lon="35.011695">
        <ele>201.0</ele>
        <time>2011-04-22T05:44:10Z</time>
      </trkpt>
      <trkpt lat="32.585406" lon="35.011513">
        <ele>200.0</ele>
        <time>2011-04-22T05:44:15Z</time>
      </trkpt>
      <trkpt lat="32.58546" lon="35.011448">
        <ele>200.0</ele>
        <time>2011-04-22T05:44:19Z</time>
      </trkpt>
      <trkpt lat="32.585524" lon="35.011395">
        <ele>200.0</ele>
        <time>2011-04-22T05:44:21Z</time>
      </trkpt>
      <trkpt lat="32.585551" lon="35.011196">
        <ele>200.0</ele>
        <time>2011-04-22T05:44:28Z</time>
      </trkpt>
      <trkpt lat="32.58554" lon="35.011105">
        <ele>201.0</ele>
        <time>2011-04-22T05:44:30Z</time>
      </trkpt>
      <trkpt lat="32.58553" lon="35.011019">
        <ele>201.0</ele>
        <time>2011-04-22T05:44:33Z</time>
      </trkpt>
      <trkpt lat="32.585524" lon="35.010847">
        <ele>202.0</ele>
        <time>2011-04-22T05:44:39Z</time>
      </trkpt>
      <trkpt lat="32.585519" lon="35.010751">
        <ele>201.0</ele>
        <time>2011-04-22T05:44:43Z</time>
      </trkpt>
      <trkpt lat="32.585514" lon="35.01066">
        <ele>200.0</ele>
        <time>2011-04-22T05:44:46Z</time>
      </trkpt>
      <trkpt lat="32.585514" lon="35.010585">
        <ele>201.0</ele>
        <time>2011-04-22T05:44:49Z</time>
      </trkpt>
      <trkpt lat="32.585492" lon="35.010493">
        <ele>202.0</ele>
        <time>2011-04-22T05:44:53Z</time>
      </trkpt>
      <trkpt lat="32.58546" lon="35.010322">
        <ele>203.0</ele>
        <time>2011-04-22T05:44:59Z</time>
      </trkpt>
      <trkpt lat="32.585433" lon="35.010241">
        <ele>203.0</ele>
        <time>2011-04-22T05:45:03Z</time>
      </trkpt>
      <trkpt lat="32.585385" lon="35.010172">
        <ele>206.0</ele>
        <time>2011-04-22T05:45:07Z</time>
      </trkpt>
      <trkpt lat="32.585396" lon="35.010091">
        <ele>206.0</ele>
        <time>2011-04-22T05:45:11Z</time>
      </trkpt>
      <trkpt lat="32.585396" lon="35.010011">
        <ele>205.0</ele>
        <time>2011-04-22T05:45:15Z</time>
      </trkpt>
      <trkpt lat="32.585412" lon="35.009919">
        <ele>205.0</ele>
        <time>2011-04-22T05:45:19Z</time>
      </trkpt>
      <trkpt lat="32.585396" lon="35.009828">
        <ele>207.0</ele>
        <time>2011-04-22T05:45:23Z</time>
      </trkpt>
      <trkpt lat="32.585396" lon="35.009748">
        <ele>206.0</ele>
        <time>2011-04-22T05:45:26Z</time>
      </trkpt>
      <trkpt lat="32.585385" lon="35.009667">
        <ele>206.0</ele>
        <time>2011-04-22T05:45:29Z</time>
      </trkpt>
      <trkpt lat="32.585379" lon="35.00949">
        <ele>207.0</ele>
        <time>2011-04-22T05:45:35Z</time>
      </trkpt>
      <trkpt lat="32.585369" lon="35.009399">
        <ele>206.0</ele>
        <time>2011-04-22T05:45:38Z</time>
      </trkpt>
      <trkpt lat="32.585347" lon="35.009308">
        <ele>206.0</ele>
        <time>2011-04-22T05:45:41Z</time>
      </trkpt>
      <trkpt lat="32.585299" lon="35.009233">
        <ele>206.0</ele>
        <time>2011-04-22T05:45:45Z</time>
      </trkpt>
      <trkpt lat="32.585165" lon="35.00912">
        <ele>206.0</ele>
        <time>2011-04-22T05:45:52Z</time>
      </trkpt>
      <trkpt lat="32.585052" lon="35.009024">
        <ele>204.0</ele>
        <time>2011-04-22T05:45:57Z</time>
      </trkpt>
      <trkpt lat="32.584929" lon="35.008959">
        <ele>203.0</ele>
        <time>2011-04-22T05:46:04Z</time>
      </trkpt>
      <trkpt lat="32.584859" lon="35.008911">
        <ele>203.0</ele>
        <time>2011-04-22T05:46:07Z</time>
      </trkpt>
      <trkpt lat="32.584789" lon="35.008873">
        <ele>203.0</ele>
        <time>2011-04-22T05:46:10Z</time>
      </trkpt>
      <trkpt lat="32.584634" lon="35.008771">
        <ele>203.0</ele>
        <time>2011-04-22T05:46:15Z</time>
      </trkpt>
      <trkpt lat="32.584564" lon="35.008696">
        <ele>202.0</ele>
        <time>2011-04-22T05:46:19Z</time>
      </trkpt>
      <trkpt lat="32.584494" lon="35.008643">
        <ele>201.0</ele>
        <time>2011-04-22T05:46:22Z</time>
      </trkpt>
      <trkpt lat="32.584392" lon="35.008471">
        <ele>199.0</ele>
        <time>2011-04-22T05:46:27Z</time>
      </trkpt>
      <trkpt lat="32.584339" lon="35.008401">
        <ele>198.0</ele>
        <time>2011-04-22T05:46:30Z</time>
      </trkpt>
      <trkpt lat="32.584237" lon="35.008256">
        <ele>196.0</ele>
        <time>2011-04-22T05:46:35Z</time>
      </trkpt>
      <trkpt lat="32.58414" lon="35.008117">
        <ele>195.0</ele>
        <time>2011-04-22T05:46:39Z</time>
      </trkpt>
      <trkpt lat="32.584081" lon="35.008036">
        <ele>194.0</ele>
        <time>2011-04-22T05:46:41Z</time>
      </trkpt>
      <trkpt lat="32.583894" lon="35.007795">
        <ele>193.0</ele>
        <time>2011-04-22T05:46:48Z</time>
      </trkpt>
      <trkpt lat="32.583845" lon="35.00764">
        <ele>192.0</ele>
        <time>2011-04-22T05:46:52Z</time>
      </trkpt>
      <trkpt lat="32.583824" lon="35.007532">
        <ele>192.0</ele>
        <time>2011-04-22T05:46:55Z</time>
      </trkpt>
      <trkpt lat="32.583818" lon="35.007457">
        <ele>192.0</ele>
        <time>2011-04-22T05:46:57Z</time>
      </trkpt>
      <trkpt lat="32.583797" lon="35.007382">
        <ele>191.0</ele>
        <time>2011-04-22T05:47:03Z</time>
      </trkpt>
      <trkpt lat="32.583738" lon="35.007291">
        <ele>191.0</ele>
        <time>2011-04-22T05:47:07Z</time>
      </trkpt>
      <trkpt lat="32.583641" lon="35.007135">
        <ele>192.0</ele>
        <time>2011-04-22T05:47:12Z</time>
      </trkpt>
      <trkpt lat="32.583604" lon="35.007033">
        <ele>193.0</ele>
        <time>2011-04-22T05:47:15Z</time>
      </trkpt>
      <trkpt lat="32.583566" lon="35.006958">
        <ele>194.0</ele>
        <time>2011-04-22T05:47:19Z</time>
      </trkpt>
      <trkpt lat="32.583572" lon="35.006883">
        <ele>195.0</ele>
        <time>2011-04-22T05:47:23Z</time>
      </trkpt>
      <trkpt lat="32.583561" lon="35.006803">
        <ele>196.0</ele>
        <time>2011-04-22T05:47:26Z</time>
      </trkpt>
      <trkpt lat="32.583539" lon="35.006728">
        <ele>197.0</ele>
        <time>2011-04-22T05:47:29Z</time>
      </trkpt>
      <trkpt lat="32.583529" lon="35.006647">
        <ele>198.0</ele>
        <time>2011-04-22T05:47:33Z</time>
      </trkpt>
      <trkpt lat="32.583582" lon="35.006497">
        <ele>198.0</ele>
        <time>2011-04-22T05:47:39Z</time>
      </trkpt>
      <trkpt lat="32.583609" lon="35.006416">
        <ele>199.0</ele>
        <time>2011-04-22T05:47:42Z</time>
      </trkpt>
      <trkpt lat="32.583636" lon="35.006347">
        <ele>198.0</ele>
        <time>2011-04-22T05:47:47Z</time>
      </trkpt>
      <trkpt lat="32.583668" lon="35.006282">
        <ele>198.0</ele>
        <time>2011-04-22T05:47:53Z</time>
      </trkpt>
      <trkpt lat="32.583631" lon="35.006202">
        <ele>198.0</ele>
        <time>2011-04-22T05:48:02Z</time>
      </trkpt>
      <trkpt lat="32.583539" lon="35.00617">
        <ele>198.0</ele>
        <time>2011-04-22T05:48:05Z</time>
      </trkpt>
      <trkpt lat="32.583405" lon="35.006073">
        <ele>198.0</ele>
        <time>2011-04-22T05:48:11Z</time>
      </trkpt>
      <trkpt lat="32.58333" lon="35.00603">
        <ele>198.0</ele>
        <time>2011-04-22T05:48:14Z</time>
      </trkpt>
      <trkpt lat="32.583266" lon="35.006003">
        <ele>197.0</ele>
        <time>2011-04-22T05:48:17Z</time>
      </trkpt>
      <trkpt lat="32.583202" lon="35.006036">
        <ele>199.0</ele>
        <time>2011-04-22T05:48:22Z</time>
      </trkpt>
      <trkpt lat="32.583137" lon="35.006036">
        <ele>197.0</ele>
        <time>2011-04-22T05:48:29Z</time>
      </trkpt>
      <trkpt lat="32.583137" lon="35.006036">
        <time>2011-04-22T05:48:41Z</time>
      </trkpt>
    </trkseg>
    <trkseg>
      <trkpt lat="32.583137" lon="35.006036">
        <time>2011-04-22T05:49:40Z</time>
      </trkpt>
      <trkpt lat="32.583041" lon="35.005907">
        <ele>199.0</ele>
        <time>2011-04-22T05:49:42Z</time>
      </trkpt>
      <trkpt lat="32.582987" lon="35.005864">
        <ele>198.0</ele>
        <time>2011-04-22T05:49:44Z</time>
      </trkpt>
      <trkpt lat="32.582912" lon="35.005703">
        <ele>196.0</ele>
        <time>2011-04-22T05:49:50Z</time>
      </trkpt>
      <trkpt lat="32.582864" lon="35.005617">
        <ele>195.0</ele>
        <time>2011-04-22T05:49:53Z</time>
      </trkpt>
      <trkpt lat="32.582783" lon="35.005574">
        <ele>191.0</ele>
        <time>2011-04-22T05:49:57Z</time>
      </trkpt>
      <trkpt lat="32.582719" lon="35.005617">
        <ele>191.0</ele>
        <time>2011-04-22T05:50:01Z</time>
      </trkpt>
      <trkpt lat="32.582638" lon="35.005612">
        <ele>190.0</ele>
        <time>2011-04-22T05:50:05Z</time>
      </trkpt>
      <trkpt lat="32.582585" lon="35.005531">
        <ele>189.0</ele>
        <time>2011-04-22T05:50:09Z</time>
      </trkpt>
      <trkpt lat="32.582536" lon="35.005472">
        <ele>187.0</ele>
        <time>2011-04-22T05:50:12Z</time>
      </trkpt>
      <trkpt lat="32.582477" lon="35.005413">
        <ele>185.0</ele>
        <time>2011-04-22T05:50:16Z</time>
      </trkpt>
      <trkpt lat="32.582424" lon="35.005354">
        <ele>184.0</ele>
        <time>2011-04-22T05:50:20Z</time>
      </trkpt>
      <trkpt lat="32.582365" lon="35.005301">
        <ele>180.0</ele>
        <time>2011-04-22T05:50:25Z</time>
      </trkpt>
      <trkpt lat="32.5823" lon="35.005274">
        <ele>178.0</ele>
        <time>2011-04-22T05:50:30Z</time>
      </trkpt>
      <trkpt lat="32.582284" lon="35.005193">
        <ele>177.0</ele>
        <time>2011-04-22T05:50:36Z</time>
      </trkpt>
      <trkpt lat="32.582231" lon="35.00515">
        <ele>176.0</ele>
        <time>2011-04-22T05:50:41Z</time>
      </trkpt>
      <trkpt lat="32.582231" lon="35.00515">
        <time>2011-04-22T05:50:52Z</time>
      </trkpt>
    </trkseg>
    <trkseg>
      <trkpt lat="32.582231" lon="35.00515">
        <time>2011-04-22T05:50:57Z</time>
      </trkpt>
      <trkpt lat="32.582102" lon="35.005054">
        <ele>170.0</ele>
        <time>2011-04-22T05:51:01Z</time>
      </trkpt>
      <trkpt lat="32.582102" lon="35.004963">
        <ele>169.0</ele>
        <time>2011-04-22T05:51:06Z</time>
      </trkpt>
      <trkpt lat="32.582107" lon="35.004877">
        <ele>168.0</ele>
        <time>2011-04-22T05:51:10Z</time>
      </trkpt>
      <trkpt lat="32.582139" lon="35.004694">
        <ele>166.0</ele>
        <time>2011-04-22T05:51:16Z</time>
      </trkpt>
      <trkpt lat="32.582155" lon="35.004609">
        <ele>165.0</ele>
        <time>2011-04-22T05:51:19Z</time>
      </trkpt>
      <trkpt lat="32.582123" lon="35.004528">
        <ele>161.0</ele>
        <time>2011-04-22T05:51:26Z</time>
      </trkpt>
      <trkpt lat="32.582102" lon="35.004448">
        <ele>159.0</ele>
        <time>2011-04-22T05:51:30Z</time>
      </trkpt>
      <trkpt lat="32.582129" lon="35.004373">
        <ele>159.0</ele>
        <time>2011-04-22T05:51:34Z</time>
      </trkpt>
      <trkpt lat="32.582129" lon="35.004297">
        <ele>155.0</ele>
        <time>2011-04-22T05:51:41Z</time>
      </trkpt>
      <trkpt lat="32.58207" lon="35.004255">
        <ele>151.0</ele>
        <time>2011-04-22T05:51:46Z</time>
      </trkpt>
      <trkpt lat="32.582021" lon="35.004196">
        <ele>149.0</ele>
        <time>2011-04-22T05:51:50Z</time>
      </trkpt>
      <trkpt lat="32.581957" lon="35.00412">
        <ele>149.0</ele>
        <time>2011-04-22T05:51:55Z</time>
      </trkpt>
      <trkpt lat="32.581957" lon="35.004045">
        <ele>148.0</ele>
        <time>2011-04-22T05:51:59Z</time>
      </trkpt>
      <trkpt lat="32.581989" lon="35.00397">
        <ele>147.0</ele>
        <time>2011-04-22T05:52:03Z</time>
      </trkpt>
      <trkpt lat="32.582011" lon="35.003895">
        <ele>146.0</ele>
        <time>2011-04-22T05:52:07Z</time>
      </trkpt>
      <trkpt lat="32.582016" lon="35.003815">
        <ele>145.0</ele>
        <time>2011-04-22T05:52:10Z</time>
      </trkpt>
      <trkpt lat="32.582021" lon="35.003707">
        <ele>141.0</ele>
        <time>2011-04-22T05:52:13Z</time>
      </trkpt>
      <trkpt lat="32.582075" lon="35.003627">
        <ele>139.0</ele>
        <time>2011-04-22T05:52:17Z</time>
      </trkpt>
      <trkpt lat="32.58207" lon="35.003546">
        <ele>138.0</ele>
        <time>2011-04-22T05:52:21Z</time>
      </trkpt>
      <trkpt lat="32.58207" lon="35.003546">
        <time>2011-04-22T05:52:32Z</time>
      </trkpt>
    </trkseg>
    <trkseg>
      <trkpt lat="32.58207" lon="35.003546">
        <time>2011-04-22T06:00:31Z</time>
      </trkpt>
      <trkpt lat="32.581941" lon="35.003622">
        <ele>133.0</ele>
        <time>2011-04-22T06:00:36Z</time>
      </trkpt>
      <trkpt lat="32.581796" lon="35.003697">
        <ele>131.0</ele>
        <time>2011-04-22T06:00:43Z</time>
      </trkpt>
      <trkpt lat="32.58171" lon="35.003756">
        <ele>133.0</ele>
        <time>2011-04-22T06:00:46Z</time>
      </trkpt>
      <trkpt lat="32.581635" lon="35.003815">
        <ele>135.0</ele>
        <time>2011-04-22T06:00:49Z</time>
      </trkpt>
      <trkpt lat="32.581571" lon="35.003868">
        <ele>135.0</ele>
        <time>2011-04-22T06:00:52Z</time>
      </trkpt>
      <trkpt lat="32.581442" lon="35.003976">
        <ele>135.0</ele>
        <time>2011-04-22T06:00:59Z</time>
      </trkpt>
      <trkpt lat="32.581324" lon="35.004061">
        <ele>134.0</ele>
        <time>2011-04-22T06:01:06Z</time>
      </trkpt>
      <trkpt lat="32.581249" lon="35.004104">
        <ele>136.0</ele>
        <time>2011-04-22T06:01:10Z</time>
      </trkpt>
      <trkpt lat="32.581195" lon="35.004169">
        <ele>136.0</ele>
        <time>2011-04-22T06:01:14Z</time>
      </trkpt>
      <trkpt lat="32.581142" lon="35.004244">
        <ele>136.0</ele>
        <time>2011-04-22T06:01:18Z</time>
      </trkpt>
      <trkpt lat="32.581093" lon="35.004324">
        <ele>134.0</ele>
        <time>2011-04-22T06:01:22Z</time>
      </trkpt>
      <trkpt lat="32.58104" lon="35.00441">
        <ele>135.0</ele>
        <time>2011-04-22T06:01:26Z</time>
      </trkpt>
      <trkpt lat="32.581013" lon="35.004491">
        <ele>135.0</ele>
        <time>2011-04-22T06:01:29Z</time>
      </trkpt>
      <trkpt lat="32.580986" lon="35.004576">
        <ele>135.0</ele>
        <time>2011-04-22T06:01:32Z</time>
      </trkpt>
      <trkpt lat="32.580959" lon="35.004673">
        <ele>134.0</ele>
        <time>2011-04-22T06:01:36Z</time>
      </trkpt>
      <trkpt lat="32.580948" lon="35.004753">
        <ele>133.0</ele>
        <time>2011-04-22T06:01:40Z</time>
      </trkpt>
      <trkpt lat="32.580954" lon="35.004834">
        <ele>134.0</ele>
        <time>2011-04-22T06:01:44Z</time>
      </trkpt>
      <trkpt lat="32.580938" lon="35.004914">
        <ele>134.0</ele>
        <time>2011-04-22T06:01:48Z</time>
      </trkpt>
      <trkpt lat="32.580916" lon="35.005006">
        <ele>134.0</ele>
        <time>2011-04-22T06:01:52Z</time>
      </trkpt>
      <trkpt lat="32.580884" lon="35.005161">
        <ele>136.0</ele>
        <time>2011-04-22T06:01:59Z</time>
      </trkpt>
      <trkpt lat="32.580879" lon="35.005236">
        <ele>136.0</ele>
        <time>2011-04-22T06:02:02Z</time>
      </trkpt>
      <trkpt lat="32.580868" lon="35.005311">
        <ele>136.0</ele>
        <time>2011-04-22T06:02:05Z</time>
      </trkpt>
      <trkpt lat="32.580857" lon="35.005462">
        <ele>136.0</ele>
        <time>2011-04-22T06:02:11Z</time>
      </trkpt>
      <trkpt lat="32.580847" lon="35.005558">
        <ele>136.0</ele>
        <time>2011-04-22T06:02:15Z</time>
      </trkpt>
      <trkpt lat="32.580841" lon="35.005644">
        <ele>137.0</ele>
        <time>2011-04-22T06:02:19Z</time>
      </trkpt>
      <trkpt lat="32.580841" lon="35.005816">
        <ele>137.0</ele>
        <time>2011-04-22T06:02:27Z</time>
      </trkpt>
      <trkpt lat="32.580841" lon="35.005912">
        <ele>137.0</ele>
        <time>2011-04-22T06:02:31Z</time>
      </trkpt>
      <trkpt lat="32.580836" lon="35.006003">
        <ele>137.0</ele>
        <time>2011-04-22T06:02:35Z</time>
      </trkpt>
      <trkpt lat="32.58083" lon="35.006078">
        <ele>138.0</ele>
        <time>2011-04-22T06:02:38Z</time>
      </trkpt>
      <trkpt lat="32.580825" lon="35.006154">
        <ele>138.0</ele>
        <time>2011-04-22T06:02:41Z</time>
      </trkpt>
      <trkpt lat="32.580809" lon="35.006245">
        <ele>139.0</ele>
        <time>2011-04-22T06:02:45Z</time>
      </trkpt>
      <trkpt lat="32.580809" lon="35.0064">
        <ele>139.0</ele>
        <time>2011-04-22T06:02:51Z</time>
      </trkpt>
      <trkpt lat="32.580814" lon="35.006481">
        <ele>139.0</ele>
        <time>2011-04-22T06:02:55Z</time>
      </trkpt>
      <trkpt lat="32.58082" lon="35.006556">
        <ele>140.0</ele>
        <time>2011-04-22T06:03:00Z</time>
      </trkpt>
      <trkpt lat="32.580782" lon="35.006717">
        <ele>141.0</ele>
        <time>2011-04-22T06:03:07Z</time>
      </trkpt>
      <trkpt lat="32.580788" lon="35.006813">
        <ele>142.0</ele>
        <time>2011-04-22T06:03:11Z</time>
      </trkpt>
      <trkpt lat="32.580798" lon="35.006905">
        <ele>142.0</ele>
        <time>2011-04-22T06:03:15Z</time>
      </trkpt>
      <trkpt lat="32.580814" lon="35.00698">
        <ele>142.0</ele>
        <time>2011-04-22T06:03:19Z</time>
      </trkpt>
      <trkpt lat="32.580836" lon="35.007071">
        <ele>142.0</ele>
        <time>2011-04-22T06:03:23Z</time>
      </trkpt>
      <trkpt lat="32.580836" lon="35.007151">
        <ele>142.0</ele>
        <time>2011-04-22T06:03:26Z</time>
      </trkpt>
      <trkpt lat="32.580841" lon="35.007232">
        <ele>143.0</ele>
        <time>2011-04-22T06:03:29Z</time>
      </trkpt>
      <trkpt lat="32.580836" lon="35.007323">
        <ele>143.0</ele>
        <time>2011-04-22T06:03:33Z</time>
      </trkpt>
      <trkpt lat="32.58083" lon="35.007479">
        <ele>144.0</ele>
        <time>2011-04-22T06:03:39Z</time>
      </trkpt>
      <trkpt lat="32.58082" lon="35.007559">
        <ele>145.0</ele>
        <time>2011-04-22T06:03:42Z</time>
      </trkpt>
      <trkpt lat="32.580809" lon="35.007645">
        <ele>145.0</ele>
        <time>2011-04-22T06:03:46Z</time>
      </trkpt>
      <trkpt lat="32.580793" lon="35.00772">
        <ele>146.0</ele>
        <time>2011-04-22T06:03:50Z</time>
      </trkpt>
      <trkpt lat="32.580777" lon="35.007806">
        <ele>146.0</ele>
        <time>2011-04-22T06:03:55Z</time>
      </trkpt>
      <trkpt lat="32.580798" lon="35.007892">
        <ele>146.0</ele>
        <time>2011-04-22T06:04:00Z</time>
      </trkpt>
      <trkpt lat="32.580868" lon="35.007881">
        <ele>146.0</ele>
        <time>2011-04-22T06:04:05Z</time>
      </trkpt>
      <trkpt lat="32.580943" lon="35.007859">
        <ele>146.0</ele>
        <time>2011-04-22T06:04:11Z</time>
      </trkpt>
      <trkpt lat="32.581061" lon="35.007768">
        <ele>146.0</ele>
        <time>2011-04-22T06:04:20Z</time>
      </trkpt>
      <trkpt lat="32.581125" lon="35.007768">
        <ele>144.0</ele>
        <time>2011-04-22T06:04:25Z</time>
      </trkpt>
      <trkpt lat="32.581125" lon="35.007768">
        <time>2011-04-22T06:04:37Z</time>
      </trkpt>
    </trkseg>
    <trkseg>
      <trkpt lat="32.581125" lon="35.007768">
        <time>2011-04-22T06:05:41Z</time>
      </trkpt>
      <trkpt lat="32.581254" lon="35.007725">
        <ele>147.0</ele>
        <time>2011-04-22T06:05:50Z</time>
      </trkpt>
      <trkpt lat="32.581319" lon="35.007731">
        <ele>148.0</ele>
        <time>2011-04-22T06:05:54Z</time>
      </trkpt>
      <trkpt lat="32.581463" lon="35.007715">
        <ele>149.0</ele>
        <time>2011-04-22T06:06:01Z</time>
      </trkpt>
      <trkpt lat="32.581544" lon="35.00772">
        <ele>151.0</ele>
        <time>2011-04-22T06:06:05Z</time>
      </trkpt>
      <trkpt lat="32.581689" lon="35.007763">
        <ele>150.0</ele>
        <time>2011-04-22T06:06:12Z</time>
      </trkpt>
      <trkpt lat="32.581753" lon="35.007763">
        <ele>151.0</ele>
        <time>2011-04-22T06:06:15Z</time>
      </trkpt>
      <trkpt lat="32.581812" lon="35.0078">
        <ele>150.0</ele>
        <time>2011-04-22T06:06:19Z</time>
      </trkpt>
      <trkpt lat="32.581877" lon="35.007833">
        <ele>150.0</ele>
        <time>2011-04-22T06:06:23Z</time>
      </trkpt>
      <trkpt lat="32.581946" lon="35.007859">
        <ele>150.0</ele>
        <time>2011-04-22T06:06:27Z</time>
      </trkpt>
      <trkpt lat="32.582016" lon="35.007881">
        <ele>150.0</ele>
        <time>2011-04-22T06:06:30Z</time>
      </trkpt>
      <trkpt lat="32.582091" lon="35.007892">
        <ele>151.0</ele>
        <time>2011-04-22T06:06:34Z</time>
      </trkpt>
      <trkpt lat="32.582231" lon="35.007972">
        <ele>150.0</ele>
        <time>2011-04-22T06:06:43Z</time>
      </trkpt>
      <trkpt lat="32.582268" lon="35.008058">
        <ele>151.0</ele>
        <time>2011-04-22T06:06:47Z</time>
      </trkpt>
      <trkpt lat="32.582316" lon="35.008133">
        <ele>152.0</ele>
        <time>2011-04-22T06:06:52Z</time>
      </trkpt>
      <trkpt lat="32.582365" lon="35.008197">
        <ele>156.0</ele>
        <time>2011-04-22T06:06:56Z</time>
      </trkpt>
      <trkpt lat="32.582408" lon="35.008289">
        <ele>155.0</ele>
        <time>2011-04-22T06:07:00Z</time>
      </trkpt>
      <trkpt lat="32.582451" lon="35.008358">
        <ele>156.0</ele>
        <time>2011-04-22T06:07:04Z</time>
      </trkpt>
      <trkpt lat="32.582483" lon="35.008423">
        <ele>157.0</ele>
        <time>2011-04-22T06:07:07Z</time>
      </trkpt>
      <trkpt lat="32.58252" lon="35.008498">
        <ele>157.0</ele>
        <time>2011-04-22T06:07:11Z</time>
      </trkpt>
      <trkpt lat="32.582611" lon="35.008621">
        <ele>156.0</ele>
        <time>2011-04-22T06:07:20Z</time>
      </trkpt>
      <trkpt lat="32.582703" lon="35.008745">
        <ele>157.0</ele>
        <time>2011-04-22T06:07:28Z</time>
      </trkpt>
      <trkpt lat="32.582762" lon="35.008814">
        <ele>157.0</ele>
        <time>2011-04-22T06:07:32Z</time>
      </trkpt>
      <trkpt lat="32.582815" lon="35.008873">
        <ele>158.0</ele>
        <time>2011-04-22T06:07:35Z</time>
      </trkpt>
      <trkpt lat="32.582847" lon="35.008954">
        <ele>158.0</ele>
        <time>2011-04-22T06:07:39Z</time>
      </trkpt>
      <trkpt lat="32.582858" lon="35.00904">
        <ele>159.0</ele>
        <time>2011-04-22T06:07:43Z</time>
      </trkpt>
      <trkpt lat="32.582858" lon="35.009125">
        <ele>161.0</ele>
        <time>2011-04-22T06:07:47Z</time>
      </trkpt>
      <trkpt lat="32.582864" lon="35.009206">
        <ele>165.0</ele>
        <time>2011-04-22T06:07:51Z</time>
      </trkpt>
      <trkpt lat="32.58288" lon="35.009292">
        <ele>167.0</ele>
        <time>2011-04-22T06:07:55Z</time>
      </trkpt>
      <trkpt lat="32.582923" lon="35.009351">
        <ele>168.0</ele>
        <time>2011-04-22T06:08:00Z</time>
      </trkpt>
      <trkpt lat="32.582987" lon="35.009404">
        <ele>171.0</ele>
        <time>2011-04-22T06:08:05Z</time>
      </trkpt>
      <trkpt lat="32.583041" lon="35.009458">
        <ele>172.0</ele>
        <time>2011-04-22T06:08:09Z</time>
      </trkpt>
      <trkpt lat="32.583132" lon="35.009587">
        <ele>172.0</ele>
        <time>2011-04-22T06:08:16Z</time>
      </trkpt>
      <trkpt lat="32.583169" lon="35.009683">
        <ele>171.0</ele>
        <time>2011-04-22T06:08:20Z</time>
      </trkpt>
      <trkpt lat="32.583212" lon="35.009753">
        <ele>172.0</ele>
        <time>2011-04-22T06:08:23Z</time>
      </trkpt>
      <trkpt lat="32.583244" lon="35.009823">
        <ele>171.0</ele>
        <time>2011-04-22T06:08:26Z</time>
      </trkpt>
      <trkpt lat="32.583341" lon="35.009957">
        <ele>173.0</ele>
        <time>2011-04-22T06:08:35Z</time>
      </trkpt>
      <trkpt lat="32.583373" lon="35.010048">
        <ele>173.0</ele>
        <time>2011-04-22T06:08:38Z</time>
      </trkpt>
      <trkpt lat="32.583411" lon="35.010118">
        <ele>173.0</ele>
        <time>2011-04-22T06:08:41Z</time>
      </trkpt>
      <trkpt lat="32.583464" lon="35.010193">
        <ele>173.0</ele>
        <time>2011-04-22T06:08:45Z</time>
      </trkpt>
      <trkpt lat="32.583518" lon="35.010268">
        <ele>173.0</ele>
        <time>2011-04-22T06:08:49Z</time>
      </trkpt>
      <trkpt lat="32.583588" lon="35.010434">
        <ele>173.0</ele>
        <time>2011-04-22T06:08:56Z</time>
      </trkpt>
      <trkpt lat="32.583695" lon="35.010568">
        <ele>172.0</ele>
        <time>2011-04-22T06:09:04Z</time>
      </trkpt>
      <trkpt lat="32.583722" lon="35.010638">
        <ele>172.0</ele>
        <time>2011-04-22T06:09:06Z</time>
      </trkpt>
      <trkpt lat="32.583797" lon="35.010767">
        <ele>173.0</ele>
        <time>2011-04-22T06:09:12Z</time>
      </trkpt>
      <trkpt lat="32.583813" lon="35.010858">
        <ele>174.0</ele>
        <time>2011-04-22T06:09:16Z</time>
      </trkpt>
      <trkpt lat="32.583829" lon="35.010944">
        <ele>175.0</ele>
        <time>2011-04-22T06:09:20Z</time>
      </trkpt>
      <trkpt lat="32.583835" lon="35.01103">
        <ele>176.0</ele>
        <time>2011-04-22T06:09:24Z</time>
      </trkpt>
      <trkpt lat="32.583829" lon="35.011121">
        <ele>178.0</ele>
        <time>2011-04-22T06:09:28Z</time>
      </trkpt>
      <trkpt lat="32.583829" lon="35.011207">
        <ele>180.0</ele>
        <time>2011-04-22T06:09:32Z</time>
      </trkpt>
      <trkpt lat="32.583813" lon="35.011287">
        <ele>182.0</ele>
        <time>2011-04-22T06:09:36Z</time>
      </trkpt>
      <trkpt lat="32.583781" lon="35.011368">
        <ele>183.0</ele>
        <time>2011-04-22T06:09:40Z</time>
      </trkpt>
      <trkpt lat="32.583754" lon="35.011443">
        <ele>185.0</ele>
        <time>2011-04-22T06:09:45Z</time>
      </trkpt>
      <trkpt lat="32.583722" lon="35.011529">
        <ele>186.0</ele>
        <time>2011-04-22T06:09:50Z</time>
      </trkpt>
      <trkpt lat="32.583717" lon="35.011604">
        <ele>187.0</ele>
        <time>2011-04-22T06:09:53Z</time>
      </trkpt>
      <trkpt lat="32.583711" lon="35.011695">
        <ele>188.0</ele>
        <time>2011-04-22T06:09:57Z</time>
      </trkpt>
      <trkpt lat="32.583695" lon="35.011781">
        <ele>189.0</ele>
        <time>2011-04-22T06:10:02Z</time>
      </trkpt>
      <trkpt lat="32.583679" lon="35.011861">
        <ele>189.0</ele>
        <time>2011-04-22T06:10:06Z</time>
      </trkpt>
      <trkpt lat="32.583636" lon="35.011931">
        <ele>191.0</ele>
        <time>2011-04-22T06:10:11Z</time>
      </trkpt>
      <trkpt lat="32.583582" lon="35.01199">
        <ele>194.0</ele>
        <time>2011-04-22T06:10:16Z</time>
      </trkpt>
      <trkpt lat="32.58355" lon="35.012054">
        <ele>195.0</ele>
        <time>2011-04-22T06:10:20Z</time>
      </trkpt>
      <trkpt lat="32.583529" lon="35.012135">
        <ele>196.0</ele>
        <time>2011-04-22T06:10:25Z</time>
      </trkpt>
      <trkpt lat="32.583523" lon="35.01221">
        <ele>197.0</ele>
        <time>2011-04-22T06:10:29Z</time>
      </trkpt>
      <trkpt lat="32.583507" lon="35.012296">
        <ele>199.0</ele>
        <time>2011-04-22T06:10:35Z</time>
      </trkpt>
      <trkpt lat="32.583502" lon="35.012371">
        <ele>199.0</ele>
        <time>2011-04-22T06:10:39Z</time>
      </trkpt>
      <trkpt lat="32.583448" lon="35.012414">
        <ele>199.0</ele>
        <time>2011-04-22T06:10:43Z</time>
      </trkpt>
      <trkpt lat="32.583368" lon="35.012425">
        <ele>199.0</ele>
        <time>2011-04-22T06:10:48Z</time>
      </trkpt>
      <trkpt lat="32.583293" lon="35.012462">
        <ele>200.0</ele>
        <time>2011-04-22T06:10:52Z</time>
      </trkpt>
      <trkpt lat="32.583159" lon="35.012521">
        <ele>201.0</ele>
        <time>2011-04-22T06:10:59Z</time>
      </trkpt>
      <trkpt lat="32.58311" lon="35.01258">
        <ele>201.0</ele>
        <time>2011-04-22T06:11:02Z</time>
      </trkpt>
      <trkpt lat="32.583008" lon="35.012741">
        <ele>203.0</ele>
        <time>2011-04-22T06:11:08Z</time>
      </trkpt>
      <trkpt lat="32.582885" lon="35.012832">
        <ele>203.0</ele>
        <time>2011-04-22T06:11:12Z</time>
      </trkpt>
      <trkpt lat="32.582735" lon="35.012923">
        <ele>203.0</ele>
        <time>2011-04-22T06:11:16Z</time>
      </trkpt>
      <trkpt lat="32.58259" lon="35.013041">
        <ele>199.0</ele>
        <time>2011-04-22T06:11:20Z</time>
      </trkpt>
      <trkpt lat="32.582424" lon="35.013074">
        <ele>197.0</ele>
        <time>2011-04-22T06:11:24Z</time>
      </trkpt>
      <trkpt lat="32.582252" lon="35.013036">
        <ele>195.0</ele>
        <time>2011-04-22T06:11:28Z</time>
      </trkpt>
      <trkpt lat="32.582016" lon="35.012972">
        <ele>193.0</ele>
        <time>2011-04-22T06:11:35Z</time>
      </trkpt>
      <trkpt lat="32.581844" lon="35.012982">
        <ele>192.0</ele>
        <time>2011-04-22T06:11:40Z</time>
      </trkpt>
      <trkpt lat="32.58171" lon="35.012961">
        <ele>192.0</ele>
        <time>2011-04-22T06:11:44Z</time>
      </trkpt>
      <trkpt lat="32.581549" lon="35.012999">
        <ele>191.0</ele>
        <time>2011-04-22T06:11:48Z</time>
      </trkpt>
      <trkpt lat="32.581367" lon="35.013041">
        <ele>190.0</ele>
        <time>2011-04-22T06:11:52Z</time>
      </trkpt>
      <trkpt lat="32.581179" lon="35.013079">
        <ele>188.0</ele>
        <time>2011-04-22T06:11:56Z</time>
      </trkpt>
      <trkpt lat="32.580922" lon="35.013079">
        <ele>186.0</ele>
        <time>2011-04-22T06:12:00Z</time>
      </trkpt>
      <trkpt lat="32.580734" lon="35.012993">
        <ele>185.0</ele>
        <time>2011-04-22T06:12:04Z</time>
      </trkpt>
      <trkpt lat="32.580691" lon="35.012934">
        <ele>186.0</ele>
        <time>2011-04-22T06:12:08Z</time>
      </trkpt>
      <trkpt lat="32.580632" lon="35.012859">
        <ele>186.0</ele>
        <time>2011-04-22T06:12:13Z</time>
      </trkpt>
      <trkpt lat="32.580573" lon="35.012709">
        <ele>190.0</ele>
        <time>2011-04-22T06:12:20Z</time>
      </trkpt>
      <trkpt lat="32.58045" lon="35.012468">
        <ele>191.0</ele>
        <time>2011-04-22T06:12:28Z</time>
      </trkpt>
      <trkpt lat="32.580407" lon="35.012403">
        <ele>191.0</ele>
        <time>2011-04-22T06:12:31Z</time>
      </trkpt>
      <trkpt lat="32.580289" lon="35.012307">
        <ele>187.0</ele>
        <time>2011-04-22T06:12:35Z</time>
      </trkpt>
      <trkpt lat="32.580144" lon="35.01221">
        <ele>185.0</ele>
        <time>2011-04-22T06:12:39Z</time>
      </trkpt>
      <trkpt lat="32.580058" lon="35.012183">
        <ele>184.0</ele>
        <time>2011-04-22T06:12:41Z</time>
      </trkpt>
      <trkpt lat="32.579978" lon="35.012151">
        <ele>184.0</ele>
        <time>2011-04-22T06:12:45Z</time>
      </trkpt>
      <trkpt lat="32.579902" lon="35.012135">
        <ele>183.0</ele>
        <time>2011-04-22T06:12:50Z</time>
      </trkpt>
      <trkpt lat="32.579838" lon="35.012135">
        <ele>184.0</ele>
        <time>2011-04-22T06:12:56Z</time>
      </trkpt>
      <trkpt lat="32.579838" lon="35.012135">
        <time>2011-04-22T06:13:07Z</time>
      </trkpt>
    </trkseg>
    <trkseg>
      <trkpt lat="32.579838" lon="35.012135">
        <time>2011-04-22T06:13:46Z</time>
      </trkpt>
      <trkpt lat="32.57964" lon="35.012199">
        <ele>183.0</ele>
        <time>2011-04-22T06:13:50Z</time>
      </trkpt>
      <trkpt lat="32.579564" lon="35.01236">
        <ele>188.0</ele>
        <time>2011-04-22T06:13:55Z</time>
      </trkpt>
      <trkpt lat="32.579441" lon="35.012612">
        <ele>187.0</ele>
        <time>2011-04-22T06:14:02Z</time>
      </trkpt>
      <trkpt lat="32.579328" lon="35.012784">
        <ele>187.0</ele>
        <time>2011-04-22T06:14:06Z</time>
      </trkpt>
      <trkpt lat="32.579264" lon="35.012827">
        <ele>187.0</ele>
        <time>2011-04-22T06:14:09Z</time>
      </trkpt>
      <trkpt lat="32.579125" lon="35.012881">
        <ele>186.0</ele>
        <time>2011-04-22T06:14:15Z</time>
      </trkpt>
      <trkpt lat="32.579055" lon="35.012891">
        <ele>188.0</ele>
        <time>2011-04-22T06:14:18Z</time>
      </trkpt>
      <trkpt lat="32.57899" lon="35.012913">
        <ele>190.0</ele>
        <time>2011-04-22T06:14:26Z</time>
      </trkpt>
      <trkpt lat="32.57899" lon="35.012913">
        <time>2011-04-22T06:14:37Z</time>
      </trkpt>
    </trkseg>
    <trkseg>
      <trkpt lat="32.57899" lon="35.012913">
        <time>2011-04-22T06:15:06Z</time>
      </trkpt>
      <trkpt lat="32.57899" lon="35.012913">
        <time>2011-04-22T06:15:17Z</time>
      </trkpt>
    </trkseg>
    <trkseg>
      <trkpt lat="32.57899" lon="35.012913">
        <time>2011-04-22T06:16:34Z</time>
      </trkpt>
      <trkpt lat="32.578733" lon="35.012956">
        <ele>197.0</ele>
        <time>2011-04-22T06:16:38Z</time>
      </trkpt>
      <trkpt lat="32.578669" lon="35.012945">
        <ele>197.0</ele>
        <time>2011-04-22T06:16:42Z</time>
      </trkpt>
      <trkpt lat="32.578599" lon="35.012945">
        <ele>197.0</ele>
        <time>2011-04-22T06:16:47Z</time>
      </trkpt>
      <trkpt lat="32.578534" lon="35.01294">
        <ele>197.0</ele>
        <time>2011-04-22T06:16:52Z</time>
      </trkpt>
      <trkpt lat="32.578459" lon="35.01294">
        <ele>198.0</ele>
        <time>2011-04-22T06:16:56Z</time>
      </trkpt>
      <trkpt lat="32.578384" lon="35.012956">
        <ele>200.0</ele>
        <time>2011-04-22T06:17:01Z</time>
      </trkpt>
      <trkpt lat="32.578315" lon="35.012961">
        <ele>200.0</ele>
        <time>2011-04-22T06:17:06Z</time>
      </trkpt>
      <trkpt lat="32.57825" lon="35.012966">
        <ele>201.0</ele>
        <time>2011-04-22T06:17:10Z</time>
      </trkpt>
      <trkpt lat="32.578175" lon="35.012972">
        <ele>201.0</ele>
        <time>2011-04-22T06:17:15Z</time>
      </trkpt>
      <trkpt lat="32.5781" lon="35.012961">
        <ele>202.0</ele>
        <time>2011-04-22T06:17:21Z</time>
      </trkpt>
      <trkpt lat="32.578036" lon="35.012956">
        <ele>204.0</ele>
        <time>2011-04-22T06:17:26Z</time>
      </trkpt>
      <trkpt lat="32.577971" lon="35.012961">
        <ele>204.0</ele>
        <time>2011-04-22T06:17:30Z</time>
      </trkpt>
      <trkpt lat="32.577901" lon="35.012956">
        <ele>206.0</ele>
        <time>2011-04-22T06:17:34Z</time>
      </trkpt>
      <trkpt lat="32.577837" lon="35.012956">
        <ele>206.0</ele>
        <time>2011-04-22T06:17:39Z</time>
      </trkpt>
      <trkpt lat="32.577698" lon="35.012945">
        <ele>206.0</ele>
        <time>2011-04-22T06:17:45Z</time>
      </trkpt>
      <trkpt lat="32.577623" lon="35.012923">
        <ele>206.0</ele>
        <time>2011-04-22T06:17:50Z</time>
      </trkpt>
      <trkpt lat="32.577467" lon="35.012907">
        <ele>206.0</ele>
        <time>2011-04-22T06:17:57Z</time>
      </trkpt>
      <trkpt lat="32.577301" lon="35.012913">
        <ele>206.0</ele>
        <time>2011-04-22T06:18:03Z</time>
      </trkpt>
      <trkpt lat="32.577231" lon="35.012918">
        <ele>207.0</ele>
        <time>2011-04-22T06:18:07Z</time>
      </trkpt>
      <trkpt lat="32.577172" lon="35.012972">
        <ele>208.0</ele>
        <time>2011-04-22T06:18:14Z</time>
      </trkpt>
      <trkpt lat="32.577172" lon="35.012972">
        <time>2011-04-22T06:18:26Z</time>
      </trkpt>
    </trkseg>
    <trkseg>
      <trkpt lat="32.577172" lon="35.012972">
        <time>2011-04-22T06:19:38Z</time>
      </trkpt>
      <trkpt lat="32.577188" lon="35.012854">
        <ele>210.0</ele>
        <time>2011-04-22T06:19:40Z</time>
      </trkpt>
      <trkpt lat="32.57736" lon="35.012532">
        <ele>210.0</ele>
        <time>2011-04-22T06:19:46Z</time>
      </trkpt>
      <trkpt lat="32.57744" lon="35.012199">
        <ele>211.0</ele>
        <time>2011-04-22T06:19:50Z</time>
      </trkpt>
      <trkpt lat="32.577446" lon="35.011904">
        <ele>211.0</ele>
        <time>2011-04-22T06:19:53Z</time>
      </trkpt>
      <trkpt lat="32.577478" lon="35.011416">
        <ele>210.0</ele>
        <time>2011-04-22T06:19:58Z</time>
      </trkpt>
      <trkpt lat="32.577515" lon="35.011142">
        <ele>209.0</ele>
        <time>2011-04-22T06:20:01Z</time>
      </trkpt>
      <trkpt lat="32.577671" lon="35.010762">
        <ele>208.0</ele>
        <time>2011-04-22T06:20:06Z</time>
      </trkpt>
      <trkpt lat="32.577837" lon="35.010536">
        <ele>207.0</ele>
        <time>2011-04-22T06:20:10Z</time>
      </trkpt>
      <trkpt lat="32.577998" lon="35.010295">
        <ele>207.0</ele>
        <time>2011-04-22T06:20:14Z</time>
      </trkpt>
      <trkpt lat="32.5781" lon="35.010091">
        <ele>206.0</ele>
        <time>2011-04-22T06:20:17Z</time>
      </trkpt>
      <trkpt lat="32.578148" lon="35.00971">
        <ele>207.0</ele>
        <time>2011-04-22T06:20:22Z</time>
      </trkpt>
      <trkpt lat="32.578197" lon="35.009378">
        <ele>205.0</ele>
        <time>2011-04-22T06:20:26Z</time>
      </trkpt>
      <trkpt lat="32.578266" lon="35.00904">
        <ele>203.0</ele>
        <time>2011-04-22T06:20:30Z</time>
      </trkpt>
      <trkpt lat="32.578266" lon="35.008696">
        <ele>201.0</ele>
        <time>2011-04-22T06:20:34Z</time>
      </trkpt>
      <trkpt lat="32.578266" lon="35.008358">
        <ele>201.0</ele>
        <time>2011-04-22T06:20:38Z</time>
      </trkpt>
      <trkpt lat="32.578218" lon="35.008074">
        <ele>197.0</ele>
        <time>2011-04-22T06:20:45Z</time>
      </trkpt>
      <trkpt lat="32.578164" lon="35.007811">
        <ele>196.0</ele>
        <time>2011-04-22T06:20:49Z</time>
      </trkpt>
      <trkpt lat="32.578148" lon="35.007446">
        <ele>194.0</ele>
        <time>2011-04-22T06:20:54Z</time>
      </trkpt>
      <trkpt lat="32.578138" lon="35.007098">
        <ele>193.0</ele>
        <time>2011-04-22T06:20:58Z</time>
      </trkpt>
      <trkpt lat="32.578105" lon="35.00676">
        <ele>191.0</ele>
        <time>2011-04-22T06:21:02Z</time>
      </trkpt>
      <trkpt lat="32.578046" lon="35.006449">
        <ele>190.0</ele>
        <time>2011-04-22T06:21:06Z</time>
      </trkpt>
      <trkpt lat="32.577885" lon="35.006137">
        <ele>188.0</ele>
        <time>2011-04-22T06:21:10Z</time>
      </trkpt>
      <trkpt lat="32.577789" lon="35.005816">
        <ele>186.0</ele>
        <time>2011-04-22T06:21:14Z</time>
      </trkpt>
      <trkpt lat="32.577687" lon="35.005472">
        <ele>182.0</ele>
        <time>2011-04-22T06:21:18Z</time>
      </trkpt>
      <trkpt lat="32.577558" lon="35.00515">
        <ele>179.0</ele>
        <time>2011-04-22T06:21:22Z</time>
      </trkpt>
      <trkpt lat="32.577526" lon="35.005081">
        <ele>179.0</ele>
        <time>2011-04-22T06:21:23Z</time>
      </trkpt>
      <trkpt lat="32.577483" lon="35.004544">
        <ele>178.0</ele>
        <time>2011-04-22T06:21:30Z</time>
      </trkpt>
      <trkpt lat="32.577435" lon="35.004308">
        <ele>175.0</ele>
        <time>2011-04-22T06:21:33Z</time>
      </trkpt>
      <trkpt lat="32.577467" lon="35.003949">
        <ele>174.0</ele>
        <time>2011-04-22T06:21:38Z</time>
      </trkpt>
      <trkpt lat="32.577435" lon="35.00375">
        <ele>172.0</ele>
        <time>2011-04-22T06:21:41Z</time>
      </trkpt>
      <trkpt lat="32.577274" lon="35.0036">
        <ele>171.0</ele>
        <time>2011-04-22T06:21:45Z</time>
      </trkpt>
      <trkpt lat="32.577268" lon="35.003353">
        <ele>170.0</ele>
        <time>2011-04-22T06:21:49Z</time>
      </trkpt>
      <trkpt lat="32.577231" lon="35.003101">
        <ele>167.0</ele>
        <time>2011-04-22T06:21:53Z</time>
      </trkpt>
      <trkpt lat="32.577188" lon="35.002785">
        <ele>165.0</ele>
        <time>2011-04-22T06:21:58Z</time>
      </trkpt>
      <trkpt lat="32.577113" lon="35.002602">
        <ele>164.0</ele>
        <time>2011-04-22T06:22:01Z</time>
      </trkpt>
      <trkpt lat="32.577065" lon="35.002554">
        <ele>161.0</ele>
        <time>2011-04-22T06:22:06Z</time>
      </trkpt>
      <trkpt lat="32.577065" lon="35.002554">
        <time>2011-04-22T06:22:17Z</time>
      </trkpt>
    </trkseg>
    <trkseg>
      <trkpt lat="32.577065" lon="35.002554">
        <time>2011-04-22T06:26:31Z</time>
      </trkpt>
      <trkpt lat="32.577231" lon="35.002441">
        <ele>152.0</ele>
        <time>2011-04-22T06:26:36Z</time>
      </trkpt>
      <trkpt lat="32.577301" lon="35.00242">
        <ele>153.0</ele>
        <time>2011-04-22T06:26:45Z</time>
      </trkpt>
      <trkpt lat="32.577301" lon="35.00242">
        <time>2011-04-22T06:26:57Z</time>
      </trkpt>
    </trkseg>
    <trkseg>
      <trkpt lat="32.577301" lon="35.00242">
        <time>2011-04-22T06:27:03Z</time>
      </trkpt>
      <trkpt lat="32.577671" lon="35.002468">
        <ele>154.0</ele>
        <time>2011-04-22T06:27:09Z</time>
      </trkpt>
      <trkpt lat="32.577735" lon="35.002452">
        <ele>154.0</ele>
        <time>2011-04-22T06:27:12Z</time>
      </trkpt>
      <trkpt lat="32.577805" lon="35.002474">
        <ele>154.0</ele>
        <time>2011-04-22T06:27:16Z</time>
      </trkpt>
      <trkpt lat="32.577864" lon="35.002506">
        <ele>154.0</ele>
        <time>2011-04-22T06:27:22Z</time>
      </trkpt>
      <trkpt lat="32.577955" lon="35.002511">
        <ele>154.0</ele>
        <time>2011-04-22T06:27:26Z</time>
      </trkpt>
      <trkpt lat="32.578095" lon="35.002511">
        <ele>162.0</ele>
        <time>2011-04-22T06:27:36Z</time>
      </trkpt>
      <trkpt lat="32.578223" lon="35.0025">
        <ele>162.0</ele>
        <time>2011-04-22T06:27:43Z</time>
      </trkpt>
      <trkpt lat="32.578293" lon="35.00249">
        <ele>162.0</ele>
        <time>2011-04-22T06:27:47Z</time>
      </trkpt>
      <trkpt lat="32.578357" lon="35.002484">
        <ele>162.0</ele>
        <time>2011-04-22T06:27:50Z</time>
      </trkpt>
      <trkpt lat="32.578502" lon="35.002457">
        <ele>165.0</ele>
        <time>2011-04-22T06:27:59Z</time>
      </trkpt>
      <trkpt lat="32.578653" lon="35.002452">
        <ele>167.0</ele>
        <time>2011-04-22T06:28:06Z</time>
      </trkpt>
      <trkpt lat="32.579039" lon="35.002377">
        <ele>167.0</ele>
        <time>2011-04-22T06:28:18Z</time>
      </trkpt>
      <trkpt lat="32.579184" lon="35.002275">
        <ele>168.0</ele>
        <time>2011-04-22T06:28:22Z</time>
      </trkpt>
      <trkpt lat="32.579312" lon="35.002179">
        <ele>166.0</ele>
        <time>2011-04-22T06:28:26Z</time>
      </trkpt>
      <trkpt lat="32.579479" lon="35.002098">
        <ele>163.0</ele>
        <time>2011-04-22T06:28:30Z</time>
      </trkpt>
      <trkpt lat="32.57965" lon="35.002071">
        <ele>161.0</ele>
        <time>2011-04-22T06:28:34Z</time>
      </trkpt>
      <trkpt lat="32.579779" lon="35.002146">
        <ele>159.0</ele>
        <time>2011-04-22T06:28:37Z</time>
      </trkpt>
      <trkpt lat="32.579838" lon="35.002318">
        <ele>157.0</ele>
        <time>2011-04-22T06:28:42Z</time>
      </trkpt>
      <trkpt lat="32.579913" lon="35.002463">
        <ele>155.0</ele>
        <time>2011-04-22T06:28:46Z</time>
      </trkpt>
      <trkpt lat="32.580031" lon="35.002618">
        <ele>154.0</ele>
        <time>2011-04-22T06:28:50Z</time>
      </trkpt>
      <trkpt lat="32.580181" lon="35.002779">
        <ele>152.0</ele>
        <time>2011-04-22T06:28:54Z</time>
      </trkpt>
      <trkpt lat="32.580342" lon="35.002956">
        <ele>150.0</ele>
        <time>2011-04-22T06:28:58Z</time>
      </trkpt>
      <trkpt lat="32.58046" lon="35.003123">
        <ele>148.0</ele>
        <time>2011-04-22T06:29:01Z</time>
      </trkpt>
      <trkpt lat="32.58053" lon="35.003305">
        <ele>144.0</ele>
        <time>2011-04-22T06:29:05Z</time>
      </trkpt>
      <trkpt lat="32.580605" lon="35.003477">
        <ele>143.0</ele>
        <time>2011-04-22T06:29:09Z</time>
      </trkpt>
      <trkpt lat="32.580734" lon="35.003681">
        <ele>140.0</ele>
        <time>2011-04-22T06:29:13Z</time>
      </trkpt>
      <trkpt lat="32.580825" lon="35.003831">
        <ele>140.0</ele>
        <time>2011-04-22T06:29:17Z</time>
      </trkpt>
      <trkpt lat="32.580954" lon="35.003906">
        <ele>139.0</ele>
        <time>2011-04-22T06:29:21Z</time>
      </trkpt>
      <trkpt lat="32.581093" lon="35.004008">
        <ele>137.0</ele>
        <time>2011-04-22T06:29:25Z</time>
      </trkpt>
      <trkpt lat="32.581174" lon="35.004169">
        <ele>134.0</ele>
        <time>2011-04-22T06:29:30Z</time>
      </trkpt>
      <trkpt lat="32.581211" lon="35.004265">
        <ele>133.0</ele>
        <time>2011-04-22T06:29:34Z</time>
      </trkpt>
      <trkpt lat="32.581056" lon="35.004421">
        <ele>136.0</ele>
        <time>2011-04-22T06:29:41Z</time>
      </trkpt>
      <trkpt lat="32.581007" lon="35.004517">
        <ele>137.0</ele>
        <time>2011-04-22T06:29:44Z</time>
      </trkpt>
      <trkpt lat="32.580954" lon="35.004721">
        <ele>137.0</ele>
        <time>2011-04-22T06:29:50Z</time>
      </trkpt>
      <trkpt lat="32.580948" lon="35.004802">
        <ele>136.0</ele>
        <time>2011-04-22T06:29:53Z</time>
      </trkpt>
      <trkpt lat="32.580938" lon="35.004882">
        <ele>136.0</ele>
        <time>2011-04-22T06:29:56Z</time>
      </trkpt>
      <trkpt lat="32.580906" lon="35.005043">
        <ele>138.0</ele>
        <time>2011-04-22T06:30:02Z</time>
      </trkpt>
      <trkpt lat="32.580884" lon="35.005129">
        <ele>139.0</ele>
        <time>2011-04-22T06:30:06Z</time>
      </trkpt>
      <trkpt lat="32.580873" lon="35.005204">
        <ele>140.0</ele>
        <time>2011-04-22T06:30:09Z</time>
      </trkpt>
      <trkpt lat="32.580863" lon="35.005279">
        <ele>139.0</ele>
        <time>2011-04-22T06:30:12Z</time>
      </trkpt>
      <trkpt lat="32.580836" lon="35.005429">
        <ele>141.0</ele>
        <time>2011-04-22T06:30:18Z</time>
      </trkpt>
      <trkpt lat="32.580836" lon="35.005504">
        <ele>141.0</ele>
        <time>2011-04-22T06:30:21Z</time>
      </trkpt>
      <trkpt lat="32.58083" lon="35.005585">
        <ele>142.0</ele>
        <time>2011-04-22T06:30:26Z</time>
      </trkpt>
      <trkpt lat="32.580825" lon="35.005671">
        <ele>143.0</ele>
        <time>2011-04-22T06:30:30Z</time>
      </trkpt>
      <trkpt lat="32.58083" lon="35.005746">
        <ele>144.0</ele>
        <time>2011-04-22T06:30:34Z</time>
      </trkpt>
      <trkpt lat="32.58083" lon="35.005837">
        <ele>144.0</ele>
        <time>2011-04-22T06:30:39Z</time>
      </trkpt>
      <trkpt lat="32.580814" lon="35.005918">
        <ele>143.0</ele>
        <time>2011-04-22T06:30:43Z</time>
      </trkpt>
      <trkpt lat="32.580782" lon="35.006084">
        <ele>145.0</ele>
        <time>2011-04-22T06:30:50Z</time>
      </trkpt>
      <trkpt lat="32.580782" lon="35.006159">
        <ele>144.0</ele>
        <time>2011-04-22T06:30:53Z</time>
      </trkpt>
      <trkpt lat="32.580771" lon="35.006239">
        <ele>144.0</ele>
        <time>2011-04-22T06:30:57Z</time>
      </trkpt>
      <trkpt lat="32.580771" lon="35.006325">
        <ele>143.0</ele>
        <time>2011-04-22T06:31:01Z</time>
      </trkpt>
      <trkpt lat="32.580777" lon="35.006406">
        <ele>144.0</ele>
        <time>2011-04-22T06:31:06Z</time>
      </trkpt>
      <trkpt lat="32.580782" lon="35.006486">
        <ele>144.0</ele>
        <time>2011-04-22T06:31:10Z</time>
      </trkpt>
      <trkpt lat="32.580777" lon="35.006567">
        <ele>144.0</ele>
        <time>2011-04-22T06:31:14Z</time>
      </trkpt>
      <trkpt lat="32.580761" lon="35.006663">
        <ele>145.0</ele>
        <time>2011-04-22T06:31:18Z</time>
      </trkpt>
      <trkpt lat="32.580761" lon="35.006738">
        <ele>145.0</ele>
        <time>2011-04-22T06:31:21Z</time>
      </trkpt>
      <trkpt lat="32.580761" lon="35.006813">
        <ele>145.0</ele>
        <time>2011-04-22T06:31:24Z</time>
      </trkpt>
      <trkpt lat="32.580766" lon="35.006899">
        <ele>145.0</ele>
        <time>2011-04-22T06:31:28Z</time>
      </trkpt>
      <trkpt lat="32.580782" lon="35.006985">
        <ele>146.0</ele>
        <time>2011-04-22T06:31:32Z</time>
      </trkpt>
      <trkpt lat="32.580782" lon="35.00706">
        <ele>147.0</ele>
        <time>2011-04-22T06:31:36Z</time>
      </trkpt>
      <trkpt lat="32.580777" lon="35.007146">
        <ele>148.0</ele>
        <time>2011-04-22T06:31:40Z</time>
      </trkpt>
      <trkpt lat="32.580782" lon="35.007232">
        <ele>148.0</ele>
        <time>2011-04-22T06:31:44Z</time>
      </trkpt>
      <trkpt lat="32.580782" lon="35.007307">
        <ele>148.0</ele>
        <time>2011-04-22T06:31:48Z</time>
      </trkpt>
      <trkpt lat="32.580788" lon="35.007393">
        <ele>148.0</ele>
        <time>2011-04-22T06:31:53Z</time>
      </trkpt>
      <trkpt lat="32.580782" lon="35.007479">
        <ele>148.0</ele>
        <time>2011-04-22T06:31:57Z</time>
      </trkpt>
      <trkpt lat="32.580771" lon="35.007564">
        <ele>149.0</ele>
        <time>2011-04-22T06:32:02Z</time>
      </trkpt>
      <trkpt lat="32.580755" lon="35.007656">
        <ele>150.0</ele>
        <time>2011-04-22T06:32:07Z</time>
      </trkpt>
      <trkpt lat="32.580745" lon="35.007736">
        <ele>151.0</ele>
        <time>2011-04-22T06:32:12Z</time>
      </trkpt>
      <trkpt lat="32.580755" lon="35.007817">
        <ele>152.0</ele>
        <time>2011-04-22T06:32:18Z</time>
      </trkpt>
      <trkpt lat="32.58082" lon="35.007865">
        <ele>150.0</ele>
        <time>2011-04-22T06:32:22Z</time>
      </trkpt>
      <trkpt lat="32.580884" lon="35.007859">
        <ele>151.0</ele>
        <time>2011-04-22T06:32:26Z</time>
      </trkpt>
      <trkpt lat="32.580948" lon="35.007849">
        <ele>152.0</ele>
        <time>2011-04-22T06:32:29Z</time>
      </trkpt>
      <trkpt lat="32.581018" lon="35.007833">
        <ele>153.0</ele>
        <time>2011-04-22T06:32:33Z</time>
      </trkpt>
      <trkpt lat="32.581099" lon="35.0078">
        <ele>153.0</ele>
        <time>2011-04-22T06:32:37Z</time>
      </trkpt>
      <trkpt lat="32.581163" lon="35.007763">
        <ele>152.0</ele>
        <time>2011-04-22T06:32:40Z</time>
      </trkpt>
      <trkpt lat="32.581303" lon="35.007731">
        <ele>152.0</ele>
        <time>2011-04-22T06:32:46Z</time>
      </trkpt>
      <trkpt lat="32.581367" lon="35.007715">
        <ele>152.0</ele>
        <time>2011-04-22T06:32:49Z</time>
      </trkpt>
      <trkpt lat="32.581442" lon="35.007715">
        <ele>154.0</ele>
        <time>2011-04-22T06:32:52Z</time>
      </trkpt>
      <trkpt lat="32.581657" lon="35.007752">
        <ele>154.0</ele>
        <time>2011-04-22T06:33:02Z</time>
      </trkpt>
      <trkpt lat="32.581721" lon="35.007774">
        <ele>153.0</ele>
        <time>2011-04-22T06:33:05Z</time>
      </trkpt>
      <trkpt lat="32.581785" lon="35.007806">
        <ele>154.0</ele>
        <time>2011-04-22T06:33:08Z</time>
      </trkpt>
      <trkpt lat="32.581925" lon="35.007854">
        <ele>154.0</ele>
        <time>2011-04-22T06:33:15Z</time>
      </trkpt>
      <trkpt lat="32.581995" lon="35.007876">
        <ele>154.0</ele>
        <time>2011-04-22T06:33:18Z</time>
      </trkpt>
      <trkpt lat="32.582064" lon="35.007886">
        <ele>155.0</ele>
        <time>2011-04-22T06:33:22Z</time>
      </trkpt>
      <trkpt lat="32.582134" lon="35.007935">
        <ele>156.0</ele>
        <time>2011-04-22T06:33:26Z</time>
      </trkpt>
      <trkpt lat="32.582204" lon="35.007983">
        <ele>155.0</ele>
        <time>2011-04-22T06:33:30Z</time>
      </trkpt>
      <trkpt lat="32.582252" lon="35.008053">
        <ele>157.0</ele>
        <time>2011-04-22T06:33:34Z</time>
      </trkpt>
      <trkpt lat="32.582316" lon="35.00809">
        <ele>157.0</ele>
        <time>2011-04-22T06:33:38Z</time>
      </trkpt>
      <trkpt lat="32.582316" lon="35.00809">
        <time>2011-04-22T06:33:50Z</time>
      </trkpt>
    </trkseg>
    <trkseg>
      <trkpt lat="32.582316" lon="35.00809">
        <time>2011-04-22T06:33:51Z</time>
      </trkpt>
      <trkpt lat="32.582316" lon="35.00809">
        <time>2011-04-22T06:34:03Z</time>
      </trkpt>
    </trkseg>
    <trkseg>
      <trkpt lat="32.582316" lon="35.00809">
        <time>2011-04-22T06:34:04Z</time>
      </trkpt>
      <trkpt lat="32.582316" lon="35.00809">
        <time>2011-04-22T06:34:16Z</time>
      </trkpt>
    </trkseg>
    <trkseg>
      <trkpt lat="32.582316" lon="35.00809">
        <time>2011-04-22T06:34:17Z</time>
      </trkpt>
      <trkpt lat="32.582515" lon="35.008412">
        <ele>162.0</ele>
        <time>2011-04-22T06:34:24Z</time>
      </trkpt>
      <trkpt lat="32.582574" lon="35.008482">
        <ele>163.0</ele>
        <time>2011-04-22T06:34:28Z</time>
      </trkpt>
      <trkpt lat="32.582622" lon="35.008551">
        <ele>165.0</ele>
        <time>2011-04-22T06:34:31Z</time>
      </trkpt>
      <trkpt lat="32.582654" lon="35.008621">
        <ele>166.0</ele>
        <time>2011-04-22T06:34:34Z</time>
      </trkpt>
      <trkpt lat="32.582708" lon="35.008691">
        <ele>166.0</ele>
        <time>2011-04-22T06:34:38Z</time>
      </trkpt>
      <trkpt lat="32.582756" lon="35.008755">
        <ele>167.0</ele>
        <time>2011-04-22T06:34:42Z</time>
      </trkpt>
      <trkpt lat="32.58281" lon="35.00883">
        <ele>167.0</ele>
        <time>2011-04-22T06:34:46Z</time>
      </trkpt>
      <trkpt lat="32.582837" lon="35.0089">
        <ele>168.0</ele>
        <time>2011-04-22T06:34:50Z</time>
      </trkpt>
      <trkpt lat="32.582858" lon="35.008981">
        <ele>169.0</ele>
        <time>2011-04-22T06:34:55Z</time>
      </trkpt>
      <trkpt lat="32.582864" lon="35.009061">
        <ele>168.0</ele>
        <time>2011-04-22T06:34:58Z</time>
      </trkpt>
      <trkpt lat="32.582874" lon="35.009147">
        <ele>169.0</ele>
        <time>2011-04-22T06:35:01Z</time>
      </trkpt>
      <trkpt lat="32.58289" lon="35.009238">
        <ele>170.0</ele>
        <time>2011-04-22T06:35:06Z</time>
      </trkpt>
      <trkpt lat="32.58288" lon="35.009313">
        <ele>171.0</ele>
        <time>2011-04-22T06:35:10Z</time>
      </trkpt>
      <trkpt lat="32.582933" lon="35.009378">
        <ele>172.0</ele>
        <time>2011-04-22T06:35:15Z</time>
      </trkpt>
      <trkpt lat="32.582987" lon="35.009431">
        <ele>172.0</ele>
        <time>2011-04-22T06:35:19Z</time>
      </trkpt>
      <trkpt lat="32.583035" lon="35.009485">
        <ele>172.0</ele>
        <time>2011-04-22T06:35:22Z</time>
      </trkpt>
      <trkpt lat="32.583094" lon="35.009544">
        <ele>171.0</ele>
        <time>2011-04-22T06:35:26Z</time>
      </trkpt>
      <trkpt lat="32.583137" lon="35.009619">
        <ele>173.0</ele>
        <time>2011-04-22T06:35:30Z</time>
      </trkpt>
      <trkpt lat="32.583169" lon="35.009689">
        <ele>174.0</ele>
        <time>2011-04-22T06:35:34Z</time>
      </trkpt>
      <trkpt lat="32.583202" lon="35.009758">
        <ele>174.0</ele>
        <time>2011-04-22T06:35:37Z</time>
      </trkpt>
      <trkpt lat="32.583255" lon="35.009834">
        <ele>175.0</ele>
        <time>2011-04-22T06:35:41Z</time>
      </trkpt>
      <trkpt lat="32.583346" lon="35.009973">
        <ele>175.0</ele>
        <time>2011-04-22T06:35:48Z</time>
      </trkpt>
      <trkpt lat="32.583389" lon="35.010054">
        <ele>175.0</ele>
        <time>2011-04-22T06:35:52Z</time>
      </trkpt>
      <trkpt lat="32.583432" lon="35.010118">
        <ele>175.0</ele>
        <time>2011-04-22T06:35:56Z</time>
      </trkpt>
      <trkpt lat="32.583486" lon="35.010193">
        <ele>176.0</ele>
        <time>2011-04-22T06:36:01Z</time>
      </trkpt>
      <trkpt lat="32.583518" lon="35.010263">
        <ele>176.0</ele>
        <time>2011-04-22T06:36:03Z</time>
      </trkpt>
      <trkpt lat="32.583556" lon="35.010332">
        <ele>177.0</ele>
        <time>2011-04-22T06:36:06Z</time>
      </trkpt>
      <trkpt lat="32.583593" lon="35.010418">
        <ele>177.0</ele>
        <time>2011-04-22T06:36:10Z</time>
      </trkpt>
      <trkpt lat="32.583625" lon="35.010493">
        <ele>178.0</ele>
        <time>2011-04-22T06:36:14Z</time>
      </trkpt>
      <trkpt lat="32.583674" lon="35.010547">
        <ele>178.0</ele>
        <time>2011-04-22T06:36:19Z</time>
      </trkpt>
      <trkpt lat="32.583727" lon="35.010617">
        <ele>178.0</ele>
        <time>2011-04-22T06:36:23Z</time>
      </trkpt>
      <trkpt lat="32.583759" lon="35.010687">
        <ele>179.0</ele>
        <time>2011-04-22T06:36:26Z</time>
      </trkpt>
      <trkpt lat="32.583776" lon="35.010762">
        <ele>180.0</ele>
        <time>2011-04-22T06:36:29Z</time>
      </trkpt>
      <trkpt lat="32.583792" lon="35.010853">
        <ele>180.0</ele>
        <time>2011-04-22T06:36:33Z</time>
      </trkpt>
      <trkpt lat="32.583802" lon="35.010933">
        <ele>181.0</ele>
        <time>2011-04-22T06:36:37Z</time>
      </trkpt>
      <trkpt lat="32.583813" lon="35.011105">
        <ele>183.0</ele>
        <time>2011-04-22T06:36:44Z</time>
      </trkpt>
      <trkpt lat="32.583808" lon="35.011185">
        <ele>182.0</ele>
        <time>2011-04-22T06:36:47Z</time>
      </trkpt>
      <trkpt lat="32.583797" lon="35.011261">
        <ele>183.0</ele>
        <time>2011-04-22T06:36:51Z</time>
      </trkpt>
      <trkpt lat="32.583776" lon="35.011336">
        <ele>184.0</ele>
        <time>2011-04-22T06:36:57Z</time>
      </trkpt>
      <trkpt lat="32.583738" lon="35.011405">
        <ele>186.0</ele>
        <time>2011-04-22T06:37:04Z</time>
      </trkpt>
      <trkpt lat="32.583722" lon="35.01148">
        <ele>186.0</ele>
        <time>2011-04-22T06:37:10Z</time>
      </trkpt>
      <trkpt lat="32.583717" lon="35.011566">
        <ele>187.0</ele>
        <time>2011-04-22T06:37:17Z</time>
      </trkpt>
      <trkpt lat="32.583695" lon="35.011641">
        <ele>187.0</ele>
        <time>2011-04-22T06:37:21Z</time>
      </trkpt>
      <trkpt lat="32.583679" lon="35.011722">
        <ele>189.0</ele>
        <time>2011-04-22T06:37:26Z</time>
      </trkpt>
      <trkpt lat="32.583674" lon="35.011802">
        <ele>188.0</ele>
        <time>2011-04-22T06:37:31Z</time>
      </trkpt>
      <trkpt lat="32.583674" lon="35.011877">
        <ele>188.0</ele>
        <time>2011-04-22T06:37:35Z</time>
      </trkpt>
      <trkpt lat="32.583647" lon="35.011953">
        <ele>190.0</ele>
        <time>2011-04-22T06:37:40Z</time>
      </trkpt>
      <trkpt lat="32.583556" lon="35.012065">
        <ele>191.0</ele>
        <time>2011-04-22T06:37:50Z</time>
      </trkpt>
      <trkpt lat="32.583534" lon="35.012151">
        <ele>192.0</ele>
        <time>2011-04-22T06:37:55Z</time>
      </trkpt>
      <trkpt lat="32.583518" lon="35.012323">
        <ele>193.0</ele>
        <time>2011-04-22T06:38:04Z</time>
      </trkpt>
      <trkpt lat="32.583529" lon="35.012408">
        <ele>192.0</ele>
        <time>2011-04-22T06:38:08Z</time>
      </trkpt>
      <trkpt lat="32.583556" lon="35.012484">
        <ele>192.0</ele>
        <time>2011-04-22T06:38:12Z</time>
      </trkpt>
      <trkpt lat="32.583588" lon="35.012559">
        <ele>193.0</ele>
        <time>2011-04-22T06:38:16Z</time>
      </trkpt>
      <trkpt lat="32.583625" lon="35.012741">
        <ele>193.0</ele>
        <time>2011-04-22T06:38:24Z</time>
      </trkpt>
      <trkpt lat="32.583652" lon="35.012816">
        <ele>194.0</ele>
        <time>2011-04-22T06:38:27Z</time>
      </trkpt>
      <trkpt lat="32.583684" lon="35.012907">
        <ele>194.0</ele>
        <time>2011-04-22T06:38:30Z</time>
      </trkpt>
      <trkpt lat="32.583711" lon="35.013084">
        <ele>193.0</ele>
        <time>2011-04-22T06:38:36Z</time>
      </trkpt>
      <trkpt lat="32.583733" lon="35.013165">
        <ele>193.0</ele>
        <time>2011-04-22T06:38:39Z</time>
      </trkpt>
      <trkpt lat="32.583829" lon="35.013299">
        <ele>193.0</ele>
        <time>2011-04-22T06:38:46Z</time>
      </trkpt>
      <trkpt lat="32.583995" lon="35.013363">
        <ele>193.0</ele>
        <time>2011-04-22T06:38:52Z</time>
      </trkpt>
      <trkpt lat="32.584081" lon="35.013363">
        <ele>192.0</ele>
        <time>2011-04-22T06:38:56Z</time>
      </trkpt>
      <trkpt lat="32.584162" lon="35.013379">
        <ele>192.0</ele>
        <time>2011-04-22T06:38:58Z</time>
      </trkpt>
      <trkpt lat="32.584242" lon="35.013379">
        <ele>193.0</ele>
        <time>2011-04-22T06:39:01Z</time>
      </trkpt>
      <trkpt lat="32.584301" lon="35.013347">
        <ele>195.0</ele>
        <time>2011-04-22T06:39:06Z</time>
      </trkpt>
      <trkpt lat="32.584301" lon="35.013347">
        <time>2011-04-22T06:39:18Z</time>
      </trkpt>
    </trkseg>
    <trkseg>
      <trkpt lat="32.584301" lon="35.013347">
        <time>2011-04-22T06:39:21Z</time>
      </trkpt>
      <trkpt lat="32.584301" lon="35.013347">
        <time>2011-04-22T06:39:33Z</time>
      </trkpt>
    </trkseg>
    <trkseg>
      <trkpt lat="32.584301" lon="35.013347">
        <time>2011-04-22T06:47:26Z</time>
      </trkpt>
      <trkpt lat="32.584301" lon="35.013347">
        <time>2011-04-22T06:47:38Z</time>
      </trkpt>
    </trkseg>
    <trkseg>
      <trkpt lat="32.584301" lon="35.013347">
        <time>2011-04-22T06:48:30Z</time>
      </trkpt>
      <trkpt lat="32.584478" lon="35.013058">
        <ele>204.0</ele>
        <time>2011-04-22T06:48:34Z</time>
      </trkpt>
      <trkpt lat="32.584553" lon="35.012907">
        <ele>204.0</ele>
        <time>2011-04-22T06:48:39Z</time>
      </trkpt>
      <trkpt lat="32.584575" lon="35.012816">
        <ele>205.0</ele>
        <time>2011-04-22T06:48:42Z</time>
      </trkpt>
      <trkpt lat="32.584655" lon="35.012677">
        <ele>204.0</ele>
        <time>2011-04-22T06:48:47Z</time>
      </trkpt>
      <trkpt lat="32.584687" lon="35.012612">
        <ele>204.0</ele>
        <time>2011-04-22T06:48:49Z</time>
      </trkpt>
      <trkpt lat="32.584864" lon="35.012435">
        <ele>201.0</ele>
        <time>2011-04-22T06:48:57Z</time>
      </trkpt>
      <trkpt lat="32.584993" lon="35.012366">
        <ele>201.0</ele>
        <time>2011-04-22T06:49:01Z</time>
      </trkpt>
      <trkpt lat="32.585122" lon="35.012269">
        <ele>200.0</ele>
        <time>2011-04-22T06:49:06Z</time>
      </trkpt>
      <trkpt lat="32.585235" lon="35.012108">
        <ele>200.0</ele>
        <time>2011-04-22T06:49:11Z</time>
      </trkpt>
      <trkpt lat="32.585294" lon="35.011942">
        <ele>200.0</ele>
        <time>2011-04-22T06:49:15Z</time>
      </trkpt>
      <trkpt lat="32.585379" lon="35.011797">
        <ele>201.0</ele>
        <time>2011-04-22T06:49:19Z</time>
      </trkpt>
      <trkpt lat="32.585428" lon="35.011641">
        <ele>201.0</ele>
        <time>2011-04-22T06:49:23Z</time>
      </trkpt>
      <trkpt lat="32.585449" lon="35.011566">
        <ele>201.0</ele>
        <time>2011-04-22T06:49:25Z</time>
      </trkpt>
      <trkpt lat="32.58554" lon="35.011416">
        <ele>202.0</ele>
        <time>2011-04-22T06:49:31Z</time>
      </trkpt>
      <trkpt lat="32.585583" lon="35.011175">
        <ele>203.0</ele>
        <time>2011-04-22T06:49:39Z</time>
      </trkpt>
      <trkpt lat="32.585551" lon="35.010987">
        <ele>203.0</ele>
        <time>2011-04-22T06:49:46Z</time>
      </trkpt>
      <trkpt lat="32.585567" lon="35.010901">
        <ele>204.0</ele>
        <time>2011-04-22T06:49:50Z</time>
      </trkpt>
      <trkpt lat="32.58553" lon="35.010633">
        <ele>206.0</ele>
        <time>2011-04-22T06:49:59Z</time>
      </trkpt>
      <trkpt lat="32.585492" lon="35.010552">
        <ele>206.0</ele>
        <time>2011-04-22T06:50:03Z</time>
      </trkpt>
      <trkpt lat="32.585465" lon="35.010477">
        <ele>206.0</ele>
        <time>2011-04-22T06:50:06Z</time>
      </trkpt>
      <trkpt lat="32.585476" lon="35.010402">
        <ele>207.0</ele>
        <time>2011-04-22T06:50:09Z</time>
      </trkpt>
      <trkpt lat="32.585417" lon="35.01022">
        <ele>207.0</ele>
        <time>2011-04-22T06:50:17Z</time>
      </trkpt>
      <trkpt lat="32.585417" lon="35.010145">
        <ele>209.0</ele>
        <time>2011-04-22T06:50:21Z</time>
      </trkpt>
      <trkpt lat="32.58546" lon="35.009919">
        <ele>209.0</ele>
        <time>2011-04-22T06:50:30Z</time>
      </trkpt>
      <trkpt lat="32.585417" lon="35.009839">
        <ele>209.0</ele>
        <time>2011-04-22T06:50:33Z</time>
      </trkpt>
      <trkpt lat="32.585417" lon="35.009764">
        <ele>210.0</ele>
        <time>2011-04-22T06:50:36Z</time>
      </trkpt>
      <trkpt lat="32.585406" lon="35.009571">
        <ele>212.0</ele>
        <time>2011-04-22T06:50:43Z</time>
      </trkpt>
      <trkpt lat="32.585396" lon="35.009469">
        <ele>212.0</ele>
        <time>2011-04-22T06:50:46Z</time>
      </trkpt>
      <trkpt lat="32.585385" lon="35.009394">
        <ele>212.0</ele>
        <time>2011-04-22T06:50:50Z</time>
      </trkpt>
      <trkpt lat="32.585363" lon="35.009313">
        <ele>212.0</ele>
        <time>2011-04-22T06:50:55Z</time>
      </trkpt>
      <trkpt lat="32.585363" lon="35.009313">
        <time>2011-04-22T06:51:07Z</time>
      </trkpt>
    </trkseg>
    <trkseg>
      <trkpt lat="32.585363" lon="35.009313">
        <time>2011-04-22T06:51:52Z</time>
      </trkpt>
      <trkpt lat="32.585685" lon="35.009313">
        <ele>210.0</ele>
        <time>2011-04-22T06:51:57Z</time>
      </trkpt>
      <trkpt lat="32.585782" lon="35.009302">
        <ele>208.0</ele>
        <time>2011-04-22T06:51:59Z</time>
      </trkpt>
      <trkpt lat="32.585782" lon="35.009302">
        <time>2011-04-22T06:52:11Z</time>
      </trkpt>
    </trkseg>
    <trkseg>
      <trkpt lat="32.585782" lon="35.009302">
        <time>2011-04-22T06:52:19Z</time>
      </trkpt>
      <trkpt lat="32.585991" lon="35.009206">
        <ele>200.0</ele>
        <time>2011-04-22T06:52:22Z</time>
      </trkpt>
      <trkpt lat="32.58605" lon="35.009238">
        <ele>199.0</ele>
        <time>2011-04-22T06:52:26Z</time>
      </trkpt>
      <trkpt lat="32.586109" lon="35.009286">
        <ele>196.0</ele>
        <time>2011-04-22T06:52:30Z</time>
      </trkpt>
      <trkpt lat="32.58619" lon="35.009335">
        <ele>193.0</ele>
        <time>2011-04-22T06:52:34Z</time>
      </trkpt>
      <trkpt lat="32.586265" lon="35.00934">
        <ele>192.0</ele>
        <time>2011-04-22T06:52:37Z</time>
      </trkpt>
      <trkpt lat="32.586329" lon="35.009335">
        <ele>192.0</ele>
        <time>2011-04-22T06:52:41Z</time>
      </trkpt>
      <trkpt lat="32.586393" lon="35.009297">
        <ele>192.0</ele>
        <time>2011-04-22T06:52:46Z</time>
      </trkpt>
      <trkpt lat="32.586426" lon="35.009233">
        <ele>191.0</ele>
        <time>2011-04-22T06:52:50Z</time>
      </trkpt>
      <trkpt lat="32.586468" lon="35.009158">
        <ele>188.0</ele>
        <time>2011-04-22T06:52:55Z</time>
      </trkpt>
      <trkpt lat="32.58649" lon="35.009066">
        <ele>186.0</ele>
        <time>2011-04-22T06:53:00Z</time>
      </trkpt>
      <trkpt lat="32.586538" lon="35.009007">
        <ele>183.0</ele>
        <time>2011-04-22T06:53:04Z</time>
      </trkpt>
      <trkpt lat="32.586527" lon="35.008916">
        <ele>182.0</ele>
        <time>2011-04-22T06:53:09Z</time>
      </trkpt>
      <trkpt lat="32.586554" lon="35.00883">
        <ele>181.0</ele>
        <time>2011-04-22T06:53:12Z</time>
      </trkpt>
      <trkpt lat="32.586592" lon="35.008745">
        <ele>178.0</ele>
        <time>2011-04-22T06:53:16Z</time>
      </trkpt>
      <trkpt lat="32.586619" lon="35.008546">
        <ele>177.0</ele>
        <time>2011-04-22T06:53:22Z</time>
      </trkpt>
      <trkpt lat="32.586635" lon="35.008455">
        <ele>176.0</ele>
        <time>2011-04-22T06:53:24Z</time>
      </trkpt>
      <trkpt lat="32.586683" lon="35.008283">
        <ele>172.0</ele>
        <time>2011-04-22T06:53:30Z</time>
      </trkpt>
      <trkpt lat="32.586715" lon="35.008187">
        <ele>169.0</ele>
        <time>2011-04-22T06:53:33Z</time>
      </trkpt>
      <trkpt lat="32.586715" lon="35.00809">
        <ele>167.0</ele>
        <time>2011-04-22T06:53:37Z</time>
      </trkpt>
      <trkpt lat="32.586715" lon="35.008015">
        <ele>164.0</ele>
        <time>2011-04-22T06:53:41Z</time>
      </trkpt>
      <trkpt lat="32.586753" lon="35.00794">
        <ele>160.0</ele>
        <time>2011-04-22T06:53:45Z</time>
      </trkpt>
      <trkpt lat="32.58686" lon="35.007838">
        <ele>159.0</ele>
        <time>2011-04-22T06:53:50Z</time>
      </trkpt>
      <trkpt lat="32.586908" lon="35.007918">
        <ele>156.0</ele>
        <time>2011-04-22T06:53:54Z</time>
      </trkpt>
      <trkpt lat="32.586967" lon="35.00787">
        <ele>153.0</ele>
        <time>2011-04-22T06:53:59Z</time>
      </trkpt>
      <trkpt lat="32.587032" lon="35.007849">
        <ele>151.0</ele>
        <time>2011-04-22T06:54:04Z</time>
      </trkpt>
      <trkpt lat="32.587101" lon="35.007827">
        <ele>148.0</ele>
        <time>2011-04-22T06:54:09Z</time>
      </trkpt>
      <trkpt lat="32.587177" lon="35.007833">
        <ele>145.0</ele>
        <time>2011-04-22T06:54:14Z</time>
      </trkpt>
      <trkpt lat="32.587246" lon="35.007827">
        <ele>144.0</ele>
        <time>2011-04-22T06:54:18Z</time>
      </trkpt>
      <trkpt lat="32.587311" lon="35.007838">
        <ele>143.0</ele>
        <time>2011-04-22T06:54:23Z</time>
      </trkpt>
      <trkpt lat="32.587289" lon="35.007672">
        <ele>140.0</ele>
        <time>2011-04-22T06:54:30Z</time>
      </trkpt>
      <trkpt lat="32.587407" lon="35.007597">
        <ele>135.0</ele>
        <time>2011-04-22T06:54:38Z</time>
      </trkpt>
      <trkpt lat="32.587493" lon="35.007586">
        <ele>132.0</ele>
        <time>2011-04-22T06:54:41Z</time>
      </trkpt>
      <trkpt lat="32.587633" lon="35.007602">
        <ele>129.0</ele>
        <time>2011-04-22T06:54:46Z</time>
      </trkpt>
      <trkpt lat="32.58767" lon="35.007731">
        <ele>127.0</ele>
        <time>2011-04-22T06:54:54Z</time>
      </trkpt>
      <trkpt lat="32.58767" lon="35.007731">
        <time>2011-04-22T06:55:06Z</time>
      </trkpt>
    </trkseg>
    <trkseg>
      <trkpt lat="32.58767" lon="35.007731">
        <time>2011-04-22T07:01:00Z</time>
      </trkpt>
      <trkpt lat="32.58767" lon="35.007731">
        <time>2011-04-22T07:01:11Z</time>
      </trkpt>
    </trkseg>
    <trkseg>
      <trkpt lat="32.58767" lon="35.007731">
        <time>2011-04-22T07:01:13Z</time>
      </trkpt>
      <trkpt lat="32.587751" lon="35.008031">
        <ele>119.0</ele>
        <time>2011-04-22T07:01:18Z</time>
      </trkpt>
      <trkpt lat="32.587793" lon="35.008101">
        <ele>119.0</ele>
        <time>2011-04-22T07:01:22Z</time>
      </trkpt>
      <trkpt lat="32.587826" lon="35.008171">
        <ele>118.0</ele>
        <time>2011-04-22T07:01:25Z</time>
      </trkpt>
      <trkpt lat="32.587874" lon="35.008246">
        <ele>116.0</ele>
        <time>2011-04-22T07:01:29Z</time>
      </trkpt>
      <trkpt lat="32.587922" lon="35.00831">
        <ele>116.0</ele>
        <time>2011-04-22T07:01:33Z</time>
      </trkpt>
      <trkpt lat="32.588019" lon="35.008439">
        <ele>114.0</ele>
        <time>2011-04-22T07:01:39Z</time>
      </trkpt>
      <trkpt lat="32.588067" lon="35.008525">
        <ele>112.0</ele>
        <time>2011-04-22T07:01:42Z</time>
      </trkpt>
      <trkpt lat="32.588121" lon="35.0086">
        <ele>112.0</ele>
        <time>2011-04-22T07:01:46Z</time>
      </trkpt>
      <trkpt lat="32.588169" lon="35.008659">
        <ele>112.0</ele>
        <time>2011-04-22T07:01:48Z</time>
      </trkpt>
      <trkpt lat="32.588249" lon="35.008793">
        <ele>111.0</ele>
        <time>2011-04-22T07:01:56Z</time>
      </trkpt>
      <trkpt lat="32.588373" lon="35.008938">
        <ele>112.0</ele>
        <time>2011-04-22T07:02:03Z</time>
      </trkpt>
      <trkpt lat="32.588405" lon="35.009013">
        <ele>113.0</ele>
        <time>2011-04-22T07:02:06Z</time>
      </trkpt>
      <trkpt lat="32.588448" lon="35.009104">
        <ele>111.0</ele>
        <time>2011-04-22T07:02:09Z</time>
      </trkpt>
      <trkpt lat="32.58848" lon="35.009265">
        <ele>109.0</ele>
        <time>2011-04-22T07:02:15Z</time>
      </trkpt>
      <trkpt lat="32.58848" lon="35.009351">
        <ele>108.0</ele>
        <time>2011-04-22T07:02:18Z</time>
      </trkpt>
      <trkpt lat="32.58848" lon="35.009426">
        <ele>107.0</ele>
        <time>2011-04-22T07:02:21Z</time>
      </trkpt>
      <trkpt lat="32.588485" lon="35.009517">
        <ele>106.0</ele>
        <time>2011-04-22T07:02:25Z</time>
      </trkpt>
      <trkpt lat="32.58848" lon="35.009598">
        <ele>107.0</ele>
        <time>2011-04-22T07:02:29Z</time>
      </trkpt>
      <trkpt lat="32.588491" lon="35.009683">
        <ele>108.0</ele>
        <time>2011-04-22T07:02:33Z</time>
      </trkpt>
      <trkpt lat="32.588475" lon="35.009769">
        <ele>111.0</ele>
        <time>2011-04-22T07:02:37Z</time>
      </trkpt>
      <trkpt lat="32.588469" lon="35.00985">
        <ele>113.0</ele>
        <time>2011-04-22T07:02:42Z</time>
      </trkpt>
      <trkpt lat="32.588448" lon="35.010021">
        <ele>116.0</ele>
        <time>2011-04-22T07:02:51Z</time>
      </trkpt>
      <trkpt lat="32.588453" lon="35.010102">
        <ele>117.0</ele>
        <time>2011-04-22T07:02:55Z</time>
      </trkpt>
      <trkpt lat="32.588459" lon="35.010177">
        <ele>120.0</ele>
        <time>2011-04-22T07:02:59Z</time>
      </trkpt>
      <trkpt lat="32.588464" lon="35.010257">
        <ele>120.0</ele>
        <time>2011-04-22T07:03:03Z</time>
      </trkpt>
      <trkpt lat="32.58848" lon="35.010332">
        <ele>121.0</ele>
        <time>2011-04-22T07:03:06Z</time>
      </trkpt>
      <trkpt lat="32.588502" lon="35.010424">
        <ele>121.0</ele>
        <time>2011-04-22T07:03:10Z</time>
      </trkpt>
      <trkpt lat="32.588518" lon="35.010499">
        <ele>122.0</ele>
        <time>2011-04-22T07:03:13Z</time>
      </trkpt>
      <trkpt lat="32.588534" lon="35.010574">
        <ele>121.0</ele>
        <time>2011-04-22T07:03:16Z</time>
      </trkpt>
      <trkpt lat="32.588577" lon="35.010746">
        <ele>120.0</ele>
        <time>2011-04-22T07:03:23Z</time>
      </trkpt>
      <trkpt lat="32.588598" lon="35.010826">
        <ele>120.0</ele>
        <time>2011-04-22T07:03:26Z</time>
      </trkpt>
      <trkpt lat="32.58862" lon="35.010923">
        <ele>120.0</ele>
        <time>2011-04-22T07:03:29Z</time>
      </trkpt>
      <trkpt lat="32.588668" lon="35.011105">
        <ele>120.0</ele>
        <time>2011-04-22T07:03:35Z</time>
      </trkpt>
      <trkpt lat="32.5887" lon="35.011196">
        <ele>120.0</ele>
        <time>2011-04-22T07:03:38Z</time>
      </trkpt>
      <trkpt lat="32.588727" lon="35.011298">
        <ele>120.0</ele>
        <time>2011-04-22T07:03:41Z</time>
      </trkpt>
      <trkpt lat="32.588759" lon="35.01148">
        <ele>121.0</ele>
        <time>2011-04-22T07:03:47Z</time>
      </trkpt>
      <trkpt lat="32.588754" lon="35.011577">
        <ele>121.0</ele>
        <time>2011-04-22T07:03:51Z</time>
      </trkpt>
      <trkpt lat="32.588759" lon="35.011652">
        <ele>122.0</ele>
        <time>2011-04-22T07:03:54Z</time>
      </trkpt>
      <trkpt lat="32.588759" lon="35.011743">
        <ele>122.0</ele>
        <time>2011-04-22T07:03:58Z</time>
      </trkpt>
      <trkpt lat="32.58877" lon="35.011824">
        <ele>122.0</ele>
        <time>2011-04-22T07:04:01Z</time>
      </trkpt>
      <trkpt lat="32.588791" lon="35.01191">
        <ele>121.0</ele>
        <time>2011-04-22T07:04:04Z</time>
      </trkpt>
      <trkpt lat="32.588802" lon="35.01199">
        <ele>120.0</ele>
        <time>2011-04-22T07:04:08Z</time>
      </trkpt>
      <trkpt lat="32.588781" lon="35.012071">
        <ele>125.0</ele>
        <time>2011-04-22T07:04:18Z</time>
      </trkpt>
      <trkpt lat="32.588743" lon="35.012135">
        <ele>129.0</ele>
        <time>2011-04-22T07:04:27Z</time>
      </trkpt>
      <trkpt lat="32.588705" lon="35.012205">
        <ele>130.0</ele>
        <time>2011-04-22T07:04:35Z</time>
      </trkpt>
      <trkpt lat="32.588663" lon="35.012274">
        <ele>131.0</ele>
        <time>2011-04-22T07:04:44Z</time>
      </trkpt>
      <trkpt lat="32.58862" lon="35.012333">
        <ele>134.0</ele>
        <time>2011-04-22T07:04:53Z</time>
      </trkpt>
      <trkpt lat="32.588577" lon="35.012398">
        <ele>136.0</ele>
        <time>2011-04-22T07:05:02Z</time>
      </trkpt>
      <trkpt lat="32.588528" lon="35.012451">
        <ele>138.0</ele>
        <time>2011-04-22T07:05:10Z</time>
      </trkpt>
      <trkpt lat="32.588491" lon="35.012516">
        <ele>140.0</ele>
        <time>2011-04-22T07:05:18Z</time>
      </trkpt>
      <trkpt lat="32.588453" lon="35.01258">
        <ele>142.0</ele>
        <time>2011-04-22T07:05:25Z</time>
      </trkpt>
      <trkpt lat="32.58841" lon="35.01265">
        <ele>143.0</ele>
        <time>2011-04-22T07:05:35Z</time>
      </trkpt>
      <trkpt lat="32.588373" lon="35.01272">
        <ele>145.0</ele>
        <time>2011-04-22T07:05:43Z</time>
      </trkpt>
      <trkpt lat="32.588335" lon="35.012784">
        <ele>146.0</ele>
        <time>2011-04-22T07:05:51Z</time>
      </trkpt>
      <trkpt lat="32.588303" lon="35.012859">
        <ele>148.0</ele>
        <time>2011-04-22T07:06:00Z</time>
      </trkpt>
      <trkpt lat="32.588282" lon="35.012934">
        <ele>150.0</ele>
        <time>2011-04-22T07:06:08Z</time>
      </trkpt>
      <trkpt lat="32.588282" lon="35.013009">
        <ele>151.0</ele>
        <time>2011-04-22T07:06:15Z</time>
      </trkpt>
      <trkpt lat="32.588276" lon="35.013084">
        <ele>151.0</ele>
        <time>2011-04-22T07:06:21Z</time>
      </trkpt>
      <trkpt lat="32.588255" lon="35.01316">
        <ele>151.0</ele>
        <time>2011-04-22T07:06:28Z</time>
      </trkpt>
      <trkpt lat="32.588255" lon="35.01324">
        <ele>150.0</ele>
        <time>2011-04-22T07:06:34Z</time>
      </trkpt>
      <trkpt lat="32.588244" lon="35.013315">
        <ele>151.0</ele>
        <time>2011-04-22T07:06:39Z</time>
      </trkpt>
      <trkpt lat="32.588217" lon="35.013396">
        <ele>152.0</ele>
        <time>2011-04-22T07:06:46Z</time>
      </trkpt>
      <trkpt lat="32.58819" lon="35.013471">
        <ele>152.0</ele>
        <time>2011-04-22T07:06:52Z</time>
      </trkpt>
      <trkpt lat="32.588121" lon="35.013508">
        <ele>153.0</ele>
        <time>2011-04-22T07:07:00Z</time>
      </trkpt>
      <trkpt lat="32.588062" lon="35.01354">
        <ele>154.0</ele>
        <time>2011-04-22T07:07:06Z</time>
      </trkpt>
      <trkpt lat="32.587997" lon="35.013556">
        <ele>156.0</ele>
        <time>2011-04-22T07:07:13Z</time>
      </trkpt>
      <trkpt lat="32.587938" lon="35.013583">
        <ele>155.0</ele>
        <time>2011-04-22T07:07:19Z</time>
      </trkpt>
      <trkpt lat="32.587874" lon="35.013594">
        <ele>156.0</ele>
        <time>2011-04-22T07:07:25Z</time>
      </trkpt>
      <trkpt lat="32.587799" lon="35.013605">
        <ele>156.0</ele>
        <time>2011-04-22T07:07:31Z</time>
      </trkpt>
      <trkpt lat="32.587734" lon="35.013621">
        <ele>157.0</ele>
        <time>2011-04-22T07:07:37Z</time>
      </trkpt>
      <trkpt lat="32.587665" lon="35.013637">
        <ele>158.0</ele>
        <time>2011-04-22T07:07:43Z</time>
      </trkpt>
      <trkpt lat="32.5876" lon="35.013648">
        <ele>160.0</ele>
        <time>2011-04-22T07:07:50Z</time>
      </trkpt>
      <trkpt lat="32.587536" lon="35.013658">
        <ele>162.0</ele>
        <time>2011-04-22T07:07:57Z</time>
      </trkpt>
      <trkpt lat="32.587472" lon="35.013669">
        <ele>163.0</ele>
        <time>2011-04-22T07:08:03Z</time>
      </trkpt>
      <trkpt lat="32.587402" lon="35.013674">
        <ele>164.0</ele>
        <time>2011-04-22T07:08:10Z</time>
      </trkpt>
      <trkpt lat="32.587337" lon="35.013685">
        <ele>166.0</ele>
        <time>2011-04-22T07:08:19Z</time>
      </trkpt>
      <trkpt lat="32.587262" lon="35.013696">
        <ele>167.0</ele>
        <time>2011-04-22T07:08:26Z</time>
      </trkpt>
      <trkpt lat="32.587198" lon="35.013707">
        <ele>167.0</ele>
        <time>2011-04-22T07:08:31Z</time>
      </trkpt>
      <trkpt lat="32.587128" lon="35.013696">
        <ele>169.0</ele>
        <time>2011-04-22T07:08:38Z</time>
      </trkpt>
      <trkpt lat="32.587064" lon="35.013674">
        <ele>169.0</ele>
        <time>2011-04-22T07:08:46Z</time>
      </trkpt>
      <trkpt lat="32.587" lon="35.013664">
        <ele>171.0</ele>
        <time>2011-04-22T07:08:54Z</time>
      </trkpt>
      <trkpt lat="32.586935" lon="35.013653">
        <ele>174.0</ele>
        <time>2011-04-22T07:09:01Z</time>
      </trkpt>
      <trkpt lat="32.586871" lon="35.013632">
        <ele>175.0</ele>
        <time>2011-04-22T07:09:10Z</time>
      </trkpt>
      <trkpt lat="32.586806" lon="35.013621">
        <ele>176.0</ele>
        <time>2011-04-22T07:09:17Z</time>
      </trkpt>
      <trkpt lat="32.586747" lon="35.013594">
        <ele>176.0</ele>
        <time>2011-04-22T07:09:25Z</time>
      </trkpt>
      <trkpt lat="32.586683" lon="35.013567">
        <ele>178.0</ele>
        <time>2011-04-22T07:09:33Z</time>
      </trkpt>
      <trkpt lat="32.586619" lon="35.01354">
        <ele>177.0</ele>
        <time>2011-04-22T07:09:41Z</time>
      </trkpt>
      <trkpt lat="32.586549" lon="35.013524">
        <ele>180.0</ele>
        <time>2011-04-22T07:09:46Z</time>
      </trkpt>
      <trkpt lat="32.586479" lon="35.013497">
        <ele>180.0</ele>
        <time>2011-04-22T07:09:53Z</time>
      </trkpt>
      <trkpt lat="32.586409" lon="35.013476">
        <ele>182.0</ele>
        <time>2011-04-22T07:10:01Z</time>
      </trkpt>
      <trkpt lat="32.586345" lon="35.013455">
        <ele>184.0</ele>
        <time>2011-04-22T07:10:07Z</time>
      </trkpt>
      <trkpt lat="32.586275" lon="35.013422">
        <ele>187.0</ele>
        <time>2011-04-22T07:10:16Z</time>
      </trkpt>
      <trkpt lat="32.586211" lon="35.013396">
        <ele>193.0</ele>
        <time>2011-04-22T07:10:25Z</time>
      </trkpt>
      <trkpt lat="32.586141" lon="35.013385">
        <ele>195.0</ele>
        <time>2011-04-22T07:10:33Z</time>
      </trkpt>
      <trkpt lat="32.586071" lon="35.01339">
        <ele>193.0</ele>
        <time>2011-04-22T07:10:39Z</time>
      </trkpt>
      <trkpt lat="32.586002" lon="35.013363">
        <ele>192.0</ele>
        <time>2011-04-22T07:10:46Z</time>
      </trkpt>
      <trkpt lat="32.585937" lon="35.013347">
        <ele>192.0</ele>
        <time>2011-04-22T07:10:53Z</time>
      </trkpt>
      <trkpt lat="32.585873" lon="35.01332">
        <ele>195.0</ele>
        <time>2011-04-22T07:11:01Z</time>
      </trkpt>
      <trkpt lat="32.585803" lon="35.01332">
        <ele>195.0</ele>
        <time>2011-04-22T07:11:07Z</time>
      </trkpt>
      <trkpt lat="32.585739" lon="35.013304">
        <ele>195.0</ele>
        <time>2011-04-22T07:11:13Z</time>
      </trkpt>
      <trkpt lat="32.585669" lon="35.013288">
        <ele>193.0</ele>
        <time>2011-04-22T07:11:21Z</time>
      </trkpt>
      <trkpt lat="32.585605" lon="35.013267">
        <ele>197.0</ele>
        <time>2011-04-22T07:11:27Z</time>
      </trkpt>
      <trkpt lat="32.585535" lon="35.013256">
        <ele>198.0</ele>
        <time>2011-04-22T07:11:32Z</time>
      </trkpt>
      <trkpt lat="32.585465" lon="35.013261">
        <ele>197.0</ele>
        <time>2011-04-22T07:11:38Z</time>
      </trkpt>
      <trkpt lat="32.585396" lon="35.013256">
        <ele>198.0</ele>
        <time>2011-04-22T07:11:44Z</time>
      </trkpt>
      <trkpt lat="32.585331" lon="35.013267">
        <ele>199.0</ele>
        <time>2011-04-22T07:11:50Z</time>
      </trkpt>
      <trkpt lat="32.585261" lon="35.013272">
        <ele>199.0</ele>
        <time>2011-04-22T07:11:56Z</time>
      </trkpt>
      <trkpt lat="32.585197" lon="35.013261">
        <ele>202.0</ele>
        <time>2011-04-22T07:12:03Z</time>
      </trkpt>
      <trkpt lat="32.585127" lon="35.013251">
        <ele>206.0</ele>
        <time>2011-04-22T07:12:09Z</time>
      </trkpt>
      <trkpt lat="32.585063" lon="35.013261">
        <ele>208.0</ele>
        <time>2011-04-22T07:12:15Z</time>
      </trkpt>
      <trkpt lat="32.584993" lon="35.013251">
        <ele>210.0</ele>
        <time>2011-04-22T07:12:21Z</time>
      </trkpt>
      <trkpt lat="32.584929" lon="35.013235">
        <ele>214.0</ele>
        <time>2011-04-22T07:12:26Z</time>
      </trkpt>
      <trkpt lat="32.584859" lon="35.013229">
        <ele>214.0</ele>
        <time>2011-04-22T07:12:32Z</time>
      </trkpt>
      <trkpt lat="32.584789" lon="35.013235">
        <ele>215.0</ele>
        <time>2011-04-22T07:12:38Z</time>
      </trkpt>
      <trkpt lat="32.584714" lon="35.01324">
        <ele>215.0</ele>
        <time>2011-04-22T07:12:44Z</time>
      </trkpt>
      <trkpt lat="32.58465" lon="35.013245">
        <ele>210.0</ele>
        <time>2011-04-22T07:12:51Z</time>
      </trkpt>
      <trkpt lat="32.58458" lon="35.013219">
        <ele>209.0</ele>
        <time>2011-04-22T07:12:57Z</time>
      </trkpt>
      <trkpt lat="32.58458" lon="35.013219">
        <time>2011-04-22T07:13:08Z</time>
      </trkpt>
    </trkseg>
    <trkseg>
      <trkpt lat="32.58458" lon="35.013219">
        <time>2011-04-22T07:15:00Z</time>
      </trkpt>
      <trkpt lat="32.584704" lon="35.013036">
        <ele>202.0</ele>
        <time>2011-04-22T07:15:03Z</time>
      </trkpt>
      <trkpt lat="32.584763" lon="35.012999">
        <ele>204.0</ele>
        <time>2011-04-22T07:15:08Z</time>
      </trkpt>
      <trkpt lat="32.584763" lon="35.012999">
        <time>2011-04-22T07:15:20Z</time>
      </trkpt>
    </trkseg>
    <trkseg>
      <trkpt lat="32.584763" lon="35.012999">
        <time>2011-04-22T07:15:23Z</time>
      </trkpt>
      <trkpt lat="32.584875" lon="35.01295">
        <ele>202.0</ele>
        <time>2011-04-22T07:15:26Z</time>
      </trkpt>
      <trkpt lat="32.585009" lon="35.013009">
        <ele>202.0</ele>
        <time>2011-04-22T07:15:31Z</time>
      </trkpt>
      <trkpt lat="32.585165" lon="35.013106">
        <ele>200.0</ele>
        <time>2011-04-22T07:15:34Z</time>
      </trkpt>
      <trkpt lat="32.585374" lon="35.013186">
        <ele>199.0</ele>
        <time>2011-04-22T07:15:38Z</time>
      </trkpt>
      <trkpt lat="32.585707" lon="35.01316">
        <ele>196.0</ele>
        <time>2011-04-22T07:15:43Z</time>
      </trkpt>
      <trkpt lat="32.585894" lon="35.013208">
        <ele>193.0</ele>
        <time>2011-04-22T07:15:46Z</time>
      </trkpt>
      <trkpt lat="32.586077" lon="35.013224">
        <ele>192.0</ele>
        <time>2011-04-22T07:15:50Z</time>
      </trkpt>
      <trkpt lat="32.586254" lon="35.013181">
        <ele>193.0</ele>
        <time>2011-04-22T07:15:54Z</time>
      </trkpt>
      <trkpt lat="32.586463" lon="35.013181">
        <ele>191.0</ele>
        <time>2011-04-22T07:15:58Z</time>
      </trkpt>
      <trkpt lat="32.586683" lon="35.013235">
        <ele>189.0</ele>
        <time>2011-04-22T07:16:03Z</time>
      </trkpt>
      <trkpt lat="32.586876" lon="35.013299">
        <ele>187.0</ele>
        <time>2011-04-22T07:16:07Z</time>
      </trkpt>
      <trkpt lat="32.587053" lon="35.013299">
        <ele>187.0</ele>
        <time>2011-04-22T07:16:11Z</time>
      </trkpt>
      <trkpt lat="32.587262" lon="35.013272">
        <ele>185.0</ele>
        <time>2011-04-22T07:16:15Z</time>
      </trkpt>
      <trkpt lat="32.587456" lon="35.013294">
        <ele>182.0</ele>
        <time>2011-04-22T07:16:19Z</time>
      </trkpt>
      <trkpt lat="32.587649" lon="35.013337">
        <ele>183.0</ele>
        <time>2011-04-22T07:16:23Z</time>
      </trkpt>
      <trkpt lat="32.587793" lon="35.013379">
        <ele>182.0</ele>
        <time>2011-04-22T07:16:27Z</time>
      </trkpt>
      <trkpt lat="32.587928" lon="35.013176">
        <ele>180.0</ele>
        <time>2011-04-22T07:16:30Z</time>
      </trkpt>
      <trkpt lat="32.588099" lon="35.012902">
        <ele>176.0</ele>
        <time>2011-04-22T07:16:34Z</time>
      </trkpt>
      <trkpt lat="32.588223" lon="35.01273">
        <ele>171.0</ele>
        <time>2011-04-22T07:16:38Z</time>
      </trkpt>
      <trkpt lat="32.588298" lon="35.012392">
        <ele>166.0</ele>
        <time>2011-04-22T07:16:43Z</time>
      </trkpt>
      <trkpt lat="32.588298" lon="35.012221">
        <ele>163.0</ele>
        <time>2011-04-22T07:16:46Z</time>
      </trkpt>
      <trkpt lat="32.588426" lon="35.012231">
        <ele>160.0</ele>
        <time>2011-04-22T07:16:51Z</time>
      </trkpt>
      <trkpt lat="32.588507" lon="35.012097">
        <ele>153.0</ele>
        <time>2011-04-22T07:16:55Z</time>
      </trkpt>
      <trkpt lat="32.588577" lon="35.011899">
        <ele>150.0</ele>
        <time>2011-04-22T07:16:59Z</time>
      </trkpt>
      <trkpt lat="32.588673" lon="35.0117">
        <ele>145.0</ele>
        <time>2011-04-22T07:17:03Z</time>
      </trkpt>
      <trkpt lat="32.588738" lon="35.011502">
        <ele>144.0</ele>
        <time>2011-04-22T07:17:07Z</time>
      </trkpt>
      <trkpt lat="32.58884" lon="35.011303">
        <ele>144.0</ele>
        <time>2011-04-22T07:17:11Z</time>
      </trkpt>
      <trkpt lat="32.588888" lon="35.011196">
        <ele>144.0</ele>
        <time>2011-04-22T07:17:13Z</time>
      </trkpt>
      <trkpt lat="32.588845" lon="35.010955">
        <ele>144.0</ele>
        <time>2011-04-22T07:17:17Z</time>
      </trkpt>
      <trkpt lat="32.588979" lon="35.010622">
        <ele>143.0</ele>
        <time>2011-04-22T07:17:22Z</time>
      </trkpt>
      <trkpt lat="32.589156" lon="35.010424">
        <ele>139.0</ele>
        <time>2011-04-22T07:17:27Z</time>
      </trkpt>
      <trkpt lat="32.589306" lon="35.010311">
        <ele>135.0</ele>
        <time>2011-04-22T07:17:31Z</time>
      </trkpt>
      <trkpt lat="32.589467" lon="35.010295">
        <ele>135.0</ele>
        <time>2011-04-22T07:17:35Z</time>
      </trkpt>
      <trkpt lat="32.589585" lon="35.010386">
        <ele>133.0</ele>
        <time>2011-04-22T07:17:40Z</time>
      </trkpt>
      <trkpt lat="32.589585" lon="35.010386">
        <time>2011-04-22T07:17:51Z</time>
      </trkpt>
    </trkseg>
    <trkseg>
      <trkpt lat="32.589585" lon="35.010386">
        <time>2011-04-22T07:25:38Z</time>
      </trkpt>
      <trkpt lat="32.589773" lon="35.010391">
        <ele>119.0</ele>
        <time>2011-04-22T07:25:43Z</time>
      </trkpt>
      <trkpt lat="32.589714" lon="35.010424">
        <ele>118.0</ele>
        <time>2011-04-22T07:25:48Z</time>
      </trkpt>
      <trkpt lat="32.589639" lon="35.010402">
        <ele>119.0</ele>
        <time>2011-04-22T07:25:54Z</time>
      </trkpt>
      <trkpt lat="32.589558" lon="35.010402">
        <ele>118.0</ele>
        <time>2011-04-22T07:25:58Z</time>
      </trkpt>
      <trkpt lat="32.589558" lon="35.010402">
        <time>2011-04-22T07:26:10Z</time>
      </trkpt>
    </trkseg>
    <trkseg>
      <trkpt lat="32.589558" lon="35.010402">
        <time>2011-04-22T07:26:15Z</time>
      </trkpt>
      <trkpt lat="32.589558" lon="35.010402">
        <time>2011-04-22T07:26:27Z</time>
      </trkpt>
    </trkseg>
    <trkseg>
      <trkpt lat="32.589558" lon="35.010402">
        <time>2011-04-22T07:26:33Z</time>
      </trkpt>
      <trkpt lat="32.589558" lon="35.010402">
        <time>2011-04-22T07:26:45Z</time>
      </trkpt>
    </trkseg>
    <trkseg>
      <trkpt lat="32.589558" lon="35.010402">
        <time>2011-04-22T07:32:27Z</time>
      </trkpt>
      <trkpt lat="32.589837" lon="35.010332">
        <ele>123.0</ele>
        <time>2011-04-22T07:32:31Z</time>
      </trkpt>
      <trkpt lat="32.589902" lon="35.010257">
        <ele>124.0</ele>
        <time>2011-04-22T07:32:33Z</time>
      </trkpt>
      <trkpt lat="32.590111" lon="35.009978">
        <ele>123.0</ele>
        <time>2011-04-22T07:32:39Z</time>
      </trkpt>
      <trkpt lat="32.590207" lon="35.009834">
        <ele>121.0</ele>
        <time>2011-04-22T07:32:42Z</time>
      </trkpt>
      <trkpt lat="32.590379" lon="35.009539">
        <ele>119.0</ele>
        <time>2011-04-22T07:32:47Z</time>
      </trkpt>
      <trkpt lat="32.590454" lon="35.009329">
        <ele>118.0</ele>
        <time>2011-04-22T07:32:51Z</time>
      </trkpt>
      <trkpt lat="32.590535" lon="35.009109">
        <ele>114.0</ele>
        <time>2011-04-22T07:32:55Z</time>
      </trkpt>
      <trkpt lat="32.590572" lon="35.009018">
        <ele>114.0</ele>
        <time>2011-04-22T07:32:57Z</time>
      </trkpt>
      <trkpt lat="32.590631" lon="35.008863">
        <ele>113.0</ele>
        <time>2011-04-22T07:33:02Z</time>
      </trkpt>
      <trkpt lat="32.590535" lon="35.008745">
        <ele>109.0</ele>
        <time>2011-04-22T07:33:07Z</time>
      </trkpt>
      <trkpt lat="32.59046" lon="35.00868">
        <ele>107.0</ele>
        <time>2011-04-22T07:33:10Z</time>
      </trkpt>
      <trkpt lat="32.59039" lon="35.008621">
        <ele>104.0</ele>
        <time>2011-04-22T07:33:13Z</time>
      </trkpt>
      <trkpt lat="32.590272" lon="35.008525">
        <ele>98.0</ele>
        <time>2011-04-22T07:33:19Z</time>
      </trkpt>
      <trkpt lat="32.590165" lon="35.008396">
        <ele>93.0</ele>
        <time>2011-04-22T07:33:23Z</time>
      </trkpt>
      <trkpt lat="32.590036" lon="35.008278">
        <ele>89.0</ele>
        <time>2011-04-22T07:33:27Z</time>
      </trkpt>
      <trkpt lat="32.58995" lon="35.00809">
        <ele>88.0</ele>
        <time>2011-04-22T07:33:31Z</time>
      </trkpt>
      <trkpt lat="32.589934" lon="35.008015">
        <ele>88.0</ele>
        <time>2011-04-22T07:33:33Z</time>
      </trkpt>
      <trkpt lat="32.590052" lon="35.007918">
        <ele>91.0</ele>
        <time>2011-04-22T07:33:39Z</time>
      </trkpt>
      <trkpt lat="32.590116" lon="35.007897">
        <ele>92.0</ele>
        <time>2011-04-22T07:33:41Z</time>
      </trkpt>
      <trkpt lat="32.590213" lon="35.007833">
        <ele>94.0</ele>
        <time>2011-04-22T07:33:44Z</time>
      </trkpt>
      <trkpt lat="32.590449" lon="35.007682">
        <ele>97.0</ele>
        <time>2011-04-22T07:33:49Z</time>
      </trkpt>
      <trkpt lat="32.590744" lon="35.007382">
        <ele>96.0</ele>
        <time>2011-04-22T07:33:55Z</time>
      </trkpt>
      <trkpt lat="32.59091" lon="35.007146">
        <ele>96.0</ele>
        <time>2011-04-22T07:33:59Z</time>
      </trkpt>
      <trkpt lat="32.591039" lon="35.006931">
        <ele>94.0</ele>
        <time>2011-04-22T07:34:03Z</time>
      </trkpt>
      <trkpt lat="32.591162" lon="35.006765">
        <ele>93.0</ele>
        <time>2011-04-22T07:34:07Z</time>
      </trkpt>
      <trkpt lat="32.591323" lon="35.006577">
        <ele>91.0</ele>
        <time>2011-04-22T07:34:11Z</time>
      </trkpt>
      <trkpt lat="32.59149" lon="35.006406">
        <ele>89.0</ele>
        <time>2011-04-22T07:34:15Z</time>
      </trkpt>
      <trkpt lat="32.591656" lon="35.006261">
        <ele>87.0</ele>
        <time>2011-04-22T07:34:19Z</time>
      </trkpt>
      <trkpt lat="32.591774" lon="35.006089">
        <ele>84.0</ele>
        <time>2011-04-22T07:34:23Z</time>
      </trkpt>
      <trkpt lat="32.591785" lon="35.005901">
        <ele>82.0</ele>
        <time>2011-04-22T07:34:27Z</time>
      </trkpt>
      <trkpt lat="32.591752" lon="35.00573">
        <ele>79.0</ele>
        <time>2011-04-22T07:34:31Z</time>
      </trkpt>
      <trkpt lat="32.59179" lon="35.005644">
        <ele>77.0</ele>
        <time>2011-04-22T07:34:34Z</time>
      </trkpt>
      <trkpt lat="32.591854" lon="35.00559">
        <ele>76.0</ele>
        <time>2011-04-22T07:34:37Z</time>
      </trkpt>
      <trkpt lat="32.591929" lon="35.00559">
        <ele>76.0</ele>
        <time>2011-04-22T07:34:41Z</time>
      </trkpt>
      <trkpt lat="32.591929" lon="35.00559">
        <time>2011-04-22T07:34:52Z</time>
      </trkpt>
    </trkseg>
    <trkseg>
      <trkpt lat="32.591929" lon="35.00559">
        <time>2011-04-22T07:34:53Z</time>
      </trkpt>
      <trkpt lat="32.592133" lon="35.00559">
        <ele>73.0</ele>
        <time>2011-04-22T07:34:56Z</time>
      </trkpt>
      <trkpt lat="32.592198" lon="35.00558">
        <ele>74.0</ele>
        <time>2011-04-22T07:34:59Z</time>
      </trkpt>
      <trkpt lat="32.592267" lon="35.00558">
        <ele>74.0</ele>
        <time>2011-04-22T07:35:02Z</time>
      </trkpt>
      <trkpt lat="32.592423" lon="35.005558">
        <ele>74.0</ele>
        <time>2011-04-22T07:35:08Z</time>
      </trkpt>
      <trkpt lat="32.592498" lon="35.005521">
        <ele>76.0</ele>
        <time>2011-04-22T07:35:12Z</time>
      </trkpt>
      <trkpt lat="32.592562" lon="35.005483">
        <ele>77.0</ele>
        <time>2011-04-22T07:35:15Z</time>
      </trkpt>
      <trkpt lat="32.592686" lon="35.00537">
        <ele>76.0</ele>
        <time>2011-04-22T07:35:24Z</time>
      </trkpt>
      <trkpt lat="32.59275" lon="35.005333">
        <ele>76.0</ele>
        <time>2011-04-22T07:35:28Z</time>
      </trkpt>
      <trkpt lat="32.59282" lon="35.005301">
        <ele>76.0</ele>
        <time>2011-04-22T07:35:33Z</time>
      </trkpt>
      <trkpt lat="32.592884" lon="35.005263">
        <ele>75.0</ele>
        <time>2011-04-22T07:35:37Z</time>
      </trkpt>
      <trkpt lat="32.593013" lon="35.005183">
        <ele>74.0</ele>
        <time>2011-04-22T07:35:44Z</time>
      </trkpt>
      <trkpt lat="32.593077" lon="35.005156">
        <ele>74.0</ele>
        <time>2011-04-22T07:35:47Z</time>
      </trkpt>
      <trkpt lat="32.593158" lon="35.005129">
        <ele>74.0</ele>
        <time>2011-04-22T07:35:51Z</time>
      </trkpt>
      <trkpt lat="32.593217" lon="35.005097">
        <ele>74.0</ele>
        <time>2011-04-22T07:35:55Z</time>
      </trkpt>
      <trkpt lat="32.593287" lon="35.005059">
        <ele>74.0</ele>
        <time>2011-04-22T07:35:59Z</time>
      </trkpt>
      <trkpt lat="32.593351" lon="35.005016">
        <ele>75.0</ele>
        <time>2011-04-22T07:36:03Z</time>
      </trkpt>
      <trkpt lat="32.593415" lon="35.004979">
        <ele>75.0</ele>
        <time>2011-04-22T07:36:07Z</time>
      </trkpt>
      <trkpt lat="32.59348" lon="35.004936">
        <ele>76.0</ele>
        <time>2011-04-22T07:36:13Z</time>
      </trkpt>
      <trkpt lat="32.593544" lon="35.004909">
        <ele>77.0</ele>
        <time>2011-04-22T07:36:17Z</time>
      </trkpt>
      <trkpt lat="32.593603" lon="35.004882">
        <ele>77.0</ele>
        <time>2011-04-22T07:36:21Z</time>
      </trkpt>
      <trkpt lat="32.593668" lon="35.004866">
        <ele>78.0</ele>
        <time>2011-04-22T07:36:25Z</time>
      </trkpt>
      <trkpt lat="32.593732" lon="35.004855">
        <ele>77.0</ele>
        <time>2011-04-22T07:36:29Z</time>
      </trkpt>
      <trkpt lat="32.593775" lon="35.00492">
        <ele>76.0</ele>
        <time>2011-04-22T07:36:37Z</time>
      </trkpt>
      <trkpt lat="32.593796" lon="35.004995">
        <ele>75.0</ele>
        <time>2011-04-22T07:36:46Z</time>
      </trkpt>
      <trkpt lat="32.593839" lon="35.005059">
        <ele>74.0</ele>
        <time>2011-04-22T07:36:55Z</time>
      </trkpt>
      <trkpt lat="32.593887" lon="35.005118">
        <ele>74.0</ele>
        <time>2011-04-22T07:37:04Z</time>
      </trkpt>
      <trkpt lat="32.593925" lon="35.005183">
        <ele>74.0</ele>
        <time>2011-04-22T07:37:12Z</time>
      </trkpt>
      <trkpt lat="32.593898" lon="35.005108">
        <ele>74.0</ele>
        <time>2011-04-22T07:37:22Z</time>
      </trkpt>
      <trkpt lat="32.59385" lon="35.005049">
        <ele>73.0</ele>
        <time>2011-04-22T07:37:26Z</time>
      </trkpt>
      <trkpt lat="32.593812" lon="35.004984">
        <ele>73.0</ele>
        <time>2011-04-22T07:37:30Z</time>
      </trkpt>
      <trkpt lat="32.593786" lon="35.004909">
        <ele>74.0</ele>
        <time>2011-04-22T07:37:35Z</time>
      </trkpt>
      <trkpt lat="32.593759" lon="35.004829">
        <ele>73.0</ele>
        <time>2011-04-22T07:37:43Z</time>
      </trkpt>
      <trkpt lat="32.5937" lon="35.00478">
        <ele>72.0</ele>
        <time>2011-04-22T07:37:52Z</time>
      </trkpt>
      <trkpt lat="32.5937" lon="35.00478">
        <time>2011-04-22T07:38:04Z</time>
      </trkpt>
    </trkseg>
    <trkseg>
      <trkpt lat="32.5937" lon="35.00478">
        <time>2011-04-22T07:38:09Z</time>
      </trkpt>
      <trkpt lat="32.593791" lon="35.004893">
        <ele>73.0</ele>
        <time>2011-04-22T07:38:14Z</time>
      </trkpt>
      <trkpt lat="32.593828" lon="35.004963">
        <ele>72.0</ele>
        <time>2011-04-22T07:38:19Z</time>
      </trkpt>
      <trkpt lat="32.593855" lon="35.005038">
        <ele>73.0</ele>
        <time>2011-04-22T07:38:24Z</time>
      </trkpt>
      <trkpt lat="32.593887" lon="35.005108">
        <ele>73.0</ele>
        <time>2011-04-22T07:38:28Z</time>
      </trkpt>
      <trkpt lat="32.593936" lon="35.005183">
        <ele>73.0</ele>
        <time>2011-04-22T07:38:32Z</time>
      </trkpt>
      <trkpt lat="32.594" lon="35.005252">
        <ele>73.0</ele>
        <time>2011-04-22T07:38:36Z</time>
      </trkpt>
      <trkpt lat="32.594118" lon="35.005354">
        <ele>73.0</ele>
        <time>2011-04-22T07:38:42Z</time>
      </trkpt>
      <trkpt lat="32.594182" lon="35.005397">
        <ele>73.0</ele>
        <time>2011-04-22T07:38:45Z</time>
      </trkpt>
      <trkpt lat="32.594247" lon="35.005435">
        <ele>73.0</ele>
        <time>2011-04-22T07:38:48Z</time>
      </trkpt>
      <trkpt lat="32.594365" lon="35.005504">
        <ele>74.0</ele>
        <time>2011-04-22T07:38:54Z</time>
      </trkpt>
      <trkpt lat="32.594429" lon="35.005547">
        <ele>74.0</ele>
        <time>2011-04-22T07:38:57Z</time>
      </trkpt>
      <trkpt lat="32.594488" lon="35.00558">
        <ele>74.0</ele>
        <time>2011-04-22T07:39:00Z</time>
      </trkpt>
      <trkpt lat="32.594606" lon="35.005671">
        <ele>74.0</ele>
        <time>2011-04-22T07:39:06Z</time>
      </trkpt>
      <trkpt lat="32.594665" lon="35.005708">
        <ele>75.0</ele>
        <time>2011-04-22T07:39:09Z</time>
      </trkpt>
      <trkpt lat="32.594735" lon="35.005746">
        <ele>75.0</ele>
        <time>2011-04-22T07:39:12Z</time>
      </trkpt>
      <trkpt lat="32.594864" lon="35.005826">
        <ele>76.0</ele>
        <time>2011-04-22T07:39:18Z</time>
      </trkpt>
      <trkpt lat="32.594934" lon="35.005853">
        <ele>76.0</ele>
        <time>2011-04-22T07:39:21Z</time>
      </trkpt>
      <trkpt lat="32.595003" lon="35.005875">
        <ele>77.0</ele>
        <time>2011-04-22T07:39:24Z</time>
      </trkpt>
      <trkpt lat="32.595148" lon="35.005891">
        <ele>77.0</ele>
        <time>2011-04-22T07:39:30Z</time>
      </trkpt>
      <trkpt lat="32.595212" lon="35.005885">
        <ele>78.0</ele>
        <time>2011-04-22T07:39:33Z</time>
      </trkpt>
      <trkpt lat="32.595282" lon="35.005891">
        <ele>78.0</ele>
        <time>2011-04-22T07:39:36Z</time>
      </trkpt>
      <trkpt lat="32.595416" lon="35.005944">
        <ele>79.0</ele>
        <time>2011-04-22T07:39:42Z</time>
      </trkpt>
      <trkpt lat="32.595475" lon="35.005987">
        <ele>79.0</ele>
        <time>2011-04-22T07:39:45Z</time>
      </trkpt>
      <trkpt lat="32.59554" lon="35.00603">
        <ele>79.0</ele>
        <time>2011-04-22T07:39:48Z</time>
      </trkpt>
      <trkpt lat="32.595685" lon="35.006105">
        <ele>80.0</ele>
        <time>2011-04-22T07:39:54Z</time>
      </trkpt>
      <trkpt lat="32.595754" lon="35.006137">
        <ele>80.0</ele>
        <time>2011-04-22T07:39:57Z</time>
      </trkpt>
      <trkpt lat="32.595829" lon="35.006159">
        <ele>81.0</ele>
        <time>2011-04-22T07:40:00Z</time>
      </trkpt>
      <trkpt lat="32.595974" lon="35.006202">
        <ele>81.0</ele>
        <time>2011-04-22T07:40:06Z</time>
      </trkpt>
      <trkpt lat="32.596049" lon="35.006213">
        <ele>81.0</ele>
        <time>2011-04-22T07:40:09Z</time>
      </trkpt>
      <trkpt lat="32.59613" lon="35.006218">
        <ele>82.0</ele>
        <time>2011-04-22T07:40:12Z</time>
      </trkpt>
      <trkpt lat="32.59628" lon="35.006202">
        <ele>82.0</ele>
        <time>2011-04-22T07:40:18Z</time>
      </trkpt>
      <trkpt lat="32.596355" lon="35.006191">
        <ele>83.0</ele>
        <time>2011-04-22T07:40:21Z</time>
      </trkpt>
      <trkpt lat="32.596425" lon="35.006175">
        <ele>84.0</ele>
        <time>2011-04-22T07:40:24Z</time>
      </trkpt>
      <trkpt lat="32.59657" lon="35.006137">
        <ele>85.0</ele>
        <time>2011-04-22T07:40:30Z</time>
      </trkpt>
      <trkpt lat="32.59665" lon="35.006132">
        <ele>85.0</ele>
        <time>2011-04-22T07:40:33Z</time>
      </trkpt>
      <trkpt lat="32.596725" lon="35.006121">
        <ele>86.0</ele>
        <time>2011-04-22T07:40:36Z</time>
      </trkpt>
      <trkpt lat="32.59687" lon="35.006116">
        <ele>87.0</ele>
        <time>2011-04-22T07:40:42Z</time>
      </trkpt>
      <trkpt lat="32.596945" lon="35.006105">
        <ele>88.0</ele>
        <time>2011-04-22T07:40:45Z</time>
      </trkpt>
      <trkpt lat="32.59702" lon="35.0061">
        <ele>89.0</ele>
        <time>2011-04-22T07:40:48Z</time>
      </trkpt>
      <trkpt lat="32.597106" lon="35.006078">
        <ele>89.0</ele>
        <time>2011-04-22T07:40:52Z</time>
      </trkpt>
      <trkpt lat="32.597149" lon="35.006014">
        <ele>91.0</ele>
        <time>2011-04-22T07:40:55Z</time>
      </trkpt>
      <trkpt lat="32.597176" lon="35.005918">
        <ele>91.0</ele>
        <time>2011-04-22T07:40:59Z</time>
      </trkpt>
      <trkpt lat="32.597181" lon="35.00566">
        <ele>93.0</ele>
        <time>2011-04-22T07:41:10Z</time>
      </trkpt>
      <trkpt lat="32.59717" lon="35.005569">
        <ele>94.0</ele>
        <time>2011-04-22T07:41:14Z</time>
      </trkpt>
      <trkpt lat="32.597138" lon="35.005483">
        <ele>94.0</ele>
        <time>2011-04-22T07:41:18Z</time>
      </trkpt>
      <trkpt lat="32.597117" lon="35.005403">
        <ele>95.0</ele>
        <time>2011-04-22T07:41:22Z</time>
      </trkpt>
      <trkpt lat="32.597079" lon="35.005327">
        <ele>96.0</ele>
        <time>2011-04-22T07:41:25Z</time>
      </trkpt>
      <trkpt lat="32.597074" lon="35.005242">
        <ele>98.0</ele>
        <time>2011-04-22T07:41:29Z</time>
      </trkpt>
      <trkpt lat="32.597074" lon="35.005156">
        <ele>99.0</ele>
        <time>2011-04-22T07:41:33Z</time>
      </trkpt>
      <trkpt lat="32.597063" lon="35.00507">
        <ele>99.0</ele>
        <time>2011-04-22T07:41:38Z</time>
      </trkpt>
      <trkpt lat="32.597063" lon="35.004995">
        <ele>100.0</ele>
        <time>2011-04-22T07:41:42Z</time>
      </trkpt>
      <trkpt lat="32.597063" lon="35.004909">
        <ele>101.0</ele>
        <time>2011-04-22T07:41:46Z</time>
      </trkpt>
      <trkpt lat="32.597074" lon="35.004759">
        <ele>103.0</ele>
        <time>2011-04-22T07:41:54Z</time>
      </trkpt>
      <trkpt lat="32.59709" lon="35.004678">
        <ele>104.0</ele>
        <time>2011-04-22T07:41:59Z</time>
      </trkpt>
      <trkpt lat="32.597101" lon="35.004603">
        <ele>105.0</ele>
        <time>2011-04-22T07:42:04Z</time>
      </trkpt>
      <trkpt lat="32.597117" lon="35.004528">
        <ele>107.0</ele>
        <time>2011-04-22T07:42:09Z</time>
      </trkpt>
      <trkpt lat="32.597117" lon="35.004528">
        <time>2011-04-22T07:42:21Z</time>
      </trkpt>
    </trkseg>
    <trkseg>
      <trkpt lat="32.597117" lon="35.004528">
        <time>2011-04-22T07:42:22Z</time>
      </trkpt>
      <trkpt lat="32.597117" lon="35.004528">
        <time>2011-04-22T07:42:34Z</time>
      </trkpt>
    </trkseg>
    <trkseg>
      <trkpt lat="32.597117" lon="35.004528">
        <time>2011-04-22T07:42:34Z</time>
      </trkpt>
      <trkpt lat="32.59731" lon="35.004249">
        <ele>107.0</ele>
        <time>2011-04-22T07:42:38Z</time>
      </trkpt>
      <trkpt lat="32.59731" lon="35.004249">
        <time>2011-04-22T07:42:50Z</time>
      </trkpt>
    </trkseg>
    <trkseg>
      <trkpt lat="32.59731" lon="35.004249">
        <time>2011-04-22T07:47:29Z</time>
      </trkpt>
    </trkseg>
  </trk>
</gpx>